<?xml version="1.0" encoding="UTF-8" standalone="no" ?>
<gpx xmlns="http://www.topografix.com/GPX/1/1" xmlns:xsi="http://www.w3.org/2001/XMLSchema-instance" xsi:schemaLocation="http://www.topografix.com/GPX/1/1 http://www.topografix.com/GPX/1/1/gpx.xsd" version="1.1" creator="VisuGPX - https://www.visugpx.com">
  <metadata>
    <name>Lozère Jour 2</name>
    <desc><![CDATA[st privat du fau]]></desc>
  </metadata>
  <trk>
    <name><![CDATA[Lozère Jour 2_1]]></name>
    <trkseg>
      <trkpt lat="44.91681" lon="3.34187">
        <ele>1092.2</ele>
        <time>2022-06-08T09:04:32Z</time>
      </trkpt>
      <trkpt lat="44.91682" lon="3.3418">
        <ele>1091.5</ele>
        <time>2022-06-08T09:06:29Z</time>
      </trkpt>
      <trkpt lat="44.91683" lon="3.34173">
        <ele>1092</ele>
        <time>2022-06-08T09:06:36Z</time>
      </trkpt>
      <trkpt lat="44.91682" lon="3.34167">
        <ele>1093.3</ele>
        <time>2022-06-08T09:07:03Z</time>
      </trkpt>
      <trkpt lat="44.91686" lon="3.34162">
        <ele>1092.5</ele>
        <time>2022-06-08T09:07:09Z</time>
      </trkpt>
      <trkpt lat="44.91689" lon="3.34157">
        <ele>1092.9</ele>
        <time>2022-06-08T09:07:15Z</time>
      </trkpt>
      <trkpt lat="44.91692" lon="3.34152">
        <ele>1093.1</ele>
        <time>2022-06-08T09:07:20Z</time>
      </trkpt>
      <trkpt lat="44.91694" lon="3.34146">
        <ele>1093.6</ele>
        <time>2022-06-08T09:07:27Z</time>
      </trkpt>
      <trkpt lat="44.91696" lon="3.3414">
        <ele>1094.6</ele>
        <time>2022-06-08T09:07:51Z</time>
      </trkpt>
      <trkpt lat="44.91698" lon="3.34134">
        <ele>1095.3</ele>
        <time>2022-06-08T09:07:59Z</time>
      </trkpt>
      <trkpt lat="44.917" lon="3.34127">
        <ele>1097.9</ele>
        <time>2022-06-08T09:08:21Z</time>
      </trkpt>
      <trkpt lat="44.91701" lon="3.3412">
        <ele>1098.1</ele>
        <time>2022-06-08T09:08:26Z</time>
      </trkpt>
      <trkpt lat="44.91704" lon="3.34114">
        <ele>1099.4</ele>
        <time>2022-06-08T09:08:32Z</time>
      </trkpt>
      <trkpt lat="44.91705" lon="3.34108">
        <ele>1100.4</ele>
        <time>2022-06-08T09:08:40Z</time>
      </trkpt>
      <trkpt lat="44.91708" lon="3.34101">
        <ele>1100.1</ele>
        <time>2022-06-08T09:08:47Z</time>
      </trkpt>
      <trkpt lat="44.91707" lon="3.34095">
        <ele>1100.1</ele>
        <time>2022-06-08T09:08:51Z</time>
      </trkpt>
      <trkpt lat="44.91708" lon="3.34088">
        <ele>1099.8</ele>
        <time>2022-06-08T09:08:56Z</time>
      </trkpt>
      <trkpt lat="44.91711" lon="3.34082">
        <ele>1099</ele>
        <time>2022-06-08T09:09:01Z</time>
      </trkpt>
      <trkpt lat="44.91713" lon="3.34076">
        <ele>1098.7</ele>
        <time>2022-06-08T09:09:24Z</time>
      </trkpt>
      <trkpt lat="44.91716" lon="3.3407">
        <ele>1097.8</ele>
        <time>2022-06-08T09:09:34Z</time>
      </trkpt>
      <trkpt lat="44.91719" lon="3.34065">
        <ele>1094.7</ele>
        <time>2022-06-08T09:09:58Z</time>
      </trkpt>
      <trkpt lat="44.91723" lon="3.34059">
        <ele>1094.9</ele>
        <time>2022-06-08T09:10:03Z</time>
      </trkpt>
      <trkpt lat="44.91726" lon="3.34054">
        <ele>1095.2</ele>
        <time>2022-06-08T09:10:09Z</time>
      </trkpt>
      <trkpt lat="44.9173" lon="3.34049">
        <ele>1095.5</ele>
        <time>2022-06-08T09:10:15Z</time>
      </trkpt>
      <trkpt lat="44.91733" lon="3.34043">
        <ele>1096.8</ele>
        <time>2022-06-08T09:10:26Z</time>
      </trkpt>
      <trkpt lat="44.91737" lon="3.34039">
        <ele>1096.5</ele>
        <time>2022-06-08T09:10:31Z</time>
      </trkpt>
      <trkpt lat="44.9174" lon="3.34035">
        <ele>1095.8</ele>
        <time>2022-06-08T09:10:36Z</time>
      </trkpt>
      <trkpt lat="44.91744" lon="3.3403">
        <ele>1096.2</ele>
        <time>2022-06-08T09:10:42Z</time>
      </trkpt>
      <trkpt lat="44.91747" lon="3.34025">
        <ele>1096.6</ele>
        <time>2022-06-08T09:10:47Z</time>
      </trkpt>
      <trkpt lat="44.91751" lon="3.3402">
        <ele>1096.2</ele>
        <time>2022-06-08T09:10:52Z</time>
      </trkpt>
      <trkpt lat="44.91754" lon="3.34015">
        <ele>1095.7</ele>
        <time>2022-06-08T09:10:56Z</time>
      </trkpt>
      <trkpt lat="44.91758" lon="3.34011">
        <ele>1095.2</ele>
        <time>2022-06-08T09:11:00Z</time>
      </trkpt>
      <trkpt lat="44.91762" lon="3.34008">
        <ele>1094.8</ele>
        <time>2022-06-08T09:11:05Z</time>
      </trkpt>
      <trkpt lat="44.91767" lon="3.34006">
        <ele>1094.9</ele>
        <time>2022-06-08T09:11:10Z</time>
      </trkpt>
      <trkpt lat="44.91772" lon="3.34004">
        <ele>1094.8</ele>
        <time>2022-06-08T09:11:15Z</time>
      </trkpt>
      <trkpt lat="44.91777" lon="3.34">
        <ele>1094.8</ele>
        <time>2022-06-08T09:11:20Z</time>
      </trkpt>
      <trkpt lat="44.9178" lon="3.33996">
        <ele>1094.5</ele>
        <time>2022-06-08T09:11:25Z</time>
      </trkpt>
      <trkpt lat="44.91784" lon="3.33991">
        <ele>1094.3</ele>
        <time>2022-06-08T09:11:30Z</time>
      </trkpt>
      <trkpt lat="44.91789" lon="3.33988">
        <ele>1094.9</ele>
        <time>2022-06-08T09:11:36Z</time>
      </trkpt>
      <trkpt lat="44.91792" lon="3.33983">
        <ele>1096.6</ele>
        <time>2022-06-08T09:11:52Z</time>
      </trkpt>
      <trkpt lat="44.91796" lon="3.33982">
        <ele>1098.7</ele>
        <time>2022-06-08T09:12:05Z</time>
      </trkpt>
      <trkpt lat="44.91799" lon="3.33975">
        <ele>1098.9</ele>
        <time>2022-06-08T09:12:14Z</time>
      </trkpt>
      <trkpt lat="44.91802" lon="3.3397">
        <ele>1097.1</ele>
        <time>2022-06-08T09:12:26Z</time>
      </trkpt>
      <trkpt lat="44.91805" lon="3.33964">
        <ele>1097.2</ele>
        <time>2022-06-08T09:12:32Z</time>
      </trkpt>
      <trkpt lat="44.91808" lon="3.33958">
        <ele>1096.6</ele>
        <time>2022-06-08T09:12:40Z</time>
      </trkpt>
      <trkpt lat="44.91811" lon="3.33953">
        <ele>1096.8</ele>
        <time>2022-06-08T09:12:53Z</time>
      </trkpt>
      <trkpt lat="44.91813" lon="3.33946">
        <ele>1098.4</ele>
        <time>2022-06-08T09:12:58Z</time>
      </trkpt>
      <trkpt lat="44.91814" lon="3.33939">
        <ele>1100.3</ele>
        <time>2022-06-08T09:13:03Z</time>
      </trkpt>
      <trkpt lat="44.91815" lon="3.33933">
        <ele>1101.7</ele>
        <time>2022-06-08T09:13:08Z</time>
      </trkpt>
      <trkpt lat="44.91816" lon="3.33926">
        <ele>1103.7</ele>
        <time>2022-06-08T09:13:18Z</time>
      </trkpt>
      <trkpt lat="44.91817" lon="3.33918">
        <ele>1103.4</ele>
        <time>2022-06-08T09:13:25Z</time>
      </trkpt>
      <trkpt lat="44.9182" lon="3.33912">
        <ele>1103.1</ele>
        <time>2022-06-08T09:13:30Z</time>
      </trkpt>
      <trkpt lat="44.91822" lon="3.33906">
        <ele>1103</ele>
        <time>2022-06-08T09:13:35Z</time>
      </trkpt>
      <trkpt lat="44.91825" lon="3.339">
        <ele>1104.4</ele>
        <time>2022-06-08T09:13:40Z</time>
      </trkpt>
      <trkpt lat="44.91828" lon="3.33894">
        <ele>1105</ele>
        <time>2022-06-08T09:13:45Z</time>
      </trkpt>
      <trkpt lat="44.91831" lon="3.33889">
        <ele>1105.5</ele>
        <time>2022-06-08T09:13:50Z</time>
      </trkpt>
      <trkpt lat="44.91835" lon="3.33884">
        <ele>1105.7</ele>
        <time>2022-06-08T09:13:54Z</time>
      </trkpt>
      <trkpt lat="44.91839" lon="3.33881">
        <ele>1105.8</ele>
        <time>2022-06-08T09:13:58Z</time>
      </trkpt>
      <trkpt lat="44.91844" lon="3.33878">
        <ele>1105.8</ele>
        <time>2022-06-08T09:14:03Z</time>
      </trkpt>
      <trkpt lat="44.91849" lon="3.33876">
        <ele>1107.1</ele>
        <time>2022-06-08T09:14:09Z</time>
      </trkpt>
      <trkpt lat="44.91854" lon="3.33874">
        <ele>1108.4</ele>
        <time>2022-06-08T09:14:14Z</time>
      </trkpt>
      <trkpt lat="44.91859" lon="3.33872">
        <ele>1109.2</ele>
        <time>2022-06-08T09:14:20Z</time>
      </trkpt>
      <trkpt lat="44.91864" lon="3.3387">
        <ele>1109.8</ele>
        <time>2022-06-08T09:14:26Z</time>
      </trkpt>
      <trkpt lat="44.91869" lon="3.33869">
        <ele>1109</ele>
        <time>2022-06-08T09:14:31Z</time>
      </trkpt>
      <trkpt lat="44.91873" lon="3.33867">
        <ele>1108.1</ele>
        <time>2022-06-08T09:14:35Z</time>
      </trkpt>
      <trkpt lat="44.91878" lon="3.33867">
        <ele>1108.1</ele>
        <time>2022-06-08T09:14:41Z</time>
      </trkpt>
      <trkpt lat="44.91883" lon="3.33865">
        <ele>1109.2</ele>
        <time>2022-06-08T09:14:57Z</time>
      </trkpt>
      <trkpt lat="44.91887" lon="3.33862">
        <ele>1108.8</ele>
        <time>2022-06-08T09:15:01Z</time>
      </trkpt>
      <trkpt lat="44.91892" lon="3.33858">
        <ele>1108.6</ele>
        <time>2022-06-08T09:15:05Z</time>
      </trkpt>
      <trkpt lat="44.91896" lon="3.33855">
        <ele>1108.5</ele>
        <time>2022-06-08T09:15:08Z</time>
      </trkpt>
      <trkpt lat="44.91901" lon="3.33851">
        <ele>1108.5</ele>
        <time>2022-06-08T09:15:12Z</time>
      </trkpt>
      <trkpt lat="44.91906" lon="3.33849">
        <ele>1109.3</ele>
        <time>2022-06-08T09:15:16Z</time>
      </trkpt>
      <trkpt lat="44.9191" lon="3.33847">
        <ele>1109.1</ele>
        <time>2022-06-08T09:15:20Z</time>
      </trkpt>
      <trkpt lat="44.91915" lon="3.33846">
        <ele>1110.2</ele>
        <time>2022-06-08T09:15:32Z</time>
      </trkpt>
      <trkpt lat="44.9192" lon="3.33845">
        <ele>1110.6</ele>
        <time>2022-06-08T09:15:37Z</time>
      </trkpt>
      <trkpt lat="44.91925" lon="3.33846">
        <ele>1115.7</ele>
        <time>2022-06-08T09:15:54Z</time>
      </trkpt>
      <trkpt lat="44.9193" lon="3.33843">
        <ele>1117.6</ele>
        <time>2022-06-08T09:15:59Z</time>
      </trkpt>
      <trkpt lat="44.91934" lon="3.33839">
        <ele>1116.5</ele>
        <time>2022-06-08T09:16:06Z</time>
      </trkpt>
      <trkpt lat="44.91938" lon="3.33836">
        <ele>1116.2</ele>
        <time>2022-06-08T09:16:11Z</time>
      </trkpt>
      <trkpt lat="44.91943" lon="3.33832">
        <ele>1114.7</ele>
        <time>2022-06-08T09:16:15Z</time>
      </trkpt>
      <trkpt lat="44.91948" lon="3.33827">
        <ele>1112.8</ele>
        <time>2022-06-08T09:16:19Z</time>
      </trkpt>
      <trkpt lat="44.91951" lon="3.33823">
        <ele>1110.3</ele>
        <time>2022-06-08T09:16:24Z</time>
      </trkpt>
      <trkpt lat="44.91956" lon="3.33821">
        <ele>1108.6</ele>
        <time>2022-06-08T09:16:31Z</time>
      </trkpt>
      <trkpt lat="44.91961" lon="3.33818">
        <ele>1106.7</ele>
        <time>2022-06-08T09:16:35Z</time>
      </trkpt>
      <trkpt lat="44.91966" lon="3.33814">
        <ele>1104.8</ele>
        <time>2022-06-08T09:16:39Z</time>
      </trkpt>
      <trkpt lat="44.91969" lon="3.33809">
        <ele>1103.9</ele>
        <time>2022-06-08T09:16:43Z</time>
      </trkpt>
      <trkpt lat="44.91972" lon="3.33804">
        <ele>1103.7</ele>
        <time>2022-06-08T09:16:47Z</time>
      </trkpt>
      <trkpt lat="44.91976" lon="3.33799">
        <ele>1103.8</ele>
        <time>2022-06-08T09:16:51Z</time>
      </trkpt>
      <trkpt lat="44.91981" lon="3.33795">
        <ele>1104.2</ele>
        <time>2022-06-08T09:16:55Z</time>
      </trkpt>
      <trkpt lat="44.91986" lon="3.33791">
        <ele>1104.3</ele>
        <time>2022-06-08T09:16:59Z</time>
      </trkpt>
      <trkpt lat="44.91991" lon="3.33789">
        <ele>1104.4</ele>
        <time>2022-06-08T09:17:03Z</time>
      </trkpt>
      <trkpt lat="44.91996" lon="3.33786">
        <ele>1103.9</ele>
        <time>2022-06-08T09:17:07Z</time>
      </trkpt>
      <trkpt lat="44.92001" lon="3.33784">
        <ele>1103.2</ele>
        <time>2022-06-08T09:17:11Z</time>
      </trkpt>
      <trkpt lat="44.92006" lon="3.33784">
        <ele>1102.6</ele>
        <time>2022-06-08T09:17:15Z</time>
      </trkpt>
      <trkpt lat="44.92011" lon="3.33783">
        <ele>1100</ele>
        <time>2022-06-08T09:17:25Z</time>
      </trkpt>
      <trkpt lat="44.92017" lon="3.33783">
        <ele>1098.6</ele>
        <time>2022-06-08T09:17:29Z</time>
      </trkpt>
      <trkpt lat="44.92023" lon="3.33783">
        <ele>1098.1</ele>
        <time>2022-06-08T09:17:33Z</time>
      </trkpt>
      <trkpt lat="44.92028" lon="3.33783">
        <ele>1097.9</ele>
        <time>2022-06-08T09:17:37Z</time>
      </trkpt>
      <trkpt lat="44.92033" lon="3.33781">
        <ele>1097.9</ele>
        <time>2022-06-08T09:17:41Z</time>
      </trkpt>
      <trkpt lat="44.92038" lon="3.33781">
        <ele>1096.6</ele>
        <time>2022-06-08T09:17:50Z</time>
      </trkpt>
      <trkpt lat="44.92043" lon="3.33781">
        <ele>1097.4</ele>
        <time>2022-06-08T09:17:55Z</time>
      </trkpt>
      <trkpt lat="44.92049" lon="3.33781">
        <ele>1098</ele>
        <time>2022-06-08T09:18:00Z</time>
      </trkpt>
      <trkpt lat="44.92054" lon="3.3378">
        <ele>1098.2</ele>
        <time>2022-06-08T09:18:03Z</time>
      </trkpt>
      <trkpt lat="44.92058" lon="3.3378">
        <ele>1097.7</ele>
        <time>2022-06-08T09:18:07Z</time>
      </trkpt>
      <trkpt lat="44.92063" lon="3.3378">
        <ele>1096.9</ele>
        <time>2022-06-08T09:18:12Z</time>
      </trkpt>
      <trkpt lat="44.92068" lon="3.3378">
        <ele>1096.4</ele>
        <time>2022-06-08T09:18:17Z</time>
      </trkpt>
      <trkpt lat="44.92073" lon="3.33781">
        <ele>1095.9</ele>
        <time>2022-06-08T09:18:22Z</time>
      </trkpt>
      <trkpt lat="44.92078" lon="3.33781">
        <ele>1095.3</ele>
        <time>2022-06-08T09:18:33Z</time>
      </trkpt>
      <trkpt lat="44.92083" lon="3.33782">
        <ele>1094.4</ele>
        <time>2022-06-08T09:18:37Z</time>
      </trkpt>
      <trkpt lat="44.92088" lon="3.33782">
        <ele>1094.1</ele>
        <time>2022-06-08T09:18:42Z</time>
      </trkpt>
      <trkpt lat="44.92093" lon="3.3378">
        <ele>1094.2</ele>
        <time>2022-06-08T09:18:47Z</time>
      </trkpt>
      <trkpt lat="44.92098" lon="3.33779">
        <ele>1094.1</ele>
        <time>2022-06-08T09:18:51Z</time>
      </trkpt>
      <trkpt lat="44.92103" lon="3.33776">
        <ele>1094</ele>
        <time>2022-06-08T09:18:56Z</time>
      </trkpt>
      <trkpt lat="44.92108" lon="3.33774">
        <ele>1094.2</ele>
        <time>2022-06-08T09:19:00Z</time>
      </trkpt>
      <trkpt lat="44.92112" lon="3.33772">
        <ele>1094.5</ele>
        <time>2022-06-08T09:19:04Z</time>
      </trkpt>
      <trkpt lat="44.92118" lon="3.3377">
        <ele>1094.5</ele>
        <time>2022-06-08T09:19:10Z</time>
      </trkpt>
      <trkpt lat="44.92123" lon="3.33766">
        <ele>1094.5</ele>
        <time>2022-06-08T09:19:15Z</time>
      </trkpt>
      <trkpt lat="44.92127" lon="3.33764">
        <ele>1094.5</ele>
        <time>2022-06-08T09:19:19Z</time>
      </trkpt>
      <trkpt lat="44.92132" lon="3.33762">
        <ele>1094.4</ele>
        <time>2022-06-08T09:19:23Z</time>
      </trkpt>
      <trkpt lat="44.92136" lon="3.33759">
        <ele>1094.1</ele>
        <time>2022-06-08T09:19:27Z</time>
      </trkpt>
      <trkpt lat="44.92141" lon="3.33755">
        <ele>1093.4</ele>
        <time>2022-06-08T09:19:31Z</time>
      </trkpt>
      <trkpt lat="44.92145" lon="3.33752">
        <ele>1093</ele>
        <time>2022-06-08T09:19:38Z</time>
      </trkpt>
      <trkpt lat="44.92149" lon="3.33749">
        <ele>1092.5</ele>
        <time>2022-06-08T09:19:44Z</time>
      </trkpt>
      <trkpt lat="44.92151" lon="3.33743">
        <ele>1092.1</ele>
        <time>2022-06-08T09:19:48Z</time>
      </trkpt>
      <trkpt lat="44.92154" lon="3.33738">
        <ele>1091.9</ele>
        <time>2022-06-08T09:19:52Z</time>
      </trkpt>
      <trkpt lat="44.92158" lon="3.33733">
        <ele>1090.6</ele>
        <time>2022-06-08T09:19:56Z</time>
      </trkpt>
      <trkpt lat="44.92162" lon="3.33728">
        <ele>1089</ele>
        <time>2022-06-08T09:20:00Z</time>
      </trkpt>
      <trkpt lat="44.92165" lon="3.33723">
        <ele>1087.4</ele>
        <time>2022-06-08T09:20:03Z</time>
      </trkpt>
      <trkpt lat="44.92169" lon="3.33719">
        <ele>1086.8</ele>
        <time>2022-06-08T09:20:07Z</time>
      </trkpt>
      <trkpt lat="44.92174" lon="3.33716">
        <ele>1085.7</ele>
        <time>2022-06-08T09:20:12Z</time>
      </trkpt>
      <trkpt lat="44.92178" lon="3.33713">
        <ele>1085.4</ele>
        <time>2022-06-08T09:20:17Z</time>
      </trkpt>
      <trkpt lat="44.92183" lon="3.33711">
        <ele>1084.9</ele>
        <time>2022-06-08T09:20:23Z</time>
      </trkpt>
      <trkpt lat="44.92188" lon="3.33709">
        <ele>1084.7</ele>
        <time>2022-06-08T09:20:28Z</time>
      </trkpt>
      <trkpt lat="44.92193" lon="3.33708">
        <ele>1084.5</ele>
        <time>2022-06-08T09:20:33Z</time>
      </trkpt>
      <trkpt lat="44.92198" lon="3.33708">
        <ele>1084.6</ele>
        <time>2022-06-08T09:20:38Z</time>
      </trkpt>
      <trkpt lat="44.92202" lon="3.33707">
        <ele>1084.6</ele>
        <time>2022-06-08T09:20:44Z</time>
      </trkpt>
      <trkpt lat="44.92207" lon="3.33705">
        <ele>1084.8</ele>
        <time>2022-06-08T09:20:49Z</time>
      </trkpt>
      <trkpt lat="44.92212" lon="3.33706">
        <ele>1085.5</ele>
        <time>2022-06-08T09:20:55Z</time>
      </trkpt>
      <trkpt lat="44.92217" lon="3.33707">
        <ele>1085.9</ele>
        <time>2022-06-08T09:20:59Z</time>
      </trkpt>
      <trkpt lat="44.92221" lon="3.3371">
        <ele>1086.2</ele>
        <time>2022-06-08T09:21:03Z</time>
      </trkpt>
      <trkpt lat="44.92226" lon="3.33714">
        <ele>1086.4</ele>
        <time>2022-06-08T09:21:08Z</time>
      </trkpt>
      <trkpt lat="44.9223" lon="3.33719">
        <ele>1086.4</ele>
        <time>2022-06-08T09:21:13Z</time>
      </trkpt>
      <trkpt lat="44.92233" lon="3.33724">
        <ele>1086.5</ele>
        <time>2022-06-08T09:21:17Z</time>
      </trkpt>
      <trkpt lat="44.92236" lon="3.33729">
        <ele>1087.7</ele>
        <time>2022-06-08T09:21:28Z</time>
      </trkpt>
      <trkpt lat="44.92241" lon="3.33734">
        <ele>1088.7</ele>
        <time>2022-06-08T09:21:33Z</time>
      </trkpt>
      <trkpt lat="44.92245" lon="3.33737">
        <ele>1089.6</ele>
        <time>2022-06-08T09:21:38Z</time>
      </trkpt>
      <trkpt lat="44.92248" lon="3.33744">
        <ele>1090.6</ele>
        <time>2022-06-08T09:21:43Z</time>
      </trkpt>
      <trkpt lat="44.92251" lon="3.33749">
        <ele>1091</ele>
        <time>2022-06-08T09:21:47Z</time>
      </trkpt>
      <trkpt lat="44.92253" lon="3.33755">
        <ele>1092</ele>
        <time>2022-06-08T09:21:51Z</time>
      </trkpt>
      <trkpt lat="44.92255" lon="3.33761">
        <ele>1092.4</ele>
        <time>2022-06-08T09:21:55Z</time>
      </trkpt>
      <trkpt lat="44.92258" lon="3.33768">
        <ele>1093.6</ele>
        <time>2022-06-08T09:22:00Z</time>
      </trkpt>
      <trkpt lat="44.92259" lon="3.33774">
        <ele>1094.2</ele>
        <time>2022-06-08T09:22:05Z</time>
      </trkpt>
      <trkpt lat="44.9226" lon="3.3378">
        <ele>1094.3</ele>
        <time>2022-06-08T09:22:10Z</time>
      </trkpt>
      <trkpt lat="44.92263" lon="3.33787">
        <ele>1094.1</ele>
        <time>2022-06-08T09:22:16Z</time>
      </trkpt>
      <trkpt lat="44.92266" lon="3.33792">
        <ele>1094.3</ele>
        <time>2022-06-08T09:22:22Z</time>
      </trkpt>
      <trkpt lat="44.92269" lon="3.33798">
        <ele>1095.4</ele>
        <time>2022-06-08T09:22:28Z</time>
      </trkpt>
      <trkpt lat="44.92271" lon="3.33804">
        <ele>1096.3</ele>
        <time>2022-06-08T09:22:33Z</time>
      </trkpt>
      <trkpt lat="44.92273" lon="3.33811">
        <ele>1097.2</ele>
        <time>2022-06-08T09:22:39Z</time>
      </trkpt>
      <trkpt lat="44.92274" lon="3.33818">
        <ele>1097.8</ele>
        <time>2022-06-08T09:22:46Z</time>
      </trkpt>
      <trkpt lat="44.92276" lon="3.33825">
        <ele>1098.7</ele>
        <time>2022-06-08T09:22:52Z</time>
      </trkpt>
      <trkpt lat="44.92278" lon="3.33832">
        <ele>1099.1</ele>
        <time>2022-06-08T09:22:58Z</time>
      </trkpt>
      <trkpt lat="44.9228" lon="3.33838">
        <ele>1098.7</ele>
        <time>2022-06-08T09:23:03Z</time>
      </trkpt>
      <trkpt lat="44.92283" lon="3.33843">
        <ele>1097.5</ele>
        <time>2022-06-08T09:23:08Z</time>
      </trkpt>
      <trkpt lat="44.92286" lon="3.33848">
        <ele>1096.3</ele>
        <time>2022-06-08T09:23:13Z</time>
      </trkpt>
      <trkpt lat="44.92289" lon="3.33853">
        <ele>1096.2</ele>
        <time>2022-06-08T09:23:18Z</time>
      </trkpt>
      <trkpt lat="44.92291" lon="3.33858">
        <ele>1096.5</ele>
        <time>2022-06-08T09:23:23Z</time>
      </trkpt>
      <trkpt lat="44.92294" lon="3.33865">
        <ele>1096.8</ele>
        <time>2022-06-08T09:23:29Z</time>
      </trkpt>
      <trkpt lat="44.92297" lon="3.3387">
        <ele>1097.3</ele>
        <time>2022-06-08T09:23:34Z</time>
      </trkpt>
      <trkpt lat="44.92299" lon="3.33876">
        <ele>1097.6</ele>
        <time>2022-06-08T09:23:39Z</time>
      </trkpt>
      <trkpt lat="44.923" lon="3.33882">
        <ele>1097.4</ele>
        <time>2022-06-08T09:23:44Z</time>
      </trkpt>
      <trkpt lat="44.92302" lon="3.33889">
        <ele>1098.9</ele>
        <time>2022-06-08T09:23:50Z</time>
      </trkpt>
      <trkpt lat="44.92305" lon="3.33894">
        <ele>1100.1</ele>
        <time>2022-06-08T09:23:54Z</time>
      </trkpt>
      <trkpt lat="44.92308" lon="3.33899">
        <ele>1104.8</ele>
        <time>2022-06-08T09:24:03Z</time>
      </trkpt>
      <trkpt lat="44.92312" lon="3.33903">
        <ele>1106.5</ele>
        <time>2022-06-08T09:24:09Z</time>
      </trkpt>
      <trkpt lat="44.92316" lon="3.33904">
        <ele>1106.6</ele>
        <time>2022-06-08T09:24:26Z</time>
      </trkpt>
      <trkpt lat="44.9232" lon="3.33909">
        <ele>1105.9</ele>
        <time>2022-06-08T09:24:32Z</time>
      </trkpt>
      <trkpt lat="44.92324" lon="3.33914">
        <ele>1106.4</ele>
        <time>2022-06-08T09:24:37Z</time>
      </trkpt>
      <trkpt lat="44.92327" lon="3.33919">
        <ele>1107.4</ele>
        <time>2022-06-08T09:24:42Z</time>
      </trkpt>
      <trkpt lat="44.92331" lon="3.33924">
        <ele>1107.9</ele>
        <time>2022-06-08T09:24:47Z</time>
      </trkpt>
      <trkpt lat="44.92335" lon="3.33928">
        <ele>1109</ele>
        <time>2022-06-08T09:24:54Z</time>
      </trkpt>
      <trkpt lat="44.92338" lon="3.33934">
        <ele>1108.9</ele>
        <time>2022-06-08T09:25:01Z</time>
      </trkpt>
      <trkpt lat="44.92342" lon="3.33939">
        <ele>1107.2</ele>
        <time>2022-06-08T09:25:06Z</time>
      </trkpt>
      <trkpt lat="44.92345" lon="3.33944">
        <ele>1106.3</ele>
        <time>2022-06-08T09:25:11Z</time>
      </trkpt>
      <trkpt lat="44.92348" lon="3.33949">
        <ele>1106.1</ele>
        <time>2022-06-08T09:25:18Z</time>
      </trkpt>
      <trkpt lat="44.92351" lon="3.33954">
        <ele>1104.9</ele>
        <time>2022-06-08T09:25:36Z</time>
      </trkpt>
      <trkpt lat="44.92355" lon="3.33959">
        <ele>1106</ele>
        <time>2022-06-08T09:25:41Z</time>
      </trkpt>
      <trkpt lat="44.92358" lon="3.33965">
        <ele>1106.4</ele>
        <time>2022-06-08T09:25:46Z</time>
      </trkpt>
      <trkpt lat="44.9236" lon="3.33971">
        <ele>1107.4</ele>
        <time>2022-06-08T09:25:51Z</time>
      </trkpt>
      <trkpt lat="44.92363" lon="3.33976">
        <ele>1108</ele>
        <time>2022-06-08T09:25:56Z</time>
      </trkpt>
      <trkpt lat="44.92367" lon="3.33981">
        <ele>1108.1</ele>
        <time>2022-06-08T09:26:02Z</time>
      </trkpt>
      <trkpt lat="44.9237" lon="3.33987">
        <ele>1109</ele>
        <time>2022-06-08T09:26:07Z</time>
      </trkpt>
      <trkpt lat="44.92373" lon="3.33993">
        <ele>1108.8</ele>
        <time>2022-06-08T09:26:12Z</time>
      </trkpt>
      <trkpt lat="44.92376" lon="3.33999">
        <ele>1109.7</ele>
        <time>2022-06-08T09:26:18Z</time>
      </trkpt>
      <trkpt lat="44.92379" lon="3.34004">
        <ele>1110.2</ele>
        <time>2022-06-08T09:26:24Z</time>
      </trkpt>
      <trkpt lat="44.92382" lon="3.3401">
        <ele>1110.4</ele>
        <time>2022-06-08T09:26:30Z</time>
      </trkpt>
      <trkpt lat="44.92385" lon="3.34016">
        <ele>1111.4</ele>
        <time>2022-06-08T09:26:36Z</time>
      </trkpt>
      <trkpt lat="44.92388" lon="3.34022">
        <ele>1112</ele>
        <time>2022-06-08T09:26:42Z</time>
      </trkpt>
      <trkpt lat="44.92391" lon="3.34028">
        <ele>1112.3</ele>
        <time>2022-06-08T09:26:48Z</time>
      </trkpt>
      <trkpt lat="44.92392" lon="3.34034">
        <ele>1113.2</ele>
        <time>2022-06-08T09:27:06Z</time>
      </trkpt>
      <trkpt lat="44.92393" lon="3.34041">
        <ele>1113.2</ele>
        <time>2022-06-08T09:27:16Z</time>
      </trkpt>
      <trkpt lat="44.92395" lon="3.34047">
        <ele>1114.3</ele>
        <time>2022-06-08T09:27:25Z</time>
      </trkpt>
      <trkpt lat="44.92398" lon="3.34053">
        <ele>1115.1</ele>
        <time>2022-06-08T09:27:37Z</time>
      </trkpt>
      <trkpt lat="44.92401" lon="3.34059">
        <ele>1115.3</ele>
        <time>2022-06-08T09:27:44Z</time>
      </trkpt>
      <trkpt lat="44.92402" lon="3.34066">
        <ele>1116.9</ele>
        <time>2022-06-08T09:27:57Z</time>
      </trkpt>
      <trkpt lat="44.92403" lon="3.34073">
        <ele>1117.9</ele>
        <time>2022-06-08T09:28:02Z</time>
      </trkpt>
      <trkpt lat="44.92404" lon="3.34079">
        <ele>1118</ele>
        <time>2022-06-08T09:28:07Z</time>
      </trkpt>
      <trkpt lat="44.92405" lon="3.34085">
        <ele>1118</ele>
        <time>2022-06-08T09:28:15Z</time>
      </trkpt>
      <trkpt lat="44.92404" lon="3.34092">
        <ele>1117.1</ele>
        <time>2022-06-08T09:28:27Z</time>
      </trkpt>
      <trkpt lat="44.92402" lon="3.34098">
        <ele>1117.3</ele>
        <time>2022-06-08T09:28:32Z</time>
      </trkpt>
      <trkpt lat="44.92399" lon="3.34103">
        <ele>1117</ele>
        <time>2022-06-08T09:28:36Z</time>
      </trkpt>
      <trkpt lat="44.92397" lon="3.34109">
        <ele>1116.8</ele>
        <time>2022-06-08T09:28:40Z</time>
      </trkpt>
      <trkpt lat="44.92394" lon="3.34114">
        <ele>1118.4</ele>
        <time>2022-06-08T09:28:56Z</time>
      </trkpt>
      <trkpt lat="44.92391" lon="3.34118">
        <ele>1118.5</ele>
        <time>2022-06-08T09:29:00Z</time>
      </trkpt>
      <trkpt lat="44.92387" lon="3.34123">
        <ele>1117.9</ele>
        <time>2022-06-08T09:29:04Z</time>
      </trkpt>
      <trkpt lat="44.92383" lon="3.34128">
        <ele>1117.5</ele>
        <time>2022-06-08T09:29:08Z</time>
      </trkpt>
      <trkpt lat="44.9238" lon="3.34132">
        <ele>1117.2</ele>
        <time>2022-06-08T09:29:12Z</time>
      </trkpt>
      <trkpt lat="44.92377" lon="3.34138">
        <ele>1117.5</ele>
        <time>2022-06-08T09:29:17Z</time>
      </trkpt>
      <trkpt lat="44.92376" lon="3.34146">
        <ele>1117.6</ele>
        <time>2022-06-08T09:29:22Z</time>
      </trkpt>
      <trkpt lat="44.92378" lon="3.34154">
        <ele>1117.7</ele>
        <time>2022-06-08T09:29:27Z</time>
      </trkpt>
      <trkpt lat="44.92378" lon="3.34161">
        <ele>1118.2</ele>
        <time>2022-06-08T09:29:32Z</time>
      </trkpt>
      <trkpt lat="44.9238" lon="3.34167">
        <ele>1119.6</ele>
        <time>2022-06-08T09:29:36Z</time>
      </trkpt>
      <trkpt lat="44.92381" lon="3.34174">
        <ele>1119.4</ele>
        <time>2022-06-08T09:29:40Z</time>
      </trkpt>
      <trkpt lat="44.92382" lon="3.34181">
        <ele>1119.4</ele>
        <time>2022-06-08T09:29:44Z</time>
      </trkpt>
      <trkpt lat="44.92383" lon="3.34188">
        <ele>1119.2</ele>
        <time>2022-06-08T09:29:48Z</time>
      </trkpt>
      <trkpt lat="44.92383" lon="3.34195">
        <ele>1118.8</ele>
        <time>2022-06-08T09:29:52Z</time>
      </trkpt>
      <trkpt lat="44.92384" lon="3.34201">
        <ele>1119.5</ele>
        <time>2022-06-08T09:29:56Z</time>
      </trkpt>
      <trkpt lat="44.92384" lon="3.34208">
        <ele>1119.4</ele>
        <time>2022-06-08T09:30:00Z</time>
      </trkpt>
      <trkpt lat="44.92384" lon="3.34215">
        <ele>1118.5</ele>
        <time>2022-06-08T09:30:04Z</time>
      </trkpt>
      <trkpt lat="44.92384" lon="3.34221">
        <ele>1117.5</ele>
        <time>2022-06-08T09:30:08Z</time>
      </trkpt>
      <trkpt lat="44.92385" lon="3.34228">
        <ele>1116.6</ele>
        <time>2022-06-08T09:30:12Z</time>
      </trkpt>
      <trkpt lat="44.92386" lon="3.34234">
        <ele>1115.8</ele>
        <time>2022-06-08T09:30:16Z</time>
      </trkpt>
      <trkpt lat="44.92389" lon="3.3424">
        <ele>1115.5</ele>
        <time>2022-06-08T09:30:20Z</time>
      </trkpt>
      <trkpt lat="44.92392" lon="3.34246">
        <ele>1115.1</ele>
        <time>2022-06-08T09:30:24Z</time>
      </trkpt>
      <trkpt lat="44.92394" lon="3.34253">
        <ele>1114.3</ele>
        <time>2022-06-08T09:30:28Z</time>
      </trkpt>
      <trkpt lat="44.92397" lon="3.34258">
        <ele>1113.6</ele>
        <time>2022-06-08T09:30:32Z</time>
      </trkpt>
      <trkpt lat="44.92399" lon="3.34264">
        <ele>1113.4</ele>
        <time>2022-06-08T09:30:36Z</time>
      </trkpt>
      <trkpt lat="44.92402" lon="3.3427">
        <ele>1112.8</ele>
        <time>2022-06-08T09:30:40Z</time>
      </trkpt>
      <trkpt lat="44.92404" lon="3.34277">
        <ele>1113.1</ele>
        <time>2022-06-08T09:30:44Z</time>
      </trkpt>
      <trkpt lat="44.92406" lon="3.34283">
        <ele>1114.6</ele>
        <time>2022-06-08T09:30:54Z</time>
      </trkpt>
      <trkpt lat="44.9241" lon="3.34288">
        <ele>1115.3</ele>
        <time>2022-06-08T09:30:59Z</time>
      </trkpt>
      <trkpt lat="44.92414" lon="3.34292">
        <ele>1115.6</ele>
        <time>2022-06-08T09:31:03Z</time>
      </trkpt>
      <trkpt lat="44.92418" lon="3.34296">
        <ele>1115.5</ele>
        <time>2022-06-08T09:31:07Z</time>
      </trkpt>
      <trkpt lat="44.92422" lon="3.343">
        <ele>1115.4</ele>
        <time>2022-06-08T09:31:11Z</time>
      </trkpt>
      <trkpt lat="44.92426" lon="3.34304">
        <ele>1115.3</ele>
        <time>2022-06-08T09:31:15Z</time>
      </trkpt>
      <trkpt lat="44.9243" lon="3.3431">
        <ele>1116.1</ele>
        <time>2022-06-08T09:31:20Z</time>
      </trkpt>
      <trkpt lat="44.92434" lon="3.34314">
        <ele>1117</ele>
        <time>2022-06-08T09:31:24Z</time>
      </trkpt>
      <trkpt lat="44.92438" lon="3.34318">
        <ele>1118</ele>
        <time>2022-06-08T09:31:29Z</time>
      </trkpt>
      <trkpt lat="44.92443" lon="3.34322">
        <ele>1119.8</ele>
        <time>2022-06-08T09:31:34Z</time>
      </trkpt>
      <trkpt lat="44.92446" lon="3.34326">
        <ele>1121.1</ele>
        <time>2022-06-08T09:31:38Z</time>
      </trkpt>
      <trkpt lat="44.9245" lon="3.34331">
        <ele>1121.8</ele>
        <time>2022-06-08T09:31:42Z</time>
      </trkpt>
      <trkpt lat="44.92454" lon="3.34334">
        <ele>1121.6</ele>
        <time>2022-06-08T09:31:52Z</time>
      </trkpt>
      <trkpt lat="44.92455" lon="3.3434">
        <ele>1121</ele>
        <time>2022-06-08T09:32:05Z</time>
      </trkpt>
      <trkpt lat="44.92459" lon="3.34344">
        <ele>1119.8</ele>
        <time>2022-06-08T09:32:10Z</time>
      </trkpt>
      <trkpt lat="44.92461" lon="3.34351">
        <ele>1119.5</ele>
        <time>2022-06-08T09:32:25Z</time>
      </trkpt>
      <trkpt lat="44.92463" lon="3.34357">
        <ele>1119.3</ele>
        <time>2022-06-08T09:32:29Z</time>
      </trkpt>
      <trkpt lat="44.92464" lon="3.34363">
        <ele>1119.7</ele>
        <time>2022-06-08T09:32:33Z</time>
      </trkpt>
      <trkpt lat="44.92465" lon="3.34371">
        <ele>1119.9</ele>
        <time>2022-06-08T09:32:38Z</time>
      </trkpt>
      <trkpt lat="44.92467" lon="3.34378">
        <ele>1120.4</ele>
        <time>2022-06-08T09:32:43Z</time>
      </trkpt>
      <trkpt lat="44.92468" lon="3.34386">
        <ele>1120.3</ele>
        <time>2022-06-08T09:32:48Z</time>
      </trkpt>
      <trkpt lat="44.92468" lon="3.34393">
        <ele>1119.8</ele>
        <time>2022-06-08T09:32:52Z</time>
      </trkpt>
      <trkpt lat="44.92469" lon="3.34399">
        <ele>1120</ele>
        <time>2022-06-08T09:32:56Z</time>
      </trkpt>
      <trkpt lat="44.92469" lon="3.34406">
        <ele>1119.8</ele>
        <time>2022-06-08T09:33:01Z</time>
      </trkpt>
      <trkpt lat="44.92468" lon="3.34413">
        <ele>1120.6</ele>
        <time>2022-06-08T09:33:16Z</time>
      </trkpt>
      <trkpt lat="44.92467" lon="3.3442">
        <ele>1120</ele>
        <time>2022-06-08T09:33:21Z</time>
      </trkpt>
      <trkpt lat="44.92465" lon="3.34428">
        <ele>1119.4</ele>
        <time>2022-06-08T09:33:25Z</time>
      </trkpt>
      <trkpt lat="44.92465" lon="3.34435">
        <ele>1119.3</ele>
        <time>2022-06-08T09:33:30Z</time>
      </trkpt>
      <trkpt lat="44.92467" lon="3.34441">
        <ele>1118</ele>
        <time>2022-06-08T09:33:34Z</time>
      </trkpt>
      <trkpt lat="44.92468" lon="3.34448">
        <ele>1116.9</ele>
        <time>2022-06-08T09:33:39Z</time>
      </trkpt>
      <trkpt lat="44.92472" lon="3.34454">
        <ele>1117.6</ele>
        <time>2022-06-08T09:33:44Z</time>
      </trkpt>
      <trkpt lat="44.92474" lon="3.3446">
        <ele>1119.5</ele>
        <time>2022-06-08T09:33:49Z</time>
      </trkpt>
      <trkpt lat="44.92478" lon="3.34465">
        <ele>1121.1</ele>
        <time>2022-06-08T09:33:53Z</time>
      </trkpt>
      <trkpt lat="44.92481" lon="3.3447">
        <ele>1122.5</ele>
        <time>2022-06-08T09:34:02Z</time>
      </trkpt>
      <trkpt lat="44.92485" lon="3.34474">
        <ele>1124.4</ele>
        <time>2022-06-08T09:34:25Z</time>
      </trkpt>
      <trkpt lat="44.92489" lon="3.34479">
        <ele>1124.1</ele>
        <time>2022-06-08T09:34:30Z</time>
      </trkpt>
      <trkpt lat="44.92492" lon="3.34483">
        <ele>1124.2</ele>
        <time>2022-06-08T09:34:34Z</time>
      </trkpt>
      <trkpt lat="44.92497" lon="3.34487">
        <ele>1124.2</ele>
        <time>2022-06-08T09:34:38Z</time>
      </trkpt>
      <trkpt lat="44.92502" lon="3.3449">
        <ele>1123.7</ele>
        <time>2022-06-08T09:34:42Z</time>
      </trkpt>
      <trkpt lat="44.92507" lon="3.34493">
        <ele>1123.2</ele>
        <time>2022-06-08T09:34:47Z</time>
      </trkpt>
      <trkpt lat="44.92511" lon="3.34494">
        <ele>1122</ele>
        <time>2022-06-08T09:34:51Z</time>
      </trkpt>
      <trkpt lat="44.92516" lon="3.34496">
        <ele>1121.5</ele>
        <time>2022-06-08T09:34:55Z</time>
      </trkpt>
      <trkpt lat="44.92521" lon="3.34499">
        <ele>1121.3</ele>
        <time>2022-06-08T09:35:00Z</time>
      </trkpt>
      <trkpt lat="44.92525" lon="3.34501">
        <ele>1121.1</ele>
        <time>2022-06-08T09:35:04Z</time>
      </trkpt>
      <trkpt lat="44.9253" lon="3.34504">
        <ele>1120.9</ele>
        <time>2022-06-08T09:35:09Z</time>
      </trkpt>
      <trkpt lat="44.92535" lon="3.34507">
        <ele>1121.2</ele>
        <time>2022-06-08T09:35:13Z</time>
      </trkpt>
      <trkpt lat="44.92539" lon="3.3451">
        <ele>1122.4</ele>
        <time>2022-06-08T09:35:18Z</time>
      </trkpt>
      <trkpt lat="44.92544" lon="3.34512">
        <ele>1124.6</ele>
        <time>2022-06-08T09:35:23Z</time>
      </trkpt>
      <trkpt lat="44.92549" lon="3.34513">
        <ele>1127</ele>
        <time>2022-06-08T09:35:30Z</time>
      </trkpt>
      <trkpt lat="44.92553" lon="3.34516">
        <ele>1128.1</ele>
        <time>2022-06-08T09:35:36Z</time>
      </trkpt>
      <trkpt lat="44.92558" lon="3.34518">
        <ele>1127.7</ele>
        <time>2022-06-08T09:35:40Z</time>
      </trkpt>
      <trkpt lat="44.92563" lon="3.34519">
        <ele>1127.5</ele>
        <time>2022-06-08T09:35:44Z</time>
      </trkpt>
      <trkpt lat="44.92568" lon="3.34522">
        <ele>1127.3</ele>
        <time>2022-06-08T09:35:49Z</time>
      </trkpt>
      <trkpt lat="44.92572" lon="3.34524">
        <ele>1126.5</ele>
        <time>2022-06-08T09:35:55Z</time>
      </trkpt>
      <trkpt lat="44.92577" lon="3.34525">
        <ele>1126.5</ele>
        <time>2022-06-08T09:36:02Z</time>
      </trkpt>
      <trkpt lat="44.9258" lon="3.34529">
        <ele>1125.7</ele>
        <time>2022-06-08T09:36:12Z</time>
      </trkpt>
      <trkpt lat="44.92585" lon="3.3453">
        <ele>1126.7</ele>
        <time>2022-06-08T09:36:17Z</time>
      </trkpt>
      <trkpt lat="44.9259" lon="3.34527">
        <ele>1127.9</ele>
        <time>2022-06-08T09:36:25Z</time>
      </trkpt>
      <trkpt lat="44.92595" lon="3.34528">
        <ele>1128.3</ele>
        <time>2022-06-08T09:36:31Z</time>
      </trkpt>
      <trkpt lat="44.926" lon="3.3453">
        <ele>1128.9</ele>
        <time>2022-06-08T09:36:38Z</time>
      </trkpt>
      <trkpt lat="44.92604" lon="3.34532">
        <ele>1129</ele>
        <time>2022-06-08T09:36:44Z</time>
      </trkpt>
      <trkpt lat="44.92609" lon="3.34533">
        <ele>1129.2</ele>
        <time>2022-06-08T09:36:54Z</time>
      </trkpt>
      <trkpt lat="44.92614" lon="3.34535">
        <ele>1129.8</ele>
        <time>2022-06-08T09:36:59Z</time>
      </trkpt>
      <trkpt lat="44.92619" lon="3.34536">
        <ele>1129.8</ele>
        <time>2022-06-08T09:37:04Z</time>
      </trkpt>
      <trkpt lat="44.92624" lon="3.34536">
        <ele>1130.3</ele>
        <time>2022-06-08T09:37:10Z</time>
      </trkpt>
      <trkpt lat="44.9263" lon="3.34536">
        <ele>1130.8</ele>
        <time>2022-06-08T09:37:15Z</time>
      </trkpt>
      <trkpt lat="44.92634" lon="3.34537">
        <ele>1131.8</ele>
        <time>2022-06-08T09:37:20Z</time>
      </trkpt>
      <trkpt lat="44.92639" lon="3.3454">
        <ele>1132</ele>
        <time>2022-06-08T09:37:26Z</time>
      </trkpt>
      <trkpt lat="44.92644" lon="3.34541">
        <ele>1132.2</ele>
        <time>2022-06-08T09:37:31Z</time>
      </trkpt>
      <trkpt lat="44.92649" lon="3.34541">
        <ele>1131.7</ele>
        <time>2022-06-08T09:37:38Z</time>
      </trkpt>
      <trkpt lat="44.92654" lon="3.34543">
        <ele>1129.1</ele>
        <time>2022-06-08T09:38:03Z</time>
      </trkpt>
      <trkpt lat="44.92659" lon="3.34544">
        <ele>1128.8</ele>
        <time>2022-06-08T09:38:13Z</time>
      </trkpt>
      <trkpt lat="44.92663" lon="3.34544">
        <ele>1128.5</ele>
        <time>2022-06-08T09:38:19Z</time>
      </trkpt>
      <trkpt lat="44.92668" lon="3.34544">
        <ele>1128.6</ele>
        <time>2022-06-08T09:38:24Z</time>
      </trkpt>
      <trkpt lat="44.92673" lon="3.34545">
        <ele>1129</ele>
        <time>2022-06-08T09:38:32Z</time>
      </trkpt>
      <trkpt lat="44.92678" lon="3.34546">
        <ele>1129.4</ele>
        <time>2022-06-08T09:38:37Z</time>
      </trkpt>
      <trkpt lat="44.92683" lon="3.34547">
        <ele>1129.5</ele>
        <time>2022-06-08T09:38:42Z</time>
      </trkpt>
      <trkpt lat="44.92687" lon="3.34548">
        <ele>1130.1</ele>
        <time>2022-06-08T09:38:48Z</time>
      </trkpt>
      <trkpt lat="44.92692" lon="3.34551">
        <ele>1129.6</ele>
        <time>2022-06-08T09:38:53Z</time>
      </trkpt>
      <trkpt lat="44.92697" lon="3.34553">
        <ele>1130</ele>
        <time>2022-06-08T09:38:57Z</time>
      </trkpt>
      <trkpt lat="44.92701" lon="3.34554">
        <ele>1129.5</ele>
        <time>2022-06-08T09:39:01Z</time>
      </trkpt>
      <trkpt lat="44.92706" lon="3.34554">
        <ele>1130.2</ele>
        <time>2022-06-08T09:39:06Z</time>
      </trkpt>
      <trkpt lat="44.92711" lon="3.34553">
        <ele>1130.1</ele>
        <time>2022-06-08T09:39:10Z</time>
      </trkpt>
      <trkpt lat="44.92717" lon="3.34555">
        <ele>1129.5</ele>
        <time>2022-06-08T09:39:15Z</time>
      </trkpt>
      <trkpt lat="44.92722" lon="3.34557">
        <ele>1130.3</ele>
        <time>2022-06-08T09:39:20Z</time>
      </trkpt>
      <trkpt lat="44.92726" lon="3.34557">
        <ele>1132.3</ele>
        <time>2022-06-08T09:39:25Z</time>
      </trkpt>
      <trkpt lat="44.92732" lon="3.3456">
        <ele>1132.3</ele>
        <time>2022-06-08T09:39:30Z</time>
      </trkpt>
      <trkpt lat="44.92736" lon="3.34563">
        <ele>1132.5</ele>
        <time>2022-06-08T09:39:34Z</time>
      </trkpt>
      <trkpt lat="44.9274" lon="3.34569">
        <ele>1131.8</ele>
        <time>2022-06-08T09:39:39Z</time>
      </trkpt>
      <trkpt lat="44.92744" lon="3.34573">
        <ele>1130.6</ele>
        <time>2022-06-08T09:39:43Z</time>
      </trkpt>
      <trkpt lat="44.92748" lon="3.34577">
        <ele>1130.2</ele>
        <time>2022-06-08T09:39:47Z</time>
      </trkpt>
      <trkpt lat="44.92752" lon="3.3458">
        <ele>1131.3</ele>
        <time>2022-06-08T09:39:52Z</time>
      </trkpt>
      <trkpt lat="44.92756" lon="3.34586">
        <ele>1130.9</ele>
        <time>2022-06-08T09:39:58Z</time>
      </trkpt>
      <trkpt lat="44.92759" lon="3.34591">
        <ele>1129.7</ele>
        <time>2022-06-08T09:40:04Z</time>
      </trkpt>
      <trkpt lat="44.92762" lon="3.34596">
        <ele>1129.5</ele>
        <time>2022-06-08T09:40:09Z</time>
      </trkpt>
      <trkpt lat="44.92765" lon="3.34601">
        <ele>1128.9</ele>
        <time>2022-06-08T09:40:14Z</time>
      </trkpt>
      <trkpt lat="44.92766" lon="3.34608">
        <ele>1131.4</ele>
        <time>2022-06-08T09:40:21Z</time>
      </trkpt>
      <trkpt lat="44.92768" lon="3.34614">
        <ele>1134.6</ele>
        <time>2022-06-08T09:40:28Z</time>
      </trkpt>
      <trkpt lat="44.9277" lon="3.3462">
        <ele>1136.9</ele>
        <time>2022-06-08T09:40:39Z</time>
      </trkpt>
      <trkpt lat="44.92771" lon="3.34627">
        <ele>1139.8</ele>
        <time>2022-06-08T09:40:54Z</time>
      </trkpt>
      <trkpt lat="44.92771" lon="3.34634">
        <ele>1140.9</ele>
        <time>2022-06-08T09:40:59Z</time>
      </trkpt>
      <trkpt lat="44.92772" lon="3.3464">
        <ele>1141.3</ele>
        <time>2022-06-08T09:41:05Z</time>
      </trkpt>
      <trkpt lat="44.92773" lon="3.34646">
        <ele>1140.7</ele>
        <time>2022-06-08T09:41:15Z</time>
      </trkpt>
      <trkpt lat="44.92775" lon="3.34652">
        <ele>1139.7</ele>
        <time>2022-06-08T09:41:24Z</time>
      </trkpt>
      <trkpt lat="44.92777" lon="3.34659">
        <ele>1138.7</ele>
        <time>2022-06-08T09:41:30Z</time>
      </trkpt>
      <trkpt lat="44.92777" lon="3.34667">
        <ele>1136.7</ele>
        <time>2022-06-08T09:41:36Z</time>
      </trkpt>
      <trkpt lat="44.92778" lon="3.34673">
        <ele>1136.1</ele>
        <time>2022-06-08T09:41:40Z</time>
      </trkpt>
      <trkpt lat="44.92777" lon="3.3468">
        <ele>1135.2</ele>
        <time>2022-06-08T09:41:45Z</time>
      </trkpt>
      <trkpt lat="44.92772" lon="3.34683">
        <ele>1137.8</ele>
        <time>2022-06-08T09:42:25Z</time>
      </trkpt>
      <trkpt lat="44.92768" lon="3.34686">
        <ele>1140.7</ele>
        <time>2022-06-08T09:42:52Z</time>
      </trkpt>
      <trkpt lat="44.92763" lon="3.3469">
        <ele>1140.4</ele>
        <time>2022-06-08T09:42:58Z</time>
      </trkpt>
      <trkpt lat="44.92759" lon="3.34692">
        <ele>1139.6</ele>
        <time>2022-06-08T09:43:03Z</time>
      </trkpt>
      <trkpt lat="44.92754" lon="3.34693">
        <ele>1139.6</ele>
        <time>2022-06-08T09:43:09Z</time>
      </trkpt>
      <trkpt lat="44.92749" lon="3.34692">
        <ele>1140.3</ele>
        <time>2022-06-08T09:43:18Z</time>
      </trkpt>
      <trkpt lat="44.92745" lon="3.34695">
        <ele>1142.2</ele>
        <time>2022-06-08T09:43:23Z</time>
      </trkpt>
      <trkpt lat="44.9274" lon="3.34697">
        <ele>1143</ele>
        <time>2022-06-08T09:43:27Z</time>
      </trkpt>
      <trkpt lat="44.92735" lon="3.34697">
        <ele>1138.9</ele>
        <time>2022-06-08T09:43:32Z</time>
      </trkpt>
      <trkpt lat="44.9273" lon="3.34698">
        <ele>1134.2</ele>
        <time>2022-06-08T09:43:37Z</time>
      </trkpt>
      <trkpt lat="44.92725" lon="3.34699">
        <ele>1136.1</ele>
        <time>2022-06-08T09:43:42Z</time>
      </trkpt>
      <trkpt lat="44.9272" lon="3.34699">
        <ele>1138.1</ele>
        <time>2022-06-08T09:43:47Z</time>
      </trkpt>
      <trkpt lat="44.92715" lon="3.347">
        <ele>1140.4</ele>
        <time>2022-06-08T09:43:53Z</time>
      </trkpt>
      <trkpt lat="44.9271" lon="3.34702">
        <ele>1140.3</ele>
        <time>2022-06-08T09:43:59Z</time>
      </trkpt>
      <trkpt lat="44.92705" lon="3.34706">
        <ele>1140.4</ele>
        <time>2022-06-08T09:44:06Z</time>
      </trkpt>
      <trkpt lat="44.92701" lon="3.34707">
        <ele>1141.2</ele>
        <time>2022-06-08T09:44:10Z</time>
      </trkpt>
      <trkpt lat="44.92696" lon="3.34709">
        <ele>1141.9</ele>
        <time>2022-06-08T09:44:15Z</time>
      </trkpt>
      <trkpt lat="44.92692" lon="3.34712">
        <ele>1141.2</ele>
        <time>2022-06-08T09:44:22Z</time>
      </trkpt>
      <trkpt lat="44.92687" lon="3.34714">
        <ele>1141.1</ele>
        <time>2022-06-08T09:44:26Z</time>
      </trkpt>
      <trkpt lat="44.92682" lon="3.34717">
        <ele>1140.5</ele>
        <time>2022-06-08T09:44:30Z</time>
      </trkpt>
      <trkpt lat="44.92677" lon="3.34719">
        <ele>1139.8</ele>
        <time>2022-06-08T09:44:34Z</time>
      </trkpt>
      <trkpt lat="44.92672" lon="3.3472">
        <ele>1138.8</ele>
        <time>2022-06-08T09:44:39Z</time>
      </trkpt>
      <trkpt lat="44.92668" lon="3.3472">
        <ele>1139.8</ele>
        <time>2022-06-08T09:44:54Z</time>
      </trkpt>
      <trkpt lat="44.92663" lon="3.34722">
        <ele>1140.5</ele>
        <time>2022-06-08T09:45:13Z</time>
      </trkpt>
      <trkpt lat="44.92658" lon="3.34725">
        <ele>1140.4</ele>
        <time>2022-06-08T09:45:18Z</time>
      </trkpt>
      <trkpt lat="44.92653" lon="3.34726">
        <ele>1139.3</ele>
        <time>2022-06-08T09:45:22Z</time>
      </trkpt>
      <trkpt lat="44.92648" lon="3.34729">
        <ele>1138.8</ele>
        <time>2022-06-08T09:45:26Z</time>
      </trkpt>
      <trkpt lat="44.92643" lon="3.3473">
        <ele>1138.7</ele>
        <time>2022-06-08T09:45:30Z</time>
      </trkpt>
      <trkpt lat="44.92638" lon="3.34733">
        <ele>1139</ele>
        <time>2022-06-08T09:45:34Z</time>
      </trkpt>
      <trkpt lat="44.92633" lon="3.34735">
        <ele>1139.2</ele>
        <time>2022-06-08T09:45:38Z</time>
      </trkpt>
      <trkpt lat="44.92629" lon="3.34738">
        <ele>1139.7</ele>
        <time>2022-06-08T09:45:42Z</time>
      </trkpt>
      <trkpt lat="44.92625" lon="3.34742">
        <ele>1139.9</ele>
        <time>2022-06-08T09:45:46Z</time>
      </trkpt>
      <trkpt lat="44.92621" lon="3.34747">
        <ele>1139.5</ele>
        <time>2022-06-08T09:45:50Z</time>
      </trkpt>
      <trkpt lat="44.92617" lon="3.34751">
        <ele>1138.8</ele>
        <time>2022-06-08T09:45:54Z</time>
      </trkpt>
      <trkpt lat="44.92614" lon="3.34756">
        <ele>1138.7</ele>
        <time>2022-06-08T09:45:58Z</time>
      </trkpt>
      <trkpt lat="44.9261" lon="3.34761">
        <ele>1140.3</ele>
        <time>2022-06-08T09:46:02Z</time>
      </trkpt>
      <trkpt lat="44.92606" lon="3.34765">
        <ele>1140.2</ele>
        <time>2022-06-08T09:46:06Z</time>
      </trkpt>
      <trkpt lat="44.92602" lon="3.3477">
        <ele>1139.8</ele>
        <time>2022-06-08T09:46:10Z</time>
      </trkpt>
      <trkpt lat="44.92599" lon="3.34776">
        <ele>1139.8</ele>
        <time>2022-06-08T09:46:14Z</time>
      </trkpt>
      <trkpt lat="44.92595" lon="3.34781">
        <ele>1140.2</ele>
        <time>2022-06-08T09:46:18Z</time>
      </trkpt>
      <trkpt lat="44.92592" lon="3.34787">
        <ele>1140.3</ele>
        <time>2022-06-08T09:46:22Z</time>
      </trkpt>
      <trkpt lat="44.92588" lon="3.34793">
        <ele>1140.8</ele>
        <time>2022-06-08T09:46:26Z</time>
      </trkpt>
      <trkpt lat="44.92586" lon="3.34798">
        <ele>1140.9</ele>
        <time>2022-06-08T09:46:30Z</time>
      </trkpt>
      <trkpt lat="44.92582" lon="3.34803">
        <ele>1139.7</ele>
        <time>2022-06-08T09:46:35Z</time>
      </trkpt>
      <trkpt lat="44.92577" lon="3.34806">
        <ele>1138.4</ele>
        <time>2022-06-08T09:46:40Z</time>
      </trkpt>
      <trkpt lat="44.92574" lon="3.34811">
        <ele>1138</ele>
        <time>2022-06-08T09:46:44Z</time>
      </trkpt>
      <trkpt lat="44.9257" lon="3.34816">
        <ele>1137.6</ele>
        <time>2022-06-08T09:46:48Z</time>
      </trkpt>
      <trkpt lat="44.92566" lon="3.34819">
        <ele>1138</ele>
        <time>2022-06-08T09:46:53Z</time>
      </trkpt>
      <trkpt lat="44.92562" lon="3.34823">
        <ele>1137.9</ele>
        <time>2022-06-08T09:46:58Z</time>
      </trkpt>
      <trkpt lat="44.92556" lon="3.34825">
        <ele>1138.2</ele>
        <time>2022-06-08T09:47:03Z</time>
      </trkpt>
      <trkpt lat="44.92552" lon="3.34829">
        <ele>1134.9</ele>
        <time>2022-06-08T09:47:08Z</time>
      </trkpt>
      <trkpt lat="44.92547" lon="3.34832">
        <ele>1135.6</ele>
        <time>2022-06-08T09:47:12Z</time>
      </trkpt>
      <trkpt lat="44.92542" lon="3.34837">
        <ele>1136.8</ele>
        <time>2022-06-08T09:47:16Z</time>
      </trkpt>
      <trkpt lat="44.92538" lon="3.3484">
        <ele>1138.7</ele>
        <time>2022-06-08T09:47:20Z</time>
      </trkpt>
      <trkpt lat="44.92534" lon="3.34844">
        <ele>1140.1</ele>
        <time>2022-06-08T09:47:24Z</time>
      </trkpt>
      <trkpt lat="44.92529" lon="3.34847">
        <ele>1140.9</ele>
        <time>2022-06-08T09:47:28Z</time>
      </trkpt>
      <trkpt lat="44.92525" lon="3.34851">
        <ele>1142.4</ele>
        <time>2022-06-08T09:47:33Z</time>
      </trkpt>
      <trkpt lat="44.92522" lon="3.34855">
        <ele>1133.8</ele>
        <time>2022-06-08T09:47:37Z</time>
      </trkpt>
      <trkpt lat="44.92518" lon="3.34859">
        <ele>1137.7</ele>
        <time>2022-06-08T09:47:42Z</time>
      </trkpt>
      <trkpt lat="44.92513" lon="3.34863">
        <ele>1138.2</ele>
        <time>2022-06-08T09:47:46Z</time>
      </trkpt>
      <trkpt lat="44.92509" lon="3.34866">
        <ele>1138.4</ele>
        <time>2022-06-08T09:47:49Z</time>
      </trkpt>
      <trkpt lat="44.92504" lon="3.3487">
        <ele>1138.6</ele>
        <time>2022-06-08T09:47:53Z</time>
      </trkpt>
      <trkpt lat="44.925" lon="3.34873">
        <ele>1139.3</ele>
        <time>2022-06-08T09:48:02Z</time>
      </trkpt>
      <trkpt lat="44.92497" lon="3.34877">
        <ele>1142</ele>
        <time>2022-06-08T09:48:09Z</time>
      </trkpt>
      <trkpt lat="44.92492" lon="3.3488">
        <ele>1141.3</ele>
        <time>2022-06-08T09:48:35Z</time>
      </trkpt>
      <trkpt lat="44.92488" lon="3.34883">
        <ele>1141.8</ele>
        <time>2022-06-08T09:48:46Z</time>
      </trkpt>
      <trkpt lat="44.92493" lon="3.34884">
        <ele>1144.4</ele>
        <time>2022-06-08T09:49:00Z</time>
      </trkpt>
      <trkpt lat="44.92498" lon="3.34883">
        <ele>1145.2</ele>
        <time>2022-06-08T09:49:05Z</time>
      </trkpt>
      <trkpt lat="44.92502" lon="3.34881">
        <ele>1144.5</ele>
        <time>2022-06-08T09:49:11Z</time>
      </trkpt>
      <trkpt lat="44.92508" lon="3.3488">
        <ele>1144.5</ele>
        <time>2022-06-08T09:49:17Z</time>
      </trkpt>
      <trkpt lat="44.92513" lon="3.3488">
        <ele>1143.6</ele>
        <time>2022-06-08T09:49:22Z</time>
      </trkpt>
      <trkpt lat="44.92518" lon="3.34879">
        <ele>1142.8</ele>
        <time>2022-06-08T09:49:27Z</time>
      </trkpt>
      <trkpt lat="44.92523" lon="3.34878">
        <ele>1141.8</ele>
        <time>2022-06-08T09:49:32Z</time>
      </trkpt>
      <trkpt lat="44.92527" lon="3.34877">
        <ele>1142.2</ele>
        <time>2022-06-08T09:49:37Z</time>
      </trkpt>
      <trkpt lat="44.92533" lon="3.34877">
        <ele>1142.6</ele>
        <time>2022-06-08T09:49:43Z</time>
      </trkpt>
      <trkpt lat="44.92537" lon="3.34879">
        <ele>1142.6</ele>
        <time>2022-06-08T09:49:54Z</time>
      </trkpt>
      <trkpt lat="44.92542" lon="3.34879">
        <ele>1142.5</ele>
        <time>2022-06-08T09:50:00Z</time>
      </trkpt>
      <trkpt lat="44.92547" lon="3.3488">
        <ele>1143.5</ele>
        <time>2022-06-08T09:50:05Z</time>
      </trkpt>
      <trkpt lat="44.92552" lon="3.34881">
        <ele>1145.4</ele>
        <time>2022-06-08T09:50:11Z</time>
      </trkpt>
      <trkpt lat="44.92557" lon="3.34881">
        <ele>1146.1</ele>
        <time>2022-06-08T09:50:17Z</time>
      </trkpt>
      <trkpt lat="44.92563" lon="3.34883">
        <ele>1146.6</ele>
        <time>2022-06-08T09:50:22Z</time>
      </trkpt>
      <trkpt lat="44.92567" lon="3.34883">
        <ele>1146.7</ele>
        <time>2022-06-08T09:50:27Z</time>
      </trkpt>
      <trkpt lat="44.92573" lon="3.34883">
        <ele>1146.8</ele>
        <time>2022-06-08T09:50:33Z</time>
      </trkpt>
      <trkpt lat="44.92577" lon="3.34884">
        <ele>1146</ele>
        <time>2022-06-08T09:50:38Z</time>
      </trkpt>
      <trkpt lat="44.92582" lon="3.34885">
        <ele>1146.1</ele>
        <time>2022-06-08T09:50:43Z</time>
      </trkpt>
      <trkpt lat="44.92587" lon="3.34886">
        <ele>1146.4</ele>
        <time>2022-06-08T09:50:49Z</time>
      </trkpt>
      <trkpt lat="44.92592" lon="3.34886">
        <ele>1147.8</ele>
        <time>2022-06-08T09:50:55Z</time>
      </trkpt>
      <trkpt lat="44.92597" lon="3.34888">
        <ele>1148.8</ele>
        <time>2022-06-08T09:51:00Z</time>
      </trkpt>
      <trkpt lat="44.92602" lon="3.34887">
        <ele>1149.1</ele>
        <time>2022-06-08T09:51:04Z</time>
      </trkpt>
      <trkpt lat="44.92607" lon="3.34886">
        <ele>1148.7</ele>
        <time>2022-06-08T09:51:09Z</time>
      </trkpt>
      <trkpt lat="44.92611" lon="3.34883">
        <ele>1148.1</ele>
        <time>2022-06-08T09:51:15Z</time>
      </trkpt>
      <trkpt lat="44.92616" lon="3.34884">
        <ele>1147.4</ele>
        <time>2022-06-08T09:51:22Z</time>
      </trkpt>
      <trkpt lat="44.92621" lon="3.34883">
        <ele>1147.4</ele>
        <time>2022-06-08T09:51:30Z</time>
      </trkpt>
      <trkpt lat="44.92625" lon="3.34881">
        <ele>1148.7</ele>
        <time>2022-06-08T09:51:56Z</time>
      </trkpt>
      <trkpt lat="44.92629" lon="3.34885">
        <ele>1149</ele>
        <time>2022-06-08T09:52:02Z</time>
      </trkpt>
      <trkpt lat="44.92633" lon="3.3489">
        <ele>1149.8</ele>
        <time>2022-06-08T09:52:08Z</time>
      </trkpt>
      <trkpt lat="44.92638" lon="3.34893">
        <ele>1151.4</ele>
        <time>2022-06-08T09:52:14Z</time>
      </trkpt>
      <trkpt lat="44.92642" lon="3.34896">
        <ele>1152.5</ele>
        <time>2022-06-08T09:52:28Z</time>
      </trkpt>
      <trkpt lat="44.92644" lon="3.34902">
        <ele>1154</ele>
        <time>2022-06-08T09:52:33Z</time>
      </trkpt>
      <trkpt lat="44.92646" lon="3.34909">
        <ele>1154.5</ele>
        <time>2022-06-08T09:52:38Z</time>
      </trkpt>
      <trkpt lat="44.92648" lon="3.34915">
        <ele>1155.6</ele>
        <time>2022-06-08T09:52:45Z</time>
      </trkpt>
      <trkpt lat="44.9265" lon="3.34921">
        <ele>1155.6</ele>
        <time>2022-06-08T09:52:51Z</time>
      </trkpt>
      <trkpt lat="44.92651" lon="3.34928">
        <ele>1155.1</ele>
        <time>2022-06-08T09:52:56Z</time>
      </trkpt>
      <trkpt lat="44.92654" lon="3.34934">
        <ele>1155.8</ele>
        <time>2022-06-08T09:53:02Z</time>
      </trkpt>
      <trkpt lat="44.92659" lon="3.34937">
        <ele>1157.1</ele>
        <time>2022-06-08T09:53:07Z</time>
      </trkpt>
      <trkpt lat="44.92663" lon="3.34942">
        <ele>1157.3</ele>
        <time>2022-06-08T09:53:12Z</time>
      </trkpt>
      <trkpt lat="44.92666" lon="3.34948">
        <ele>1158.3</ele>
        <time>2022-06-08T09:53:17Z</time>
      </trkpt>
      <trkpt lat="44.92669" lon="3.34953">
        <ele>1159.3</ele>
        <time>2022-06-08T09:53:22Z</time>
      </trkpt>
      <trkpt lat="44.92672" lon="3.34958">
        <ele>1159.9</ele>
        <time>2022-06-08T09:53:26Z</time>
      </trkpt>
      <trkpt lat="44.92676" lon="3.34962">
        <ele>1159.5</ele>
        <time>2022-06-08T09:53:31Z</time>
      </trkpt>
      <trkpt lat="44.9268" lon="3.34967">
        <ele>1160.6</ele>
        <time>2022-06-08T09:53:37Z</time>
      </trkpt>
      <trkpt lat="44.92684" lon="3.3497">
        <ele>1162.7</ele>
        <time>2022-06-08T09:53:43Z</time>
      </trkpt>
      <trkpt lat="44.92687" lon="3.34976">
        <ele>1162.7</ele>
        <time>2022-06-08T09:53:48Z</time>
      </trkpt>
      <trkpt lat="44.92689" lon="3.34982">
        <ele>1162.3</ele>
        <time>2022-06-08T09:53:51Z</time>
      </trkpt>
      <trkpt lat="44.92691" lon="3.34989">
        <ele>1161.9</ele>
        <time>2022-06-08T09:53:55Z</time>
      </trkpt>
      <trkpt lat="44.92692" lon="3.34996">
        <ele>1161.6</ele>
        <time>2022-06-08T09:53:59Z</time>
      </trkpt>
      <trkpt lat="44.92695" lon="3.35003">
        <ele>1160.3</ele>
        <time>2022-06-08T09:54:04Z</time>
      </trkpt>
      <trkpt lat="44.92697" lon="3.35009">
        <ele>1159.6</ele>
        <time>2022-06-08T09:54:09Z</time>
      </trkpt>
      <trkpt lat="44.927" lon="3.35015">
        <ele>1159</ele>
        <time>2022-06-08T09:54:14Z</time>
      </trkpt>
      <trkpt lat="44.92703" lon="3.3502">
        <ele>1157.5</ele>
        <time>2022-06-08T09:54:20Z</time>
      </trkpt>
      <trkpt lat="44.92707" lon="3.35025">
        <ele>1157.6</ele>
        <time>2022-06-08T09:54:25Z</time>
      </trkpt>
      <trkpt lat="44.92711" lon="3.35028">
        <ele>1157.6</ele>
        <time>2022-06-08T09:54:29Z</time>
      </trkpt>
      <trkpt lat="44.92715" lon="3.35032">
        <ele>1157.9</ele>
        <time>2022-06-08T09:54:33Z</time>
      </trkpt>
      <trkpt lat="44.92719" lon="3.35035">
        <ele>1157.5</ele>
        <time>2022-06-08T09:54:37Z</time>
      </trkpt>
      <trkpt lat="44.92723" lon="3.35039">
        <ele>1157</ele>
        <time>2022-06-08T09:54:41Z</time>
      </trkpt>
      <trkpt lat="44.92728" lon="3.35044">
        <ele>1155.3</ele>
        <time>2022-06-08T09:54:45Z</time>
      </trkpt>
      <trkpt lat="44.92732" lon="3.35049">
        <ele>1153.6</ele>
        <time>2022-06-08T09:54:49Z</time>
      </trkpt>
      <trkpt lat="44.92736" lon="3.35053">
        <ele>1152.3</ele>
        <time>2022-06-08T09:54:52Z</time>
      </trkpt>
      <trkpt lat="44.9274" lon="3.35056">
        <ele>1151.2</ele>
        <time>2022-06-08T09:54:55Z</time>
      </trkpt>
      <trkpt lat="44.92744" lon="3.3506">
        <ele>1150.9</ele>
        <time>2022-06-08T09:54:59Z</time>
      </trkpt>
      <trkpt lat="44.92748" lon="3.35065">
        <ele>1149.8</ele>
        <time>2022-06-08T09:55:03Z</time>
      </trkpt>
      <trkpt lat="44.92752" lon="3.3507">
        <ele>1150.8</ele>
        <time>2022-06-08T09:55:08Z</time>
      </trkpt>
      <trkpt lat="44.92756" lon="3.35075">
        <ele>1151.6</ele>
        <time>2022-06-08T09:55:13Z</time>
      </trkpt>
      <trkpt lat="44.9276" lon="3.35079">
        <ele>1151.6</ele>
        <time>2022-06-08T09:55:17Z</time>
      </trkpt>
      <trkpt lat="44.92765" lon="3.35083">
        <ele>1152.3</ele>
        <time>2022-06-08T09:55:23Z</time>
      </trkpt>
      <trkpt lat="44.92769" lon="3.35086">
        <ele>1156.2</ele>
        <time>2022-06-08T09:55:30Z</time>
      </trkpt>
      <trkpt lat="44.92774" lon="3.3509">
        <ele>1156.4</ele>
        <time>2022-06-08T09:55:35Z</time>
      </trkpt>
      <trkpt lat="44.92776" lon="3.35097">
        <ele>1155.8</ele>
        <time>2022-06-08T09:55:39Z</time>
      </trkpt>
      <trkpt lat="44.92779" lon="3.35101">
        <ele>1155.3</ele>
        <time>2022-06-08T09:55:43Z</time>
      </trkpt>
      <trkpt lat="44.92781" lon="3.35107">
        <ele>1155.7</ele>
        <time>2022-06-08T09:55:53Z</time>
      </trkpt>
      <trkpt lat="44.92785" lon="3.35113">
        <ele>1157.6</ele>
        <time>2022-06-08T09:56:02Z</time>
      </trkpt>
      <trkpt lat="44.92788" lon="3.35117">
        <ele>1160.2</ele>
        <time>2022-06-08T09:56:07Z</time>
      </trkpt>
      <trkpt lat="44.92793" lon="3.35122">
        <ele>1162.2</ele>
        <time>2022-06-08T09:56:20Z</time>
      </trkpt>
      <trkpt lat="44.92797" lon="3.35127">
        <ele>1161.2</ele>
        <time>2022-06-08T09:56:25Z</time>
      </trkpt>
      <trkpt lat="44.92801" lon="3.35131">
        <ele>1160.2</ele>
        <time>2022-06-08T09:56:30Z</time>
      </trkpt>
      <trkpt lat="44.92805" lon="3.35135">
        <ele>1159.6</ele>
        <time>2022-06-08T09:56:35Z</time>
      </trkpt>
      <trkpt lat="44.92809" lon="3.3514">
        <ele>1158.7</ele>
        <time>2022-06-08T09:56:40Z</time>
      </trkpt>
      <trkpt lat="44.92813" lon="3.35144">
        <ele>1157.8</ele>
        <time>2022-06-08T09:56:45Z</time>
      </trkpt>
      <trkpt lat="44.92817" lon="3.35148">
        <ele>1158.2</ele>
        <time>2022-06-08T09:56:51Z</time>
      </trkpt>
      <trkpt lat="44.92821" lon="3.35151">
        <ele>1157.6</ele>
        <time>2022-06-08T09:56:56Z</time>
      </trkpt>
      <trkpt lat="44.92825" lon="3.35155">
        <ele>1156.7</ele>
        <time>2022-06-08T09:57:01Z</time>
      </trkpt>
      <trkpt lat="44.92828" lon="3.3516">
        <ele>1156.3</ele>
        <time>2022-06-08T09:57:07Z</time>
      </trkpt>
      <trkpt lat="44.92832" lon="3.35165">
        <ele>1157.1</ele>
        <time>2022-06-08T09:57:17Z</time>
      </trkpt>
      <trkpt lat="44.92837" lon="3.3517">
        <ele>1157.3</ele>
        <time>2022-06-08T09:57:22Z</time>
      </trkpt>
      <trkpt lat="44.92841" lon="3.35175">
        <ele>1157.6</ele>
        <time>2022-06-08T09:57:27Z</time>
      </trkpt>
      <trkpt lat="44.92845" lon="3.3518">
        <ele>1158.3</ele>
        <time>2022-06-08T09:57:33Z</time>
      </trkpt>
      <trkpt lat="44.92848" lon="3.35185">
        <ele>1159.2</ele>
        <time>2022-06-08T09:57:39Z</time>
      </trkpt>
      <trkpt lat="44.92852" lon="3.35189">
        <ele>1158.9</ele>
        <time>2022-06-08T09:57:45Z</time>
      </trkpt>
      <trkpt lat="44.92856" lon="3.35193">
        <ele>1158.6</ele>
        <time>2022-06-08T09:57:50Z</time>
      </trkpt>
      <trkpt lat="44.9286" lon="3.35198">
        <ele>1158.2</ele>
        <time>2022-06-08T09:57:56Z</time>
      </trkpt>
      <trkpt lat="44.92864" lon="3.35203">
        <ele>1158.9</ele>
        <time>2022-06-08T09:58:02Z</time>
      </trkpt>
      <trkpt lat="44.92867" lon="3.35206">
        <ele>1159.6</ele>
        <time>2022-06-08T09:58:08Z</time>
      </trkpt>
      <trkpt lat="44.92871" lon="3.3521">
        <ele>1158.8</ele>
        <time>2022-06-08T09:58:26Z</time>
      </trkpt>
      <trkpt lat="44.92874" lon="3.35215">
        <ele>1157.8</ele>
        <time>2022-06-08T09:58:35Z</time>
      </trkpt>
      <trkpt lat="44.92878" lon="3.35219">
        <ele>1157.7</ele>
        <time>2022-06-08T09:59:01Z</time>
      </trkpt>
      <trkpt lat="44.92881" lon="3.35224">
        <ele>1157.3</ele>
        <time>2022-06-08T09:59:07Z</time>
      </trkpt>
      <trkpt lat="44.92885" lon="3.35228">
        <ele>1156.6</ele>
        <time>2022-06-08T09:59:13Z</time>
      </trkpt>
      <trkpt lat="44.92889" lon="3.35233">
        <ele>1156.5</ele>
        <time>2022-06-08T09:59:18Z</time>
      </trkpt>
      <trkpt lat="44.92893" lon="3.35238">
        <ele>1156.2</ele>
        <time>2022-06-08T09:59:22Z</time>
      </trkpt>
      <trkpt lat="44.92897" lon="3.35242">
        <ele>1155.4</ele>
        <time>2022-06-08T09:59:26Z</time>
      </trkpt>
      <trkpt lat="44.92901" lon="3.35247">
        <ele>1155.3</ele>
        <time>2022-06-08T09:59:31Z</time>
      </trkpt>
      <trkpt lat="44.92905" lon="3.35251">
        <ele>1155.4</ele>
        <time>2022-06-08T09:59:37Z</time>
      </trkpt>
      <trkpt lat="44.92907" lon="3.35257">
        <ele>1156.7</ele>
        <time>2022-06-08T09:59:44Z</time>
      </trkpt>
      <trkpt lat="44.92909" lon="3.35262">
        <ele>1156.6</ele>
        <time>2022-06-08T09:59:49Z</time>
      </trkpt>
      <trkpt lat="44.92912" lon="3.35269">
        <ele>1156</ele>
        <time>2022-06-08T09:59:54Z</time>
      </trkpt>
      <trkpt lat="44.92914" lon="3.35275">
        <ele>1154.2</ele>
        <time>2022-06-08T09:59:59Z</time>
      </trkpt>
      <trkpt lat="44.92913" lon="3.35281">
        <ele>1158.1</ele>
        <time>2022-06-08T10:00:13Z</time>
      </trkpt>
      <trkpt lat="44.92915" lon="3.35288">
        <ele>1158.1</ele>
        <time>2022-06-08T10:00:17Z</time>
      </trkpt>
      <trkpt lat="44.92916" lon="3.35295">
        <ele>1157.5</ele>
        <time>2022-06-08T10:00:21Z</time>
      </trkpt>
      <trkpt lat="44.92917" lon="3.35302">
        <ele>1157.5</ele>
        <time>2022-06-08T10:00:27Z</time>
      </trkpt>
      <trkpt lat="44.92917" lon="3.35309">
        <ele>1158.1</ele>
        <time>2022-06-08T10:00:32Z</time>
      </trkpt>
      <trkpt lat="44.92918" lon="3.35315">
        <ele>1158.7</ele>
        <time>2022-06-08T10:00:40Z</time>
      </trkpt>
      <trkpt lat="44.9292" lon="3.35322">
        <ele>1159.7</ele>
        <time>2022-06-08T10:00:47Z</time>
      </trkpt>
      <trkpt lat="44.92923" lon="3.35327">
        <ele>1160.8</ele>
        <time>2022-06-08T10:01:01Z</time>
      </trkpt>
      <trkpt lat="44.92923" lon="3.35334">
        <ele>1160.8</ele>
        <time>2022-06-08T10:01:10Z</time>
      </trkpt>
      <trkpt lat="44.92923" lon="3.35341">
        <ele>1161.1</ele>
        <time>2022-06-08T10:01:15Z</time>
      </trkpt>
      <trkpt lat="44.92924" lon="3.35347">
        <ele>1161.4</ele>
        <time>2022-06-08T10:01:21Z</time>
      </trkpt>
      <trkpt lat="44.92926" lon="3.35353">
        <ele>1161.6</ele>
        <time>2022-06-08T10:01:26Z</time>
      </trkpt>
      <trkpt lat="44.92925" lon="3.3536">
        <ele>1162.4</ele>
        <time>2022-06-08T10:01:32Z</time>
      </trkpt>
      <trkpt lat="44.92927" lon="3.35365">
        <ele>1161.9</ele>
        <time>2022-06-08T10:02:02Z</time>
      </trkpt>
      <trkpt lat="44.92929" lon="3.35372">
        <ele>1160.9</ele>
        <time>2022-06-08T10:02:09Z</time>
      </trkpt>
      <trkpt lat="44.92931" lon="3.35378">
        <ele>1158.6</ele>
        <time>2022-06-08T10:02:52Z</time>
      </trkpt>
      <trkpt lat="44.92931" lon="3.35385">
        <ele>1159.3</ele>
        <time>2022-06-08T10:03:34Z</time>
      </trkpt>
      <trkpt lat="44.92931" lon="3.35392">
        <ele>1159.5</ele>
        <time>2022-06-08T10:03:39Z</time>
      </trkpt>
      <trkpt lat="44.92932" lon="3.35399">
        <ele>1160.7</ele>
        <time>2022-06-08T10:03:45Z</time>
      </trkpt>
      <trkpt lat="44.92933" lon="3.35406">
        <ele>1162.1</ele>
        <time>2022-06-08T10:03:51Z</time>
      </trkpt>
      <trkpt lat="44.92935" lon="3.35412">
        <ele>1162.6</ele>
        <time>2022-06-08T10:03:57Z</time>
      </trkpt>
      <trkpt lat="44.92935" lon="3.35419">
        <ele>1162.6</ele>
        <time>2022-06-08T10:04:02Z</time>
      </trkpt>
      <trkpt lat="44.92937" lon="3.35425">
        <ele>1162</ele>
        <time>2022-06-08T10:04:08Z</time>
      </trkpt>
      <trkpt lat="44.92938" lon="3.35432">
        <ele>1163.2</ele>
        <time>2022-06-08T10:04:18Z</time>
      </trkpt>
      <trkpt lat="44.92941" lon="3.35438">
        <ele>1163.2</ele>
        <time>2022-06-08T10:04:24Z</time>
      </trkpt>
      <trkpt lat="44.92943" lon="3.35444">
        <ele>1163.8</ele>
        <time>2022-06-08T10:04:31Z</time>
      </trkpt>
      <trkpt lat="44.92941" lon="3.3545">
        <ele>1164.4</ele>
        <time>2022-06-08T10:04:37Z</time>
      </trkpt>
      <trkpt lat="44.92938" lon="3.35456">
        <ele>1166.3</ele>
        <time>2022-06-08T10:04:44Z</time>
      </trkpt>
      <trkpt lat="44.92936" lon="3.35463">
        <ele>1167</ele>
        <time>2022-06-08T10:04:50Z</time>
      </trkpt>
      <trkpt lat="44.92933" lon="3.35469">
        <ele>1167.1</ele>
        <time>2022-06-08T10:04:57Z</time>
      </trkpt>
      <trkpt lat="44.92932" lon="3.35475">
        <ele>1168.1</ele>
        <time>2022-06-08T10:05:03Z</time>
      </trkpt>
      <trkpt lat="44.92932" lon="3.35482">
        <ele>1168.7</ele>
        <time>2022-06-08T10:05:11Z</time>
      </trkpt>
      <trkpt lat="44.92933" lon="3.35488">
        <ele>1169.8</ele>
        <time>2022-06-08T10:05:20Z</time>
      </trkpt>
      <trkpt lat="44.92935" lon="3.35495">
        <ele>1171.1</ele>
        <time>2022-06-08T10:05:28Z</time>
      </trkpt>
      <trkpt lat="44.92937" lon="3.355">
        <ele>1171.5</ele>
        <time>2022-06-08T10:05:35Z</time>
      </trkpt>
      <trkpt lat="44.9294" lon="3.35506">
        <ele>1171</ele>
        <time>2022-06-08T10:05:42Z</time>
      </trkpt>
      <trkpt lat="44.92941" lon="3.35512">
        <ele>1172</ele>
        <time>2022-06-08T10:05:49Z</time>
      </trkpt>
      <trkpt lat="44.92943" lon="3.35518">
        <ele>1173</ele>
        <time>2022-06-08T10:05:55Z</time>
      </trkpt>
      <trkpt lat="44.92945" lon="3.35525">
        <ele>1173.5</ele>
        <time>2022-06-08T10:06:02Z</time>
      </trkpt>
      <trkpt lat="44.92946" lon="3.35532">
        <ele>1175.2</ele>
        <time>2022-06-08T10:06:09Z</time>
      </trkpt>
      <trkpt lat="44.92949" lon="3.35538">
        <ele>1176.5</ele>
        <time>2022-06-08T10:06:15Z</time>
      </trkpt>
      <trkpt lat="44.92952" lon="3.35544">
        <ele>1177.8</ele>
        <time>2022-06-08T10:06:21Z</time>
      </trkpt>
      <trkpt lat="44.92953" lon="3.35551">
        <ele>1179.2</ele>
        <time>2022-06-08T10:06:27Z</time>
      </trkpt>
      <trkpt lat="44.92955" lon="3.35557">
        <ele>1180.1</ele>
        <time>2022-06-08T10:06:33Z</time>
      </trkpt>
      <trkpt lat="44.92955" lon="3.35564">
        <ele>1181.7</ele>
        <time>2022-06-08T10:06:51Z</time>
      </trkpt>
      <trkpt lat="44.92955" lon="3.35571">
        <ele>1179.5</ele>
        <time>2022-06-08T10:06:57Z</time>
      </trkpt>
      <trkpt lat="44.92954" lon="3.35578">
        <ele>1178.7</ele>
        <time>2022-06-08T10:07:02Z</time>
      </trkpt>
      <trkpt lat="44.92954" lon="3.35585">
        <ele>1177.5</ele>
        <time>2022-06-08T10:07:07Z</time>
      </trkpt>
      <trkpt lat="44.92955" lon="3.35592">
        <ele>1178</ele>
        <time>2022-06-08T10:07:12Z</time>
      </trkpt>
      <trkpt lat="44.92956" lon="3.35599">
        <ele>1180.1</ele>
        <time>2022-06-08T10:07:18Z</time>
      </trkpt>
      <trkpt lat="44.92958" lon="3.35604">
        <ele>1181</ele>
        <time>2022-06-08T10:07:23Z</time>
      </trkpt>
      <trkpt lat="44.92962" lon="3.35609">
        <ele>1181.6</ele>
        <time>2022-06-08T10:07:28Z</time>
      </trkpt>
      <trkpt lat="44.92966" lon="3.35614">
        <ele>1182.2</ele>
        <time>2022-06-08T10:07:34Z</time>
      </trkpt>
      <trkpt lat="44.92971" lon="3.35617">
        <ele>1182.4</ele>
        <time>2022-06-08T10:07:39Z</time>
      </trkpt>
      <trkpt lat="44.92975" lon="3.35621">
        <ele>1182.3</ele>
        <time>2022-06-08T10:07:44Z</time>
      </trkpt>
      <trkpt lat="44.92979" lon="3.35624">
        <ele>1183.8</ele>
        <time>2022-06-08T10:07:50Z</time>
      </trkpt>
      <trkpt lat="44.92984" lon="3.35626">
        <ele>1184.7</ele>
        <time>2022-06-08T10:07:55Z</time>
      </trkpt>
      <trkpt lat="44.92988" lon="3.35629">
        <ele>1185.8</ele>
        <time>2022-06-08T10:08:01Z</time>
      </trkpt>
      <trkpt lat="44.92992" lon="3.3563">
        <ele>1187.7</ele>
        <time>2022-06-08T10:08:07Z</time>
      </trkpt>
      <trkpt lat="44.92997" lon="3.35633">
        <ele>1188.5</ele>
        <time>2022-06-08T10:08:15Z</time>
      </trkpt>
      <trkpt lat="44.93001" lon="3.35636">
        <ele>1189</ele>
        <time>2022-06-08T10:08:21Z</time>
      </trkpt>
      <trkpt lat="44.93005" lon="3.3564">
        <ele>1190.7</ele>
        <time>2022-06-08T10:08:27Z</time>
      </trkpt>
      <trkpt lat="44.9301" lon="3.35642">
        <ele>1191.9</ele>
        <time>2022-06-08T10:08:31Z</time>
      </trkpt>
      <trkpt lat="44.93015" lon="3.35644">
        <ele>1192.1</ele>
        <time>2022-06-08T10:08:37Z</time>
      </trkpt>
      <trkpt lat="44.9302" lon="3.35642">
        <ele>1192.1</ele>
        <time>2022-06-08T10:08:43Z</time>
      </trkpt>
      <trkpt lat="44.93025" lon="3.3564">
        <ele>1192.5</ele>
        <time>2022-06-08T10:08:47Z</time>
      </trkpt>
      <trkpt lat="44.93029" lon="3.35636">
        <ele>1192.2</ele>
        <time>2022-06-08T10:08:53Z</time>
      </trkpt>
      <trkpt lat="44.93032" lon="3.35631">
        <ele>1192.2</ele>
        <time>2022-06-08T10:08:57Z</time>
      </trkpt>
      <trkpt lat="44.93036" lon="3.35625">
        <ele>1191.5</ele>
        <time>2022-06-08T10:09:02Z</time>
      </trkpt>
      <trkpt lat="44.93038" lon="3.35619">
        <ele>1191.5</ele>
        <time>2022-06-08T10:09:07Z</time>
      </trkpt>
      <trkpt lat="44.9304" lon="3.35613">
        <ele>1191.6</ele>
        <time>2022-06-08T10:09:12Z</time>
      </trkpt>
      <trkpt lat="44.93044" lon="3.35608">
        <ele>1192.2</ele>
        <time>2022-06-08T10:09:17Z</time>
      </trkpt>
      <trkpt lat="44.93047" lon="3.35604">
        <ele>1192.2</ele>
        <time>2022-06-08T10:09:21Z</time>
      </trkpt>
      <trkpt lat="44.93051" lon="3.35599">
        <ele>1191.7</ele>
        <time>2022-06-08T10:09:25Z</time>
      </trkpt>
      <trkpt lat="44.93055" lon="3.35595">
        <ele>1190.9</ele>
        <time>2022-06-08T10:09:30Z</time>
      </trkpt>
      <trkpt lat="44.93058" lon="3.35589">
        <ele>1190.2</ele>
        <time>2022-06-08T10:09:35Z</time>
      </trkpt>
      <trkpt lat="44.9306" lon="3.35582">
        <ele>1190.2</ele>
        <time>2022-06-08T10:09:40Z</time>
      </trkpt>
      <trkpt lat="44.93063" lon="3.35577">
        <ele>1190.8</ele>
        <time>2022-06-08T10:09:45Z</time>
      </trkpt>
      <trkpt lat="44.93067" lon="3.35572">
        <ele>1191.6</ele>
        <time>2022-06-08T10:09:51Z</time>
      </trkpt>
      <trkpt lat="44.9307" lon="3.35568">
        <ele>1192.7</ele>
        <time>2022-06-08T10:09:57Z</time>
      </trkpt>
      <trkpt lat="44.93075" lon="3.35565">
        <ele>1193.2</ele>
        <time>2022-06-08T10:10:03Z</time>
      </trkpt>
      <trkpt lat="44.93078" lon="3.3556">
        <ele>1192.9</ele>
        <time>2022-06-08T10:10:09Z</time>
      </trkpt>
      <trkpt lat="44.93082" lon="3.35556">
        <ele>1191.9</ele>
        <time>2022-06-08T10:10:16Z</time>
      </trkpt>
      <trkpt lat="44.93087" lon="3.35553">
        <ele>1191.1</ele>
        <time>2022-06-08T10:10:22Z</time>
      </trkpt>
      <trkpt lat="44.93092" lon="3.35551">
        <ele>1190.5</ele>
        <time>2022-06-08T10:10:28Z</time>
      </trkpt>
      <trkpt lat="44.93096" lon="3.35548">
        <ele>1191.5</ele>
        <time>2022-06-08T10:10:34Z</time>
      </trkpt>
      <trkpt lat="44.93101" lon="3.35545">
        <ele>1192.5</ele>
        <time>2022-06-08T10:10:40Z</time>
      </trkpt>
      <trkpt lat="44.93106" lon="3.35545">
        <ele>1191.7</ele>
        <time>2022-06-08T10:10:45Z</time>
      </trkpt>
      <trkpt lat="44.93111" lon="3.35544">
        <ele>1191.7</ele>
        <time>2022-06-08T10:10:51Z</time>
      </trkpt>
      <trkpt lat="44.93116" lon="3.35543">
        <ele>1191.9</ele>
        <time>2022-06-08T10:10:58Z</time>
      </trkpt>
      <trkpt lat="44.93121" lon="3.35542">
        <ele>1191.3</ele>
        <time>2022-06-08T10:11:02Z</time>
      </trkpt>
      <trkpt lat="44.93126" lon="3.3554">
        <ele>1191.8</ele>
        <time>2022-06-08T10:11:06Z</time>
      </trkpt>
      <trkpt lat="44.9313" lon="3.35537">
        <ele>1194</ele>
        <time>2022-06-08T10:11:14Z</time>
      </trkpt>
      <trkpt lat="44.93135" lon="3.35535">
        <ele>1194.5</ele>
        <time>2022-06-08T10:11:19Z</time>
      </trkpt>
      <trkpt lat="44.93139" lon="3.35532">
        <ele>1194.1</ele>
        <time>2022-06-08T10:11:24Z</time>
      </trkpt>
      <trkpt lat="44.93144" lon="3.35529">
        <ele>1194.2</ele>
        <time>2022-06-08T10:11:30Z</time>
      </trkpt>
      <trkpt lat="44.93148" lon="3.35525">
        <ele>1194.8</ele>
        <time>2022-06-08T10:11:35Z</time>
      </trkpt>
      <trkpt lat="44.93153" lon="3.35522">
        <ele>1194.2</ele>
        <time>2022-06-08T10:11:40Z</time>
      </trkpt>
      <trkpt lat="44.93157" lon="3.35518">
        <ele>1194.7</ele>
        <time>2022-06-08T10:11:45Z</time>
      </trkpt>
      <trkpt lat="44.93162" lon="3.35515">
        <ele>1194.2</ele>
        <time>2022-06-08T10:11:51Z</time>
      </trkpt>
      <trkpt lat="44.93166" lon="3.35512">
        <ele>1193.9</ele>
        <time>2022-06-08T10:11:56Z</time>
      </trkpt>
      <trkpt lat="44.9317" lon="3.35508">
        <ele>1193.6</ele>
        <time>2022-06-08T10:12:01Z</time>
      </trkpt>
      <trkpt lat="44.93175" lon="3.35506">
        <ele>1192.9</ele>
        <time>2022-06-08T10:12:06Z</time>
      </trkpt>
      <trkpt lat="44.9318" lon="3.35504">
        <ele>1192.7</ele>
        <time>2022-06-08T10:12:11Z</time>
      </trkpt>
      <trkpt lat="44.93185" lon="3.35504">
        <ele>1192.4</ele>
        <time>2022-06-08T10:12:16Z</time>
      </trkpt>
      <trkpt lat="44.9319" lon="3.35503">
        <ele>1191.5</ele>
        <time>2022-06-08T10:12:21Z</time>
      </trkpt>
      <trkpt lat="44.93193" lon="3.35508">
        <ele>1191.7</ele>
        <time>2022-06-08T10:12:42Z</time>
      </trkpt>
      <trkpt lat="44.93197" lon="3.35504">
        <ele>1192</ele>
        <time>2022-06-08T10:13:23Z</time>
      </trkpt>
      <trkpt lat="44.93202" lon="3.35505">
        <ele>1192.9</ele>
        <time>2022-06-08T10:13:28Z</time>
      </trkpt>
      <trkpt lat="44.93207" lon="3.35505">
        <ele>1193.9</ele>
        <time>2022-06-08T10:13:33Z</time>
      </trkpt>
      <trkpt lat="44.93212" lon="3.35507">
        <ele>1194.5</ele>
        <time>2022-06-08T10:13:39Z</time>
      </trkpt>
      <trkpt lat="44.93217" lon="3.35508">
        <ele>1194.3</ele>
        <time>2022-06-08T10:13:45Z</time>
      </trkpt>
      <trkpt lat="44.93222" lon="3.35509">
        <ele>1194.7</ele>
        <time>2022-06-08T10:13:51Z</time>
      </trkpt>
      <trkpt lat="44.93227" lon="3.35511">
        <ele>1195.5</ele>
        <time>2022-06-08T10:13:57Z</time>
      </trkpt>
      <trkpt lat="44.93232" lon="3.35512">
        <ele>1196</ele>
        <time>2022-06-08T10:14:02Z</time>
      </trkpt>
      <trkpt lat="44.93237" lon="3.35513">
        <ele>1196</ele>
        <time>2022-06-08T10:14:08Z</time>
      </trkpt>
      <trkpt lat="44.93242" lon="3.35514">
        <ele>1195.6</ele>
        <time>2022-06-08T10:14:13Z</time>
      </trkpt>
      <trkpt lat="44.93247" lon="3.35516">
        <ele>1195.4</ele>
        <time>2022-06-08T10:14:18Z</time>
      </trkpt>
      <trkpt lat="44.93252" lon="3.35519">
        <ele>1195.5</ele>
        <time>2022-06-08T10:14:24Z</time>
      </trkpt>
      <trkpt lat="44.93256" lon="3.35522">
        <ele>1195.7</ele>
        <time>2022-06-08T10:14:30Z</time>
      </trkpt>
      <trkpt lat="44.9326" lon="3.35525">
        <ele>1197.2</ele>
        <time>2022-06-08T10:14:36Z</time>
      </trkpt>
      <trkpt lat="44.93265" lon="3.35526">
        <ele>1197.4</ele>
        <time>2022-06-08T10:14:40Z</time>
      </trkpt>
      <trkpt lat="44.9327" lon="3.35528">
        <ele>1198.1</ele>
        <time>2022-06-08T10:14:45Z</time>
      </trkpt>
      <trkpt lat="44.93275" lon="3.3553">
        <ele>1198.3</ele>
        <time>2022-06-08T10:14:50Z</time>
      </trkpt>
      <trkpt lat="44.93279" lon="3.35532">
        <ele>1199.1</ele>
        <time>2022-06-08T10:14:56Z</time>
      </trkpt>
      <trkpt lat="44.93284" lon="3.35533">
        <ele>1198.9</ele>
        <time>2022-06-08T10:15:02Z</time>
      </trkpt>
      <trkpt lat="44.93288" lon="3.35537">
        <ele>1199.1</ele>
        <time>2022-06-08T10:15:08Z</time>
      </trkpt>
      <trkpt lat="44.93292" lon="3.35541">
        <ele>1199.8</ele>
        <time>2022-06-08T10:15:14Z</time>
      </trkpt>
      <trkpt lat="44.93295" lon="3.35545">
        <ele>1201</ele>
        <time>2022-06-08T10:15:20Z</time>
      </trkpt>
      <trkpt lat="44.93299" lon="3.3555">
        <ele>1202.7</ele>
        <time>2022-06-08T10:15:28Z</time>
      </trkpt>
      <trkpt lat="44.93303" lon="3.35553">
        <ele>1203.4</ele>
        <time>2022-06-08T10:15:33Z</time>
      </trkpt>
      <trkpt lat="44.93308" lon="3.35556">
        <ele>1202.7</ele>
        <time>2022-06-08T10:15:38Z</time>
      </trkpt>
      <trkpt lat="44.93313" lon="3.35557">
        <ele>1203.2</ele>
        <time>2022-06-08T10:15:45Z</time>
      </trkpt>
      <trkpt lat="44.93317" lon="3.35558">
        <ele>1205.6</ele>
        <time>2022-06-08T10:15:54Z</time>
      </trkpt>
      <trkpt lat="44.93322" lon="3.35557">
        <ele>1205.3</ele>
        <time>2022-06-08T10:16:01Z</time>
      </trkpt>
      <trkpt lat="44.93326" lon="3.35552">
        <ele>1207.4</ele>
        <time>2022-06-08T10:16:13Z</time>
      </trkpt>
      <trkpt lat="44.93328" lon="3.35547">
        <ele>1208</ele>
        <time>2022-06-08T10:16:22Z</time>
      </trkpt>
      <trkpt lat="44.93331" lon="3.35541">
        <ele>1208.4</ele>
        <time>2022-06-08T10:16:35Z</time>
      </trkpt>
      <trkpt lat="44.9333" lon="3.35533">
        <ele>1208.1</ele>
        <time>2022-06-08T10:16:40Z</time>
      </trkpt>
      <trkpt lat="44.93331" lon="3.35526">
        <ele>1208</ele>
        <time>2022-06-08T10:16:45Z</time>
      </trkpt>
      <trkpt lat="44.93334" lon="3.35519">
        <ele>1207.9</ele>
        <time>2022-06-08T10:16:50Z</time>
      </trkpt>
      <trkpt lat="44.93338" lon="3.35514">
        <ele>1208.2</ele>
        <time>2022-06-08T10:16:55Z</time>
      </trkpt>
      <trkpt lat="44.93341" lon="3.3551">
        <ele>1208.5</ele>
        <time>2022-06-08T10:17:00Z</time>
      </trkpt>
      <trkpt lat="44.93345" lon="3.35506">
        <ele>1208.1</ele>
        <time>2022-06-08T10:17:06Z</time>
      </trkpt>
      <trkpt lat="44.93349" lon="3.35502">
        <ele>1208.1</ele>
        <time>2022-06-08T10:17:13Z</time>
      </trkpt>
      <trkpt lat="44.93353" lon="3.35497">
        <ele>1208</ele>
        <time>2022-06-08T10:17:18Z</time>
      </trkpt>
      <trkpt lat="44.93356" lon="3.35492">
        <ele>1209.9</ele>
        <time>2022-06-08T10:17:24Z</time>
      </trkpt>
      <trkpt lat="44.93359" lon="3.35487">
        <ele>1210.4</ele>
        <time>2022-06-08T10:17:29Z</time>
      </trkpt>
      <trkpt lat="44.93363" lon="3.35483">
        <ele>1210.3</ele>
        <time>2022-06-08T10:17:34Z</time>
      </trkpt>
      <trkpt lat="44.93368" lon="3.3548">
        <ele>1210.4</ele>
        <time>2022-06-08T10:17:40Z</time>
      </trkpt>
      <trkpt lat="44.93372" lon="3.35477">
        <ele>1209.5</ele>
        <time>2022-06-08T10:17:45Z</time>
      </trkpt>
      <trkpt lat="44.93377" lon="3.35475">
        <ele>1208.6</ele>
        <time>2022-06-08T10:17:50Z</time>
      </trkpt>
      <trkpt lat="44.93382" lon="3.35473">
        <ele>1206.3</ele>
        <time>2022-06-08T10:17:55Z</time>
      </trkpt>
      <trkpt lat="44.93386" lon="3.3547">
        <ele>1205.1</ele>
        <time>2022-06-08T10:17:59Z</time>
      </trkpt>
      <trkpt lat="44.9339" lon="3.35465">
        <ele>1204.5</ele>
        <time>2022-06-08T10:18:05Z</time>
      </trkpt>
      <trkpt lat="44.93394" lon="3.35462">
        <ele>1203.9</ele>
        <time>2022-06-08T10:18:14Z</time>
      </trkpt>
      <trkpt lat="44.93398" lon="3.35459">
        <ele>1204.6</ele>
        <time>2022-06-08T10:18:19Z</time>
      </trkpt>
      <trkpt lat="44.93402" lon="3.35454">
        <ele>1205</ele>
        <time>2022-06-08T10:18:24Z</time>
      </trkpt>
      <trkpt lat="44.93406" lon="3.3545">
        <ele>1205.3</ele>
        <time>2022-06-08T10:18:29Z</time>
      </trkpt>
      <trkpt lat="44.93411" lon="3.35447">
        <ele>1204.5</ele>
        <time>2022-06-08T10:18:33Z</time>
      </trkpt>
      <trkpt lat="44.93415" lon="3.35443">
        <ele>1204.3</ele>
        <time>2022-06-08T10:18:38Z</time>
      </trkpt>
      <trkpt lat="44.93419" lon="3.35438">
        <ele>1204.6</ele>
        <time>2022-06-08T10:18:44Z</time>
      </trkpt>
      <trkpt lat="44.93424" lon="3.35434">
        <ele>1204.9</ele>
        <time>2022-06-08T10:18:51Z</time>
      </trkpt>
      <trkpt lat="44.93428" lon="3.3543">
        <ele>1205.9</ele>
        <time>2022-06-08T10:18:57Z</time>
      </trkpt>
      <trkpt lat="44.93433" lon="3.35427">
        <ele>1205.3</ele>
        <time>2022-06-08T10:19:02Z</time>
      </trkpt>
      <trkpt lat="44.93437" lon="3.35423">
        <ele>1205.2</ele>
        <time>2022-06-08T10:19:06Z</time>
      </trkpt>
      <trkpt lat="44.93441" lon="3.3542">
        <ele>1205</ele>
        <time>2022-06-08T10:19:10Z</time>
      </trkpt>
      <trkpt lat="44.93446" lon="3.35417">
        <ele>1205.8</ele>
        <time>2022-06-08T10:19:15Z</time>
      </trkpt>
      <trkpt lat="44.9345" lon="3.35414">
        <ele>1205.8</ele>
        <time>2022-06-08T10:19:20Z</time>
      </trkpt>
      <trkpt lat="44.93455" lon="3.35414">
        <ele>1205.8</ele>
        <time>2022-06-08T10:19:26Z</time>
      </trkpt>
      <trkpt lat="44.9346" lon="3.35413">
        <ele>1206.1</ele>
        <time>2022-06-08T10:19:32Z</time>
      </trkpt>
      <trkpt lat="44.93464" lon="3.35412">
        <ele>1206.5</ele>
        <time>2022-06-08T10:19:37Z</time>
      </trkpt>
      <trkpt lat="44.9347" lon="3.3541">
        <ele>1206.3</ele>
        <time>2022-06-08T10:19:42Z</time>
      </trkpt>
      <trkpt lat="44.93474" lon="3.35408">
        <ele>1207.3</ele>
        <time>2022-06-08T10:19:47Z</time>
      </trkpt>
      <trkpt lat="44.93479" lon="3.35407">
        <ele>1209.4</ele>
        <time>2022-06-08T10:19:53Z</time>
      </trkpt>
      <trkpt lat="44.93484" lon="3.35406">
        <ele>1210.7</ele>
        <time>2022-06-08T10:19:58Z</time>
      </trkpt>
      <trkpt lat="44.93488" lon="3.35405">
        <ele>1211.5</ele>
        <time>2022-06-08T10:20:03Z</time>
      </trkpt>
      <trkpt lat="44.93493" lon="3.35403">
        <ele>1212.7</ele>
        <time>2022-06-08T10:20:08Z</time>
      </trkpt>
      <trkpt lat="44.93498" lon="3.35403">
        <ele>1215.7</ele>
        <time>2022-06-08T10:20:18Z</time>
      </trkpt>
      <trkpt lat="44.93503" lon="3.35402">
        <ele>1216.9</ele>
        <time>2022-06-08T10:20:23Z</time>
      </trkpt>
      <trkpt lat="44.93508" lon="3.354">
        <ele>1217</ele>
        <time>2022-06-08T10:20:28Z</time>
      </trkpt>
      <trkpt lat="44.93513" lon="3.35397">
        <ele>1217.8</ele>
        <time>2022-06-08T10:20:33Z</time>
      </trkpt>
      <trkpt lat="44.93518" lon="3.35396">
        <ele>1218.9</ele>
        <time>2022-06-08T10:20:39Z</time>
      </trkpt>
      <trkpt lat="44.93523" lon="3.35393">
        <ele>1218.2</ele>
        <time>2022-06-08T10:20:45Z</time>
      </trkpt>
      <trkpt lat="44.93527" lon="3.3539">
        <ele>1218.1</ele>
        <time>2022-06-08T10:20:50Z</time>
      </trkpt>
      <trkpt lat="44.93531" lon="3.35386">
        <ele>1217.5</ele>
        <time>2022-06-08T10:20:55Z</time>
      </trkpt>
      <trkpt lat="44.93535" lon="3.35382">
        <ele>1217</ele>
        <time>2022-06-08T10:21:01Z</time>
      </trkpt>
      <trkpt lat="44.93539" lon="3.35377">
        <ele>1216.6</ele>
        <time>2022-06-08T10:21:06Z</time>
      </trkpt>
      <trkpt lat="44.93543" lon="3.35372">
        <ele>1217.4</ele>
        <time>2022-06-08T10:21:11Z</time>
      </trkpt>
      <trkpt lat="44.93547" lon="3.35368">
        <ele>1219</ele>
        <time>2022-06-08T10:21:16Z</time>
      </trkpt>
      <trkpt lat="44.9355" lon="3.35362">
        <ele>1219.3</ele>
        <time>2022-06-08T10:21:21Z</time>
      </trkpt>
      <trkpt lat="44.93554" lon="3.35358">
        <ele>1218.4</ele>
        <time>2022-06-08T10:21:27Z</time>
      </trkpt>
      <trkpt lat="44.93558" lon="3.35355">
        <ele>1219.4</ele>
        <time>2022-06-08T10:21:33Z</time>
      </trkpt>
      <trkpt lat="44.93562" lon="3.35353">
        <ele>1219.7</ele>
        <time>2022-06-08T10:21:39Z</time>
      </trkpt>
      <trkpt lat="44.93567" lon="3.3535">
        <ele>1221.3</ele>
        <time>2022-06-08T10:21:46Z</time>
      </trkpt>
      <trkpt lat="44.93572" lon="3.35348">
        <ele>1222.6</ele>
        <time>2022-06-08T10:21:52Z</time>
      </trkpt>
      <trkpt lat="44.93576" lon="3.35345">
        <ele>1220.4</ele>
        <time>2022-06-08T10:21:58Z</time>
      </trkpt>
      <trkpt lat="44.9358" lon="3.35342">
        <ele>1219</ele>
        <time>2022-06-08T10:22:06Z</time>
      </trkpt>
      <trkpt lat="44.93585" lon="3.3534">
        <ele>1210.2</ele>
        <time>2022-06-08T10:23:19Z</time>
      </trkpt>
      <trkpt lat="44.93587" lon="3.35334">
        <ele>1210.6</ele>
        <time>2022-06-08T10:23:36Z</time>
      </trkpt>
      <trkpt lat="44.93591" lon="3.3533">
        <ele>1210.6</ele>
        <time>2022-06-08T10:23:45Z</time>
      </trkpt>
      <trkpt lat="44.93595" lon="3.35326">
        <ele>1210.1</ele>
        <time>2022-06-08T10:23:51Z</time>
      </trkpt>
      <trkpt lat="44.93598" lon="3.35321">
        <ele>1209.9</ele>
        <time>2022-06-08T10:23:57Z</time>
      </trkpt>
      <trkpt lat="44.936" lon="3.35315">
        <ele>1208.6</ele>
        <time>2022-06-08T10:24:04Z</time>
      </trkpt>
      <trkpt lat="44.93601" lon="3.35308">
        <ele>1208.3</ele>
        <time>2022-06-08T10:24:09Z</time>
      </trkpt>
      <trkpt lat="44.93602" lon="3.35302">
        <ele>1206.8</ele>
        <time>2022-06-08T10:24:13Z</time>
      </trkpt>
      <trkpt lat="44.93602" lon="3.35294">
        <ele>1205.9</ele>
        <time>2022-06-08T10:24:18Z</time>
      </trkpt>
      <trkpt lat="44.93602" lon="3.35287">
        <ele>1204.8</ele>
        <time>2022-06-08T10:24:24Z</time>
      </trkpt>
      <trkpt lat="44.93604" lon="3.3528">
        <ele>1203.7</ele>
        <time>2022-06-08T10:24:29Z</time>
      </trkpt>
      <trkpt lat="44.93604" lon="3.35274">
        <ele>1203.6</ele>
        <time>2022-06-08T10:24:33Z</time>
      </trkpt>
      <trkpt lat="44.93606" lon="3.35267">
        <ele>1203.6</ele>
        <time>2022-06-08T10:24:38Z</time>
      </trkpt>
      <trkpt lat="44.93608" lon="3.3526">
        <ele>1202.4</ele>
        <time>2022-06-08T10:24:43Z</time>
      </trkpt>
      <trkpt lat="44.9361" lon="3.35254">
        <ele>1202.2</ele>
        <time>2022-06-08T10:24:49Z</time>
      </trkpt>
      <trkpt lat="44.9361" lon="3.35247">
        <ele>1204.9</ele>
        <time>2022-06-08T10:24:56Z</time>
      </trkpt>
      <trkpt lat="44.93613" lon="3.35241">
        <ele>1203</ele>
        <time>2022-06-08T10:25:03Z</time>
      </trkpt>
      <trkpt lat="44.93613" lon="3.35235">
        <ele>1201.2</ele>
        <time>2022-06-08T10:25:10Z</time>
      </trkpt>
      <trkpt lat="44.93615" lon="3.35228">
        <ele>1201.7</ele>
        <time>2022-06-08T10:25:15Z</time>
      </trkpt>
      <trkpt lat="44.93614" lon="3.35221">
        <ele>1203.2</ele>
        <time>2022-06-08T10:25:26Z</time>
      </trkpt>
      <trkpt lat="44.93615" lon="3.35214">
        <ele>1203.9</ele>
        <time>2022-06-08T10:25:32Z</time>
      </trkpt>
      <trkpt lat="44.93617" lon="3.35207">
        <ele>1201.7</ele>
        <time>2022-06-08T10:25:37Z</time>
      </trkpt>
      <trkpt lat="44.93617" lon="3.35201">
        <ele>1198.6</ele>
        <time>2022-06-08T10:25:55Z</time>
      </trkpt>
      <trkpt lat="44.93617" lon="3.35193">
        <ele>1199.6</ele>
        <time>2022-06-08T10:26:01Z</time>
      </trkpt>
      <trkpt lat="44.93619" lon="3.35186">
        <ele>1198.8</ele>
        <time>2022-06-08T10:26:06Z</time>
      </trkpt>
      <trkpt lat="44.9362" lon="3.35179">
        <ele>1184.3</ele>
        <time>2022-06-08T10:26:11Z</time>
      </trkpt>
      <trkpt lat="44.93621" lon="3.35172">
        <ele>1185.9</ele>
        <time>2022-06-08T10:26:15Z</time>
      </trkpt>
      <trkpt lat="44.93622" lon="3.35165">
        <ele>1188.5</ele>
        <time>2022-06-08T10:26:19Z</time>
      </trkpt>
      <trkpt lat="44.93622" lon="3.35157">
        <ele>1190.6</ele>
        <time>2022-06-08T10:26:23Z</time>
      </trkpt>
      <trkpt lat="44.93622" lon="3.3515">
        <ele>1192</ele>
        <time>2022-06-08T10:26:27Z</time>
      </trkpt>
      <trkpt lat="44.93623" lon="3.35144">
        <ele>1192.4</ele>
        <time>2022-06-08T10:26:31Z</time>
      </trkpt>
      <trkpt lat="44.93622" lon="3.35137">
        <ele>1193.2</ele>
        <time>2022-06-08T10:26:38Z</time>
      </trkpt>
      <trkpt lat="44.93623" lon="3.3513">
        <ele>1193.8</ele>
        <time>2022-06-08T10:26:43Z</time>
      </trkpt>
      <trkpt lat="44.93625" lon="3.35123">
        <ele>1194</ele>
        <time>2022-06-08T10:26:47Z</time>
      </trkpt>
      <trkpt lat="44.93624" lon="3.35116">
        <ele>1194</ele>
        <time>2022-06-08T10:26:51Z</time>
      </trkpt>
      <trkpt lat="44.93625" lon="3.35109">
        <ele>1193.5</ele>
        <time>2022-06-08T10:26:55Z</time>
      </trkpt>
      <trkpt lat="44.93627" lon="3.35103">
        <ele>1191.9</ele>
        <time>2022-06-08T10:27:00Z</time>
      </trkpt>
      <trkpt lat="44.93628" lon="3.35095">
        <ele>1191.1</ele>
        <time>2022-06-08T10:27:05Z</time>
      </trkpt>
      <trkpt lat="44.9363" lon="3.35089">
        <ele>1190.1</ele>
        <time>2022-06-08T10:27:09Z</time>
      </trkpt>
      <trkpt lat="44.93632" lon="3.35082">
        <ele>1188.8</ele>
        <time>2022-06-08T10:27:13Z</time>
      </trkpt>
      <trkpt lat="44.93632" lon="3.35076">
        <ele>1186.9</ele>
        <time>2022-06-08T10:27:24Z</time>
      </trkpt>
      <trkpt lat="44.93634" lon="3.35069">
        <ele>1182</ele>
        <time>2022-06-08T10:27:48Z</time>
      </trkpt>
      <trkpt lat="44.93636" lon="3.35063">
        <ele>1180.3</ele>
        <time>2022-06-08T10:27:58Z</time>
      </trkpt>
      <trkpt lat="44.93636" lon="3.35057">
        <ele>1179.1</ele>
        <time>2022-06-08T10:28:06Z</time>
      </trkpt>
      <trkpt lat="44.93636" lon="3.3505">
        <ele>1175.2</ele>
        <time>2022-06-08T10:28:30Z</time>
      </trkpt>
      <trkpt lat="44.93635" lon="3.35044">
        <ele>1164.2</ele>
        <time>2022-06-08T10:28:58Z</time>
      </trkpt>
      <trkpt lat="44.93638" lon="3.35038">
        <ele>1178.3</ele>
        <time>2022-06-08T10:29:22Z</time>
      </trkpt>
      <trkpt lat="44.9364" lon="3.35031">
        <ele>1169.4</ele>
        <time>2022-06-08T10:29:41Z</time>
      </trkpt>
      <trkpt lat="44.93642" lon="3.35026">
        <ele>1176.1</ele>
        <time>2022-06-08T10:29:46Z</time>
      </trkpt>
      <trkpt lat="44.93645" lon="3.3502">
        <ele>1182.8</ele>
        <time>2022-06-08T10:29:53Z</time>
      </trkpt>
      <trkpt lat="44.93649" lon="3.35014">
        <ele>1184.5</ele>
        <time>2022-06-08T10:29:58Z</time>
      </trkpt>
      <trkpt lat="44.93651" lon="3.35009">
        <ele>1185</ele>
        <time>2022-06-08T10:30:02Z</time>
      </trkpt>
      <trkpt lat="44.93655" lon="3.35004">
        <ele>1185.5</ele>
        <time>2022-06-08T10:30:07Z</time>
      </trkpt>
      <trkpt lat="44.93658" lon="3.34998">
        <ele>1186</ele>
        <time>2022-06-08T10:30:13Z</time>
      </trkpt>
      <trkpt lat="44.93662" lon="3.34994">
        <ele>1185.6</ele>
        <time>2022-06-08T10:30:19Z</time>
      </trkpt>
      <trkpt lat="44.93665" lon="3.3499">
        <ele>1185</ele>
        <time>2022-06-08T10:30:24Z</time>
      </trkpt>
      <trkpt lat="44.93667" lon="3.34984">
        <ele>1184.8</ele>
        <time>2022-06-08T10:30:29Z</time>
      </trkpt>
      <trkpt lat="44.9367" lon="3.34979">
        <ele>1185.2</ele>
        <time>2022-06-08T10:30:34Z</time>
      </trkpt>
      <trkpt lat="44.93672" lon="3.34972">
        <ele>1185.9</ele>
        <time>2022-06-08T10:30:45Z</time>
      </trkpt>
      <trkpt lat="44.93674" lon="3.34965">
        <ele>1186.4</ele>
        <time>2022-06-08T10:30:49Z</time>
      </trkpt>
      <trkpt lat="44.93676" lon="3.3496">
        <ele>1186.4</ele>
        <time>2022-06-08T10:30:53Z</time>
      </trkpt>
      <trkpt lat="44.93679" lon="3.34954">
        <ele>1185.8</ele>
        <time>2022-06-08T10:30:57Z</time>
      </trkpt>
      <trkpt lat="44.93682" lon="3.34948">
        <ele>1184.9</ele>
        <time>2022-06-08T10:31:02Z</time>
      </trkpt>
      <trkpt lat="44.93683" lon="3.34942">
        <ele>1183.9</ele>
        <time>2022-06-08T10:31:13Z</time>
      </trkpt>
      <trkpt lat="44.93686" lon="3.34934">
        <ele>1182.9</ele>
        <time>2022-06-08T10:31:18Z</time>
      </trkpt>
      <trkpt lat="44.93687" lon="3.34928">
        <ele>1181.6</ele>
        <time>2022-06-08T10:31:22Z</time>
      </trkpt>
      <trkpt lat="44.93689" lon="3.34922">
        <ele>1179.7</ele>
        <time>2022-06-08T10:31:27Z</time>
      </trkpt>
      <trkpt lat="44.93689" lon="3.34914">
        <ele>1178.9</ele>
        <time>2022-06-08T10:31:32Z</time>
      </trkpt>
      <trkpt lat="44.9369" lon="3.34907">
        <ele>1178.6</ele>
        <time>2022-06-08T10:31:37Z</time>
      </trkpt>
      <trkpt lat="44.93691" lon="3.349">
        <ele>1178.2</ele>
        <time>2022-06-08T10:31:42Z</time>
      </trkpt>
      <trkpt lat="44.93694" lon="3.34895">
        <ele>1178</ele>
        <time>2022-06-08T10:31:48Z</time>
      </trkpt>
      <trkpt lat="44.93696" lon="3.34888">
        <ele>1176.4</ele>
        <time>2022-06-08T10:32:00Z</time>
      </trkpt>
      <trkpt lat="44.93696" lon="3.34881">
        <ele>1175.8</ele>
        <time>2022-06-08T10:32:04Z</time>
      </trkpt>
      <trkpt lat="44.93696" lon="3.34874">
        <ele>1175.1</ele>
        <time>2022-06-08T10:32:09Z</time>
      </trkpt>
      <trkpt lat="44.93697" lon="3.34867">
        <ele>1174.5</ele>
        <time>2022-06-08T10:32:15Z</time>
      </trkpt>
      <trkpt lat="44.93698" lon="3.34861">
        <ele>1174.3</ele>
        <time>2022-06-08T10:32:20Z</time>
      </trkpt>
      <trkpt lat="44.937" lon="3.34854">
        <ele>1173.4</ele>
        <time>2022-06-08T10:32:25Z</time>
      </trkpt>
      <trkpt lat="44.93702" lon="3.34849">
        <ele>1171.6</ele>
        <time>2022-06-08T10:32:30Z</time>
      </trkpt>
      <trkpt lat="44.93704" lon="3.34841">
        <ele>1171.6</ele>
        <time>2022-06-08T10:32:36Z</time>
      </trkpt>
      <trkpt lat="44.93704" lon="3.34834">
        <ele>1172</ele>
        <time>2022-06-08T10:32:41Z</time>
      </trkpt>
      <trkpt lat="44.93709" lon="3.34832">
        <ele>1170.3</ele>
        <time>2022-06-08T10:32:49Z</time>
      </trkpt>
      <trkpt lat="44.9371" lon="3.34824">
        <ele>1169.8</ele>
        <time>2022-06-08T10:32:53Z</time>
      </trkpt>
      <trkpt lat="44.93709" lon="3.34817">
        <ele>1170.2</ele>
        <time>2022-06-08T10:32:57Z</time>
      </trkpt>
      <trkpt lat="44.93711" lon="3.3481">
        <ele>1168.8</ele>
        <time>2022-06-08T10:33:02Z</time>
      </trkpt>
      <trkpt lat="44.93713" lon="3.34804">
        <ele>1167.4</ele>
        <time>2022-06-08T10:33:07Z</time>
      </trkpt>
      <trkpt lat="44.93716" lon="3.34798">
        <ele>1166.2</ele>
        <time>2022-06-08T10:33:12Z</time>
      </trkpt>
      <trkpt lat="44.93718" lon="3.34791">
        <ele>1166.5</ele>
        <time>2022-06-08T10:33:16Z</time>
      </trkpt>
      <trkpt lat="44.93718" lon="3.34784">
        <ele>1166.7</ele>
        <time>2022-06-08T10:33:20Z</time>
      </trkpt>
      <trkpt lat="44.93718" lon="3.34778">
        <ele>1166</ele>
        <time>2022-06-08T10:33:24Z</time>
      </trkpt>
      <trkpt lat="44.93721" lon="3.34772">
        <ele>1165.8</ele>
        <time>2022-06-08T10:33:32Z</time>
      </trkpt>
      <trkpt lat="44.9372" lon="3.34765">
        <ele>1166.4</ele>
        <time>2022-06-08T10:33:41Z</time>
      </trkpt>
      <trkpt lat="44.93722" lon="3.34758">
        <ele>1169</ele>
        <time>2022-06-08T10:33:54Z</time>
      </trkpt>
      <trkpt lat="44.93723" lon="3.34752">
        <ele>1168.3</ele>
        <time>2022-06-08T10:33:59Z</time>
      </trkpt>
      <trkpt lat="44.93726" lon="3.34745">
        <ele>1168.1</ele>
        <time>2022-06-08T10:34:04Z</time>
      </trkpt>
      <trkpt lat="44.93725" lon="3.34738">
        <ele>1167.7</ele>
        <time>2022-06-08T10:34:09Z</time>
      </trkpt>
      <trkpt lat="44.93722" lon="3.34732">
        <ele>1168</ele>
        <time>2022-06-08T10:34:14Z</time>
      </trkpt>
      <trkpt lat="44.93717" lon="3.34729">
        <ele>1167.6</ele>
        <time>2022-06-08T10:34:19Z</time>
      </trkpt>
      <trkpt lat="44.93715" lon="3.34734">
        <ele>1167.8</ele>
        <time>2022-06-08T10:34:24Z</time>
      </trkpt>
      <trkpt lat="44.9371" lon="3.34738">
        <ele>1168.3</ele>
        <time>2022-06-08T10:34:29Z</time>
      </trkpt>
      <trkpt lat="44.93706" lon="3.34741">
        <ele>1170</ele>
        <time>2022-06-08T10:34:34Z</time>
      </trkpt>
      <trkpt lat="44.93701" lon="3.34741">
        <ele>1172.1</ele>
        <time>2022-06-08T10:34:39Z</time>
      </trkpt>
      <trkpt lat="44.93696" lon="3.34742">
        <ele>1173.2</ele>
        <time>2022-06-08T10:34:44Z</time>
      </trkpt>
      <trkpt lat="44.93691" lon="3.34742">
        <ele>1173.6</ele>
        <time>2022-06-08T10:34:50Z</time>
      </trkpt>
      <trkpt lat="44.93685" lon="3.34742">
        <ele>1170.3</ele>
        <time>2022-06-08T10:34:57Z</time>
      </trkpt>
      <trkpt lat="44.93683" lon="3.34737">
        <ele>1164.6</ele>
        <time>2022-06-08T10:35:07Z</time>
      </trkpt>
      <trkpt lat="44.93682" lon="3.3473">
        <ele>1162</ele>
        <time>2022-06-08T10:35:13Z</time>
      </trkpt>
      <trkpt lat="44.93682" lon="3.34724">
        <ele>1158.4</ele>
        <time>2022-06-08T10:35:20Z</time>
      </trkpt>
      <trkpt lat="44.93679" lon="3.34717">
        <ele>1156</ele>
        <time>2022-06-08T10:35:27Z</time>
      </trkpt>
      <trkpt lat="44.93678" lon="3.34711">
        <ele>1154</ele>
        <time>2022-06-08T10:35:32Z</time>
      </trkpt>
      <trkpt lat="44.93677" lon="3.34704">
        <ele>1152.3</ele>
        <time>2022-06-08T10:35:36Z</time>
      </trkpt>
      <trkpt lat="44.93675" lon="3.34698">
        <ele>1151.5</ele>
        <time>2022-06-08T10:35:40Z</time>
      </trkpt>
      <trkpt lat="44.93675" lon="3.34691">
        <ele>1150.2</ele>
        <time>2022-06-08T10:35:45Z</time>
      </trkpt>
      <trkpt lat="44.93674" lon="3.34684">
        <ele>1150.4</ele>
        <time>2022-06-08T10:35:50Z</time>
      </trkpt>
      <trkpt lat="44.93673" lon="3.34677">
        <ele>1151.6</ele>
        <time>2022-06-08T10:35:55Z</time>
      </trkpt>
      <trkpt lat="44.93672" lon="3.3467">
        <ele>1153</ele>
        <time>2022-06-08T10:36:00Z</time>
      </trkpt>
      <trkpt lat="44.93672" lon="3.34663">
        <ele>1153.4</ele>
        <time>2022-06-08T10:36:08Z</time>
      </trkpt>
      <trkpt lat="44.93671" lon="3.34655">
        <ele>1152.9</ele>
        <time>2022-06-08T10:36:14Z</time>
      </trkpt>
      <trkpt lat="44.93669" lon="3.34649">
        <ele>1152.2</ele>
        <time>2022-06-08T10:36:18Z</time>
      </trkpt>
      <trkpt lat="44.93666" lon="3.34642">
        <ele>1153.4</ele>
        <time>2022-06-08T10:36:23Z</time>
      </trkpt>
      <trkpt lat="44.93663" lon="3.34636">
        <ele>1153.6</ele>
        <time>2022-06-08T10:36:28Z</time>
      </trkpt>
      <trkpt lat="44.93661" lon="3.3463">
        <ele>1153.6</ele>
        <time>2022-06-08T10:36:32Z</time>
      </trkpt>
      <trkpt lat="44.93658" lon="3.34623">
        <ele>1154.6</ele>
        <time>2022-06-08T10:36:37Z</time>
      </trkpt>
      <trkpt lat="44.93656" lon="3.34617">
        <ele>1153.3</ele>
        <time>2022-06-08T10:36:42Z</time>
      </trkpt>
      <trkpt lat="44.93656" lon="3.3461">
        <ele>1151.5</ele>
        <time>2022-06-08T10:36:46Z</time>
      </trkpt>
      <trkpt lat="44.93656" lon="3.34604">
        <ele>1150.7</ele>
        <time>2022-06-08T10:36:50Z</time>
      </trkpt>
      <trkpt lat="44.93656" lon="3.34597">
        <ele>1150.3</ele>
        <time>2022-06-08T10:36:55Z</time>
      </trkpt>
      <trkpt lat="44.93656" lon="3.3459">
        <ele>1148.7</ele>
        <time>2022-06-08T10:37:00Z</time>
      </trkpt>
      <trkpt lat="44.93656" lon="3.34582">
        <ele>1147.8</ele>
        <time>2022-06-08T10:37:05Z</time>
      </trkpt>
      <trkpt lat="44.93656" lon="3.34576">
        <ele>1146</ele>
        <time>2022-06-08T10:37:10Z</time>
      </trkpt>
      <trkpt lat="44.93656" lon="3.34569">
        <ele>1144.1</ele>
        <time>2022-06-08T10:37:22Z</time>
      </trkpt>
      <trkpt lat="44.93655" lon="3.34563">
        <ele>1142.3</ele>
        <time>2022-06-08T10:37:26Z</time>
      </trkpt>
      <trkpt lat="44.93656" lon="3.34555">
        <ele>1141.3</ele>
        <time>2022-06-08T10:37:30Z</time>
      </trkpt>
      <trkpt lat="44.93655" lon="3.34548">
        <ele>1141.3</ele>
        <time>2022-06-08T10:37:34Z</time>
      </trkpt>
      <trkpt lat="44.93654" lon="3.34541">
        <ele>1141.1</ele>
        <time>2022-06-08T10:37:38Z</time>
      </trkpt>
      <trkpt lat="44.93653" lon="3.34534">
        <ele>1140.3</ele>
        <time>2022-06-08T10:37:42Z</time>
      </trkpt>
      <trkpt lat="44.93653" lon="3.34527">
        <ele>1139.5</ele>
        <time>2022-06-08T10:37:47Z</time>
      </trkpt>
      <trkpt lat="44.93654" lon="3.3452">
        <ele>1138.3</ele>
        <time>2022-06-08T10:38:08Z</time>
      </trkpt>
      <trkpt lat="44.93655" lon="3.34513">
        <ele>1137</ele>
        <time>2022-06-08T10:38:14Z</time>
      </trkpt>
      <trkpt lat="44.93657" lon="3.34506">
        <ele>1135.6</ele>
        <time>2022-06-08T10:38:19Z</time>
      </trkpt>
      <trkpt lat="44.93658" lon="3.345">
        <ele>1135.6</ele>
        <time>2022-06-08T10:38:24Z</time>
      </trkpt>
      <trkpt lat="44.93658" lon="3.34493">
        <ele>1135.3</ele>
        <time>2022-06-08T10:38:29Z</time>
      </trkpt>
      <trkpt lat="44.9366" lon="3.34488">
        <ele>1133.6</ele>
        <time>2022-06-08T10:38:46Z</time>
      </trkpt>
      <trkpt lat="44.93661" lon="3.34481">
        <ele>1133.7</ele>
        <time>2022-06-08T10:38:58Z</time>
      </trkpt>
      <trkpt lat="44.93662" lon="3.34475">
        <ele>1133.4</ele>
        <time>2022-06-08T10:39:05Z</time>
      </trkpt>
      <trkpt lat="44.93665" lon="3.34469">
        <ele>1131.3</ele>
        <time>2022-06-08T10:39:15Z</time>
      </trkpt>
      <trkpt lat="44.93666" lon="3.34462">
        <ele>1130.2</ele>
        <time>2022-06-08T10:39:20Z</time>
      </trkpt>
      <trkpt lat="44.93666" lon="3.34455">
        <ele>1129.3</ele>
        <time>2022-06-08T10:39:25Z</time>
      </trkpt>
      <trkpt lat="44.93664" lon="3.34448">
        <ele>1130.1</ele>
        <time>2022-06-08T10:39:30Z</time>
      </trkpt>
      <trkpt lat="44.93663" lon="3.34441">
        <ele>1129.4</ele>
        <time>2022-06-08T10:39:42Z</time>
      </trkpt>
      <trkpt lat="44.93662" lon="3.34435">
        <ele>1128.7</ele>
        <time>2022-06-08T10:39:48Z</time>
      </trkpt>
      <trkpt lat="44.93661" lon="3.34428">
        <ele>1128.3</ele>
        <time>2022-06-08T10:39:52Z</time>
      </trkpt>
      <trkpt lat="44.93658" lon="3.34421">
        <ele>1129.2</ele>
        <time>2022-06-08T10:39:56Z</time>
      </trkpt>
      <trkpt lat="44.93654" lon="3.34416">
        <ele>1130.5</ele>
        <time>2022-06-08T10:40:00Z</time>
      </trkpt>
      <trkpt lat="44.9365" lon="3.3441">
        <ele>1130.5</ele>
        <time>2022-06-08T10:40:05Z</time>
      </trkpt>
      <trkpt lat="44.93646" lon="3.34406">
        <ele>1129.1</ele>
        <time>2022-06-08T10:40:10Z</time>
      </trkpt>
      <trkpt lat="44.93642" lon="3.34402">
        <ele>1129</ele>
        <time>2022-06-08T10:40:14Z</time>
      </trkpt>
      <trkpt lat="44.93639" lon="3.34396">
        <ele>1127.9</ele>
        <time>2022-06-08T10:40:18Z</time>
      </trkpt>
      <trkpt lat="44.93635" lon="3.34391">
        <ele>1127.7</ele>
        <time>2022-06-08T10:40:23Z</time>
      </trkpt>
      <trkpt lat="44.9363" lon="3.34387">
        <ele>1127.4</ele>
        <time>2022-06-08T10:40:27Z</time>
      </trkpt>
      <trkpt lat="44.93626" lon="3.34383">
        <ele>1126.5</ele>
        <time>2022-06-08T10:40:31Z</time>
      </trkpt>
      <trkpt lat="44.93622" lon="3.34378">
        <ele>1126</ele>
        <time>2022-06-08T10:40:35Z</time>
      </trkpt>
      <trkpt lat="44.93619" lon="3.34373">
        <ele>1125.3</ele>
        <time>2022-06-08T10:40:39Z</time>
      </trkpt>
      <trkpt lat="44.93615" lon="3.34368">
        <ele>1124.7</ele>
        <time>2022-06-08T10:40:43Z</time>
      </trkpt>
      <trkpt lat="44.93612" lon="3.34364">
        <ele>1124.6</ele>
        <time>2022-06-08T10:40:48Z</time>
      </trkpt>
      <trkpt lat="44.93608" lon="3.3436">
        <ele>1124.1</ele>
        <time>2022-06-08T10:40:53Z</time>
      </trkpt>
      <trkpt lat="44.93604" lon="3.34355">
        <ele>1124.1</ele>
        <time>2022-06-08T10:40:59Z</time>
      </trkpt>
      <trkpt lat="44.936" lon="3.34352">
        <ele>1124.8</ele>
        <time>2022-06-08T10:41:05Z</time>
      </trkpt>
      <trkpt lat="44.93595" lon="3.34348">
        <ele>1125.6</ele>
        <time>2022-06-08T10:41:14Z</time>
      </trkpt>
      <trkpt lat="44.93591" lon="3.34344">
        <ele>1125.6</ele>
        <time>2022-06-08T10:41:19Z</time>
      </trkpt>
      <trkpt lat="44.93587" lon="3.34339">
        <ele>1125.3</ele>
        <time>2022-06-08T10:41:24Z</time>
      </trkpt>
      <trkpt lat="44.93583" lon="3.34335">
        <ele>1125</ele>
        <time>2022-06-08T10:41:28Z</time>
      </trkpt>
      <trkpt lat="44.93579" lon="3.3433">
        <ele>1124.9</ele>
        <time>2022-06-08T10:41:33Z</time>
      </trkpt>
      <trkpt lat="44.93576" lon="3.34326">
        <ele>1124.7</ele>
        <time>2022-06-08T10:41:38Z</time>
      </trkpt>
      <trkpt lat="44.93574" lon="3.3432">
        <ele>1124</ele>
        <time>2022-06-08T10:41:43Z</time>
      </trkpt>
      <trkpt lat="44.93571" lon="3.34314">
        <ele>1121.8</ele>
        <time>2022-06-08T10:41:49Z</time>
      </trkpt>
      <trkpt lat="44.9357" lon="3.34307">
        <ele>1120.4</ele>
        <time>2022-06-08T10:41:53Z</time>
      </trkpt>
      <trkpt lat="44.93567" lon="3.34301">
        <ele>1119.6</ele>
        <time>2022-06-08T10:41:58Z</time>
      </trkpt>
      <trkpt lat="44.93564" lon="3.34296">
        <ele>1118.8</ele>
        <time>2022-06-08T10:42:02Z</time>
      </trkpt>
      <trkpt lat="44.93562" lon="3.3429">
        <ele>1118.8</ele>
        <time>2022-06-08T10:42:06Z</time>
      </trkpt>
      <trkpt lat="44.93559" lon="3.34284">
        <ele>1118.2</ele>
        <time>2022-06-08T10:42:10Z</time>
      </trkpt>
      <trkpt lat="44.93556" lon="3.34279">
        <ele>1117.8</ele>
        <time>2022-06-08T10:42:14Z</time>
      </trkpt>
      <trkpt lat="44.93553" lon="3.34273">
        <ele>1117.5</ele>
        <time>2022-06-08T10:42:18Z</time>
      </trkpt>
      <trkpt lat="44.93551" lon="3.34267">
        <ele>1117.5</ele>
        <time>2022-06-08T10:42:22Z</time>
      </trkpt>
      <trkpt lat="44.93549" lon="3.3426">
        <ele>1116.8</ele>
        <time>2022-06-08T10:42:26Z</time>
      </trkpt>
      <trkpt lat="44.93547" lon="3.34255">
        <ele>1116.7</ele>
        <time>2022-06-08T10:42:31Z</time>
      </trkpt>
      <trkpt lat="44.93545" lon="3.34249">
        <ele>1115.6</ele>
        <time>2022-06-08T10:42:37Z</time>
      </trkpt>
      <trkpt lat="44.93542" lon="3.34242">
        <ele>1114.9</ele>
        <time>2022-06-08T10:42:47Z</time>
      </trkpt>
      <trkpt lat="44.93539" lon="3.34237">
        <ele>1115</ele>
        <time>2022-06-08T10:42:52Z</time>
      </trkpt>
      <trkpt lat="44.93537" lon="3.34231">
        <ele>1115</ele>
        <time>2022-06-08T10:42:57Z</time>
      </trkpt>
      <trkpt lat="44.93534" lon="3.34225">
        <ele>1114.8</ele>
        <time>2022-06-08T10:43:02Z</time>
      </trkpt>
      <trkpt lat="44.93532" lon="3.34217">
        <ele>1115</ele>
        <time>2022-06-08T10:43:07Z</time>
      </trkpt>
      <trkpt lat="44.93529" lon="3.34212">
        <ele>1115.7</ele>
        <time>2022-06-08T10:43:11Z</time>
      </trkpt>
      <trkpt lat="44.93525" lon="3.34207">
        <ele>1117.6</ele>
        <time>2022-06-08T10:43:16Z</time>
      </trkpt>
      <trkpt lat="44.93522" lon="3.34202">
        <ele>1117.8</ele>
        <time>2022-06-08T10:43:20Z</time>
      </trkpt>
      <trkpt lat="44.93519" lon="3.34197">
        <ele>1117.8</ele>
        <time>2022-06-08T10:43:25Z</time>
      </trkpt>
      <trkpt lat="44.93515" lon="3.34193">
        <ele>1118</ele>
        <time>2022-06-08T10:43:30Z</time>
      </trkpt>
      <trkpt lat="44.93511" lon="3.34189">
        <ele>1117.9</ele>
        <time>2022-06-08T10:43:35Z</time>
      </trkpt>
      <trkpt lat="44.93506" lon="3.34187">
        <ele>1116.6</ele>
        <time>2022-06-08T10:43:40Z</time>
      </trkpt>
      <trkpt lat="44.93501" lon="3.34186">
        <ele>1115.4</ele>
        <time>2022-06-08T10:43:46Z</time>
      </trkpt>
      <trkpt lat="44.93496" lon="3.34183">
        <ele>1115.8</ele>
        <time>2022-06-08T10:43:52Z</time>
      </trkpt>
      <trkpt lat="44.93491" lon="3.34182">
        <ele>1116.4</ele>
        <time>2022-06-08T10:43:58Z</time>
      </trkpt>
      <trkpt lat="44.93486" lon="3.34181">
        <ele>1117</ele>
        <time>2022-06-08T10:44:03Z</time>
      </trkpt>
      <trkpt lat="44.93482" lon="3.3418">
        <ele>1117.8</ele>
        <time>2022-06-08T10:44:08Z</time>
      </trkpt>
      <trkpt lat="44.93477" lon="3.34177">
        <ele>1118.3</ele>
        <time>2022-06-08T10:44:14Z</time>
      </trkpt>
      <trkpt lat="44.93473" lon="3.34171">
        <ele>1118.1</ele>
        <time>2022-06-08T10:44:19Z</time>
      </trkpt>
      <trkpt lat="44.9347" lon="3.34167">
        <ele>1118</ele>
        <time>2022-06-08T10:44:24Z</time>
      </trkpt>
      <trkpt lat="44.93465" lon="3.34163">
        <ele>1118.1</ele>
        <time>2022-06-08T10:44:30Z</time>
      </trkpt>
      <trkpt lat="44.9346" lon="3.34159">
        <ele>1119.4</ele>
        <time>2022-06-08T10:44:36Z</time>
      </trkpt>
      <trkpt lat="44.93457" lon="3.34154">
        <ele>1120.1</ele>
        <time>2022-06-08T10:44:42Z</time>
      </trkpt>
      <trkpt lat="44.93455" lon="3.34148">
        <ele>1120.3</ele>
        <time>2022-06-08T10:44:54Z</time>
      </trkpt>
      <trkpt lat="44.93451" lon="3.34144">
        <ele>1121</ele>
        <time>2022-06-08T10:44:59Z</time>
      </trkpt>
      <trkpt lat="44.93447" lon="3.3414">
        <ele>1121.3</ele>
        <time>2022-06-08T10:45:05Z</time>
      </trkpt>
      <trkpt lat="44.93446" lon="3.34134">
        <ele>1121.5</ele>
        <time>2022-06-08T10:45:16Z</time>
      </trkpt>
      <trkpt lat="44.93447" lon="3.34127">
        <ele>1120</ele>
        <time>2022-06-08T10:45:23Z</time>
      </trkpt>
      <trkpt lat="44.93451" lon="3.34123">
        <ele>1121.1</ele>
        <time>2022-06-08T10:45:39Z</time>
      </trkpt>
      <trkpt lat="44.93456" lon="3.34122">
        <ele>1122.7</ele>
        <time>2022-06-08T10:45:46Z</time>
      </trkpt>
      <trkpt lat="44.93461" lon="3.34121">
        <ele>1124.3</ele>
        <time>2022-06-08T10:45:52Z</time>
      </trkpt>
      <trkpt lat="44.93465" lon="3.34117">
        <ele>1124.8</ele>
        <time>2022-06-08T10:45:59Z</time>
      </trkpt>
      <trkpt lat="44.9347" lon="3.34113">
        <ele>1125.9</ele>
        <time>2022-06-08T10:46:06Z</time>
      </trkpt>
      <trkpt lat="44.93475" lon="3.34112">
        <ele>1127.3</ele>
        <time>2022-06-08T10:46:12Z</time>
      </trkpt>
      <trkpt lat="44.9348" lon="3.34111">
        <ele>1129.7</ele>
        <time>2022-06-08T10:46:18Z</time>
      </trkpt>
      <trkpt lat="44.93485" lon="3.3411">
        <ele>1130.7</ele>
        <time>2022-06-08T10:46:24Z</time>
      </trkpt>
      <trkpt lat="44.9349" lon="3.3411">
        <ele>1130</ele>
        <time>2022-06-08T10:46:34Z</time>
      </trkpt>
      <trkpt lat="44.93495" lon="3.34109">
        <ele>1129.8</ele>
        <time>2022-06-08T10:46:41Z</time>
      </trkpt>
      <trkpt lat="44.935" lon="3.34106">
        <ele>1128.7</ele>
        <time>2022-06-08T10:46:47Z</time>
      </trkpt>
      <trkpt lat="44.93504" lon="3.34104">
        <ele>1127.5</ele>
        <time>2022-06-08T10:46:52Z</time>
      </trkpt>
      <trkpt lat="44.93508" lon="3.34101">
        <ele>1126</ele>
        <time>2022-06-08T10:46:58Z</time>
      </trkpt>
      <trkpt lat="44.93512" lon="3.34097">
        <ele>1129.2</ele>
        <time>2022-06-08T10:47:14Z</time>
      </trkpt>
      <trkpt lat="44.93514" lon="3.34091">
        <ele>1130.1</ele>
        <time>2022-06-08T10:47:20Z</time>
      </trkpt>
      <trkpt lat="44.93515" lon="3.34085">
        <ele>1130</ele>
        <time>2022-06-08T10:47:25Z</time>
      </trkpt>
      <trkpt lat="44.93516" lon="3.34078">
        <ele>1130.1</ele>
        <time>2022-06-08T10:47:30Z</time>
      </trkpt>
      <trkpt lat="44.93517" lon="3.34071">
        <ele>1130.6</ele>
        <time>2022-06-08T10:47:36Z</time>
      </trkpt>
      <trkpt lat="44.93519" lon="3.34064">
        <ele>1132.1</ele>
        <time>2022-06-08T10:47:43Z</time>
      </trkpt>
      <trkpt lat="44.93521" lon="3.34058">
        <ele>1131.4</ele>
        <time>2022-06-08T10:47:50Z</time>
      </trkpt>
      <trkpt lat="44.93523" lon="3.34052">
        <ele>1130.9</ele>
        <time>2022-06-08T10:47:57Z</time>
      </trkpt>
      <trkpt lat="44.93523" lon="3.34045">
        <ele>1131.4</ele>
        <time>2022-06-08T10:48:04Z</time>
      </trkpt>
      <trkpt lat="44.93525" lon="3.34039">
        <ele>1132</ele>
        <time>2022-06-08T10:48:10Z</time>
      </trkpt>
      <trkpt lat="44.93527" lon="3.34032">
        <ele>1131.5</ele>
        <time>2022-06-08T10:48:15Z</time>
      </trkpt>
      <trkpt lat="44.93529" lon="3.34026">
        <ele>1131.2</ele>
        <time>2022-06-08T10:48:20Z</time>
      </trkpt>
      <trkpt lat="44.93531" lon="3.3402">
        <ele>1131.3</ele>
        <time>2022-06-08T10:48:25Z</time>
      </trkpt>
      <trkpt lat="44.93532" lon="3.34014">
        <ele>1132.4</ele>
        <time>2022-06-08T10:48:30Z</time>
      </trkpt>
      <trkpt lat="44.93532" lon="3.34007">
        <ele>1132.4</ele>
        <time>2022-06-08T10:48:37Z</time>
      </trkpt>
      <trkpt lat="44.9353" lon="3.34001">
        <ele>1132.8</ele>
        <time>2022-06-08T10:48:45Z</time>
      </trkpt>
      <trkpt lat="44.93529" lon="3.33993">
        <ele>1131.9</ele>
        <time>2022-06-08T10:48:53Z</time>
      </trkpt>
      <trkpt lat="44.93528" lon="3.33987">
        <ele>1132.1</ele>
        <time>2022-06-08T10:49:01Z</time>
      </trkpt>
      <trkpt lat="44.93532" lon="3.33982">
        <ele>1129.7</ele>
        <time>2022-06-08T10:49:13Z</time>
      </trkpt>
      <trkpt lat="44.93533" lon="3.33975">
        <ele>1129</ele>
        <time>2022-06-08T10:49:17Z</time>
      </trkpt>
      <trkpt lat="44.93534" lon="3.33968">
        <ele>1129.3</ele>
        <time>2022-06-08T10:49:21Z</time>
      </trkpt>
      <trkpt lat="44.93536" lon="3.33962">
        <ele>1130.1</ele>
        <time>2022-06-08T10:49:25Z</time>
      </trkpt>
      <trkpt lat="44.93539" lon="3.33957">
        <ele>1131</ele>
        <time>2022-06-08T10:49:30Z</time>
      </trkpt>
      <trkpt lat="44.93542" lon="3.33952">
        <ele>1131.8</ele>
        <time>2022-06-08T10:49:35Z</time>
      </trkpt>
      <trkpt lat="44.93546" lon="3.33947">
        <ele>1133.6</ele>
        <time>2022-06-08T10:49:41Z</time>
      </trkpt>
      <trkpt lat="44.93549" lon="3.33941">
        <ele>1134.6</ele>
        <time>2022-06-08T10:49:49Z</time>
      </trkpt>
      <trkpt lat="44.93552" lon="3.33935">
        <ele>1137.2</ele>
        <time>2022-06-08T10:49:56Z</time>
      </trkpt>
      <trkpt lat="44.93554" lon="3.33929">
        <ele>1137.8</ele>
        <time>2022-06-08T10:50:03Z</time>
      </trkpt>
      <trkpt lat="44.93555" lon="3.33922">
        <ele>1140.2</ele>
        <time>2022-06-08T10:50:24Z</time>
      </trkpt>
      <trkpt lat="44.93558" lon="3.33917">
        <ele>1139</ele>
        <time>2022-06-08T10:50:29Z</time>
      </trkpt>
      <trkpt lat="44.93562" lon="3.33914">
        <ele>1138.4</ele>
        <time>2022-06-08T10:50:34Z</time>
      </trkpt>
      <trkpt lat="44.93566" lon="3.3391">
        <ele>1138.4</ele>
        <time>2022-06-08T10:50:39Z</time>
      </trkpt>
      <trkpt lat="44.93569" lon="3.33905">
        <ele>1138.8</ele>
        <time>2022-06-08T10:50:44Z</time>
      </trkpt>
      <trkpt lat="44.93573" lon="3.33899">
        <ele>1138.9</ele>
        <time>2022-06-08T10:50:49Z</time>
      </trkpt>
      <trkpt lat="44.93576" lon="3.33894">
        <ele>1139.9</ele>
        <time>2022-06-08T10:50:54Z</time>
      </trkpt>
      <trkpt lat="44.9358" lon="3.3389">
        <ele>1141.7</ele>
        <time>2022-06-08T10:51:02Z</time>
      </trkpt>
      <trkpt lat="44.93585" lon="3.33887">
        <ele>1140.6</ele>
        <time>2022-06-08T10:51:07Z</time>
      </trkpt>
      <trkpt lat="44.93589" lon="3.33883">
        <ele>1141.4</ele>
        <time>2022-06-08T10:51:11Z</time>
      </trkpt>
      <trkpt lat="44.93592" lon="3.33877">
        <ele>1142.4</ele>
        <time>2022-06-08T10:51:20Z</time>
      </trkpt>
      <trkpt lat="44.93595" lon="3.33871">
        <ele>1143.5</ele>
        <time>2022-06-08T10:51:25Z</time>
      </trkpt>
      <trkpt lat="44.93599" lon="3.33866">
        <ele>1143.5</ele>
        <time>2022-06-08T10:51:29Z</time>
      </trkpt>
      <trkpt lat="44.93602" lon="3.3386">
        <ele>1143.1</ele>
        <time>2022-06-08T10:51:33Z</time>
      </trkpt>
      <trkpt lat="44.93604" lon="3.33854">
        <ele>1142.8</ele>
        <time>2022-06-08T10:51:37Z</time>
      </trkpt>
      <trkpt lat="44.93604" lon="3.33846">
        <ele>1141.8</ele>
        <time>2022-06-08T10:51:41Z</time>
      </trkpt>
      <trkpt lat="44.93603" lon="3.3384">
        <ele>1142.2</ele>
        <time>2022-06-08T10:51:50Z</time>
      </trkpt>
      <trkpt lat="44.93604" lon="3.33832">
        <ele>1141</ele>
        <time>2022-06-08T10:51:54Z</time>
      </trkpt>
      <trkpt lat="44.93606" lon="3.33826">
        <ele>1139.9</ele>
        <time>2022-06-08T10:51:58Z</time>
      </trkpt>
      <trkpt lat="44.93607" lon="3.33819">
        <ele>1138.3</ele>
        <time>2022-06-08T10:52:08Z</time>
      </trkpt>
      <trkpt lat="44.93606" lon="3.33812">
        <ele>1137.6</ele>
        <time>2022-06-08T10:52:13Z</time>
      </trkpt>
      <trkpt lat="44.93606" lon="3.33805">
        <ele>1136.7</ele>
        <time>2022-06-08T10:52:17Z</time>
      </trkpt>
      <trkpt lat="44.93606" lon="3.33798">
        <ele>1134.8</ele>
        <time>2022-06-08T10:52:21Z</time>
      </trkpt>
      <trkpt lat="44.93608" lon="3.33791">
        <ele>1133.5</ele>
        <time>2022-06-08T10:52:25Z</time>
      </trkpt>
      <trkpt lat="44.9361" lon="3.33784">
        <ele>1131.6</ele>
        <time>2022-06-08T10:52:29Z</time>
      </trkpt>
      <trkpt lat="44.93611" lon="3.33778">
        <ele>1130</ele>
        <time>2022-06-08T10:52:33Z</time>
      </trkpt>
      <trkpt lat="44.93612" lon="3.33771">
        <ele>1127.2</ele>
        <time>2022-06-08T10:52:38Z</time>
      </trkpt>
      <trkpt lat="44.93611" lon="3.33763">
        <ele>1126.7</ele>
        <time>2022-06-08T10:52:43Z</time>
      </trkpt>
      <trkpt lat="44.93612" lon="3.33756">
        <ele>1125.7</ele>
        <time>2022-06-08T10:52:48Z</time>
      </trkpt>
      <trkpt lat="44.93612" lon="3.33749">
        <ele>1125.7</ele>
        <time>2022-06-08T10:52:53Z</time>
      </trkpt>
      <trkpt lat="44.93612" lon="3.33742">
        <ele>1126.2</ele>
        <time>2022-06-08T10:53:03Z</time>
      </trkpt>
      <trkpt lat="44.93612" lon="3.33735">
        <ele>1126.7</ele>
        <time>2022-06-08T10:53:08Z</time>
      </trkpt>
      <trkpt lat="44.93612" lon="3.33727">
        <ele>1127.4</ele>
        <time>2022-06-08T10:53:13Z</time>
      </trkpt>
      <trkpt lat="44.93612" lon="3.3372">
        <ele>1126.9</ele>
        <time>2022-06-08T10:53:18Z</time>
      </trkpt>
      <trkpt lat="44.93615" lon="3.33715">
        <ele>1128.4</ele>
        <time>2022-06-08T10:53:32Z</time>
      </trkpt>
      <trkpt lat="44.93619" lon="3.33711">
        <ele>1128</ele>
        <time>2022-06-08T10:53:37Z</time>
      </trkpt>
      <trkpt lat="44.93624" lon="3.33708">
        <ele>1127.8</ele>
        <time>2022-06-08T10:53:43Z</time>
      </trkpt>
      <trkpt lat="44.93629" lon="3.33705">
        <ele>1127.3</ele>
        <time>2022-06-08T10:53:48Z</time>
      </trkpt>
      <trkpt lat="44.93633" lon="3.33701">
        <ele>1127.3</ele>
        <time>2022-06-08T10:53:52Z</time>
      </trkpt>
      <trkpt lat="44.93638" lon="3.33697">
        <ele>1128.3</ele>
        <time>2022-06-08T10:53:57Z</time>
      </trkpt>
      <trkpt lat="44.93643" lon="3.33694">
        <ele>1128</ele>
        <time>2022-06-08T10:54:02Z</time>
      </trkpt>
      <trkpt lat="44.93647" lon="3.33692">
        <ele>1127.6</ele>
        <time>2022-06-08T10:54:07Z</time>
      </trkpt>
      <trkpt lat="44.93652" lon="3.3369">
        <ele>1127.7</ele>
        <time>2022-06-08T10:54:12Z</time>
      </trkpt>
      <trkpt lat="44.93657" lon="3.33689">
        <ele>1127</ele>
        <time>2022-06-08T10:54:17Z</time>
      </trkpt>
      <trkpt lat="44.93662" lon="3.33689">
        <ele>1126.1</ele>
        <time>2022-06-08T10:54:21Z</time>
      </trkpt>
      <trkpt lat="44.93667" lon="3.33687">
        <ele>1124.5</ele>
        <time>2022-06-08T10:54:26Z</time>
      </trkpt>
      <trkpt lat="44.93673" lon="3.33685">
        <ele>1123.4</ele>
        <time>2022-06-08T10:54:31Z</time>
      </trkpt>
      <trkpt lat="44.93676" lon="3.33682">
        <ele>1123.1</ele>
        <time>2022-06-08T10:54:36Z</time>
      </trkpt>
      <trkpt lat="44.93681" lon="3.33678">
        <ele>1123.6</ele>
        <time>2022-06-08T10:54:41Z</time>
      </trkpt>
      <trkpt lat="44.93685" lon="3.33677">
        <ele>1124.6</ele>
        <time>2022-06-08T10:54:49Z</time>
      </trkpt>
      <trkpt lat="44.9369" lon="3.33674">
        <ele>1126.7</ele>
        <time>2022-06-08T10:54:58Z</time>
      </trkpt>
      <trkpt lat="44.93694" lon="3.33671">
        <ele>1127.7</ele>
        <time>2022-06-08T10:55:04Z</time>
      </trkpt>
      <trkpt lat="44.93699" lon="3.33667">
        <ele>1129.2</ele>
        <time>2022-06-08T10:55:09Z</time>
      </trkpt>
      <trkpt lat="44.93703" lon="3.33662">
        <ele>1130.5</ele>
        <time>2022-06-08T10:55:14Z</time>
      </trkpt>
      <trkpt lat="44.93707" lon="3.33657">
        <ele>1130.8</ele>
        <time>2022-06-08T10:55:19Z</time>
      </trkpt>
      <trkpt lat="44.93711" lon="3.33653">
        <ele>1130.6</ele>
        <time>2022-06-08T10:55:24Z</time>
      </trkpt>
      <trkpt lat="44.93715" lon="3.33649">
        <ele>1131</ele>
        <time>2022-06-08T10:55:29Z</time>
      </trkpt>
      <trkpt lat="44.93719" lon="3.33645">
        <ele>1131.2</ele>
        <time>2022-06-08T10:55:33Z</time>
      </trkpt>
      <trkpt lat="44.93722" lon="3.33642">
        <ele>1131.4</ele>
        <time>2022-06-08T10:55:37Z</time>
      </trkpt>
      <trkpt lat="44.93726" lon="3.33637">
        <ele>1131.9</ele>
        <time>2022-06-08T10:55:42Z</time>
      </trkpt>
      <trkpt lat="44.9373" lon="3.33632">
        <ele>1130.9</ele>
        <time>2022-06-08T10:55:47Z</time>
      </trkpt>
      <trkpt lat="44.93734" lon="3.33627">
        <ele>1130.7</ele>
        <time>2022-06-08T10:55:51Z</time>
      </trkpt>
      <trkpt lat="44.93738" lon="3.33624">
        <ele>1130.7</ele>
        <time>2022-06-08T10:55:55Z</time>
      </trkpt>
      <trkpt lat="44.93741" lon="3.33618">
        <ele>1130.3</ele>
        <time>2022-06-08T10:56:00Z</time>
      </trkpt>
      <trkpt lat="44.93744" lon="3.33613">
        <ele>1129.7</ele>
        <time>2022-06-08T10:56:16Z</time>
      </trkpt>
      <trkpt lat="44.93748" lon="3.3361">
        <ele>1129.7</ele>
        <time>2022-06-08T10:56:20Z</time>
      </trkpt>
      <trkpt lat="44.93752" lon="3.33606">
        <ele>1129.3</ele>
        <time>2022-06-08T10:56:24Z</time>
      </trkpt>
      <trkpt lat="44.93755" lon="3.33602">
        <ele>1129.5</ele>
        <time>2022-06-08T10:56:28Z</time>
      </trkpt>
      <trkpt lat="44.93759" lon="3.33597">
        <ele>1130</ele>
        <time>2022-06-08T10:56:32Z</time>
      </trkpt>
      <trkpt lat="44.93761" lon="3.33591">
        <ele>1130.1</ele>
        <time>2022-06-08T10:56:36Z</time>
      </trkpt>
      <trkpt lat="44.93764" lon="3.33586">
        <ele>1130.5</ele>
        <time>2022-06-08T10:56:40Z</time>
      </trkpt>
      <trkpt lat="44.93768" lon="3.3358">
        <ele>1130.2</ele>
        <time>2022-06-08T10:56:44Z</time>
      </trkpt>
      <trkpt lat="44.93771" lon="3.33575">
        <ele>1130.2</ele>
        <time>2022-06-08T10:56:48Z</time>
      </trkpt>
      <trkpt lat="44.93774" lon="3.3357">
        <ele>1130.2</ele>
        <time>2022-06-08T10:57:02Z</time>
      </trkpt>
      <trkpt lat="44.93776" lon="3.33564">
        <ele>1130.3</ele>
        <time>2022-06-08T10:57:06Z</time>
      </trkpt>
      <trkpt lat="44.9378" lon="3.33558">
        <ele>1130.5</ele>
        <time>2022-06-08T10:57:10Z</time>
      </trkpt>
      <trkpt lat="44.93783" lon="3.33554">
        <ele>1130.3</ele>
        <time>2022-06-08T10:57:14Z</time>
      </trkpt>
      <trkpt lat="44.93787" lon="3.33547">
        <ele>1129.4</ele>
        <time>2022-06-08T10:57:19Z</time>
      </trkpt>
      <trkpt lat="44.9379" lon="3.33542">
        <ele>1128.7</ele>
        <time>2022-06-08T10:57:23Z</time>
      </trkpt>
      <trkpt lat="44.93793" lon="3.33537">
        <ele>1128.7</ele>
        <time>2022-06-08T10:57:27Z</time>
      </trkpt>
      <trkpt lat="44.93797" lon="3.33532">
        <ele>1128.7</ele>
        <time>2022-06-08T10:57:39Z</time>
      </trkpt>
      <trkpt lat="44.938" lon="3.33526">
        <ele>1128</ele>
        <time>2022-06-08T10:57:45Z</time>
      </trkpt>
      <trkpt lat="44.93804" lon="3.33522">
        <ele>1127.5</ele>
        <time>2022-06-08T10:57:49Z</time>
      </trkpt>
      <trkpt lat="44.93807" lon="3.33516">
        <ele>1127.6</ele>
        <time>2022-06-08T10:57:54Z</time>
      </trkpt>
      <trkpt lat="44.93811" lon="3.33512">
        <ele>1128.3</ele>
        <time>2022-06-08T10:57:59Z</time>
      </trkpt>
      <trkpt lat="44.93815" lon="3.33508">
        <ele>1129.4</ele>
        <time>2022-06-08T10:58:04Z</time>
      </trkpt>
      <trkpt lat="44.93818" lon="3.33501">
        <ele>1130.2</ele>
        <time>2022-06-08T10:58:09Z</time>
      </trkpt>
      <trkpt lat="44.93819" lon="3.33494">
        <ele>1129.7</ele>
        <time>2022-06-08T10:58:14Z</time>
      </trkpt>
      <trkpt lat="44.9382" lon="3.33487">
        <ele>1129.3</ele>
        <time>2022-06-08T10:58:18Z</time>
      </trkpt>
      <trkpt lat="44.93822" lon="3.33481">
        <ele>1129.3</ele>
        <time>2022-06-08T10:58:22Z</time>
      </trkpt>
      <trkpt lat="44.93824" lon="3.33475">
        <ele>1128.3</ele>
        <time>2022-06-08T10:58:26Z</time>
      </trkpt>
      <trkpt lat="44.93825" lon="3.33468">
        <ele>1126.6</ele>
        <time>2022-06-08T10:58:32Z</time>
      </trkpt>
      <trkpt lat="44.93826" lon="3.33461">
        <ele>1126.1</ele>
        <time>2022-06-08T10:58:54Z</time>
      </trkpt>
      <trkpt lat="44.93828" lon="3.33454">
        <ele>1126.5</ele>
        <time>2022-06-08T10:58:59Z</time>
      </trkpt>
      <trkpt lat="44.93829" lon="3.33447">
        <ele>1126.7</ele>
        <time>2022-06-08T10:59:04Z</time>
      </trkpt>
      <trkpt lat="44.9383" lon="3.33441">
        <ele>1127.1</ele>
        <time>2022-06-08T10:59:08Z</time>
      </trkpt>
      <trkpt lat="44.93832" lon="3.33434">
        <ele>1126.6</ele>
        <time>2022-06-08T10:59:12Z</time>
      </trkpt>
      <trkpt lat="44.93833" lon="3.33427">
        <ele>1126.8</ele>
        <time>2022-06-08T10:59:16Z</time>
      </trkpt>
      <trkpt lat="44.93834" lon="3.3342">
        <ele>1127</ele>
        <time>2022-06-08T10:59:20Z</time>
      </trkpt>
      <trkpt lat="44.93834" lon="3.33414">
        <ele>1127.7</ele>
        <time>2022-06-08T10:59:24Z</time>
      </trkpt>
      <trkpt lat="44.93835" lon="3.33407">
        <ele>1127.7</ele>
        <time>2022-06-08T10:59:28Z</time>
      </trkpt>
      <trkpt lat="44.93837" lon="3.33402">
        <ele>1127.6</ele>
        <time>2022-06-08T10:59:32Z</time>
      </trkpt>
      <trkpt lat="44.93838" lon="3.33395">
        <ele>1127.2</ele>
        <time>2022-06-08T10:59:36Z</time>
      </trkpt>
      <trkpt lat="44.9384" lon="3.33388">
        <ele>1127.2</ele>
        <time>2022-06-08T10:59:40Z</time>
      </trkpt>
      <trkpt lat="44.93843" lon="3.3338">
        <ele>1127.5</ele>
        <time>2022-06-08T10:59:44Z</time>
      </trkpt>
      <trkpt lat="44.93845" lon="3.33373">
        <ele>1127</ele>
        <time>2022-06-08T10:59:48Z</time>
      </trkpt>
      <trkpt lat="44.93848" lon="3.33367">
        <ele>1127.2</ele>
        <time>2022-06-08T10:59:52Z</time>
      </trkpt>
      <trkpt lat="44.9385" lon="3.33361">
        <ele>1126.4</ele>
        <time>2022-06-08T10:59:56Z</time>
      </trkpt>
      <trkpt lat="44.93853" lon="3.33356">
        <ele>1126</ele>
        <time>2022-06-08T11:00:01Z</time>
      </trkpt>
      <trkpt lat="44.93856" lon="3.33351">
        <ele>1125.8</ele>
        <time>2022-06-08T11:00:05Z</time>
      </trkpt>
      <trkpt lat="44.93859" lon="3.33345">
        <ele>1126.2</ele>
        <time>2022-06-08T11:00:10Z</time>
      </trkpt>
      <trkpt lat="44.93862" lon="3.33339">
        <ele>1126.5</ele>
        <time>2022-06-08T11:00:15Z</time>
      </trkpt>
      <trkpt lat="44.93864" lon="3.33332">
        <ele>1126.4</ele>
        <time>2022-06-08T11:00:20Z</time>
      </trkpt>
      <trkpt lat="44.93867" lon="3.33327">
        <ele>1126.4</ele>
        <time>2022-06-08T11:00:24Z</time>
      </trkpt>
      <trkpt lat="44.93869" lon="3.33321">
        <ele>1126.1</ele>
        <time>2022-06-08T11:00:28Z</time>
      </trkpt>
      <trkpt lat="44.93872" lon="3.33316">
        <ele>1125.8</ele>
        <time>2022-06-08T11:00:32Z</time>
      </trkpt>
      <trkpt lat="44.93875" lon="3.3331">
        <ele>1125.6</ele>
        <time>2022-06-08T11:00:37Z</time>
      </trkpt>
      <trkpt lat="44.93877" lon="3.33303">
        <ele>1124.9</ele>
        <time>2022-06-08T11:00:42Z</time>
      </trkpt>
      <trkpt lat="44.9388" lon="3.33297">
        <ele>1124.5</ele>
        <time>2022-06-08T11:00:46Z</time>
      </trkpt>
      <trkpt lat="44.93882" lon="3.3329">
        <ele>1124</ele>
        <time>2022-06-08T11:00:50Z</time>
      </trkpt>
      <trkpt lat="44.93884" lon="3.33284">
        <ele>1123.8</ele>
        <time>2022-06-08T11:00:54Z</time>
      </trkpt>
      <trkpt lat="44.93886" lon="3.33278">
        <ele>1123.5</ele>
        <time>2022-06-08T11:00:58Z</time>
      </trkpt>
      <trkpt lat="44.93887" lon="3.3327">
        <ele>1123.3</ele>
        <time>2022-06-08T11:01:03Z</time>
      </trkpt>
      <trkpt lat="44.93889" lon="3.33263">
        <ele>1122.9</ele>
        <time>2022-06-08T11:01:08Z</time>
      </trkpt>
      <trkpt lat="44.93891" lon="3.33256">
        <ele>1122.2</ele>
        <time>2022-06-08T11:01:18Z</time>
      </trkpt>
      <trkpt lat="44.93893" lon="3.3325">
        <ele>1122.7</ele>
        <time>2022-06-08T11:01:22Z</time>
      </trkpt>
      <trkpt lat="44.93896" lon="3.33244">
        <ele>1123</ele>
        <time>2022-06-08T11:01:27Z</time>
      </trkpt>
      <trkpt lat="44.93899" lon="3.33238">
        <ele>1122.8</ele>
        <time>2022-06-08T11:01:32Z</time>
      </trkpt>
      <trkpt lat="44.93903" lon="3.33234">
        <ele>1122.6</ele>
        <time>2022-06-08T11:01:36Z</time>
      </trkpt>
      <trkpt lat="44.93908" lon="3.33231">
        <ele>1122.4</ele>
        <time>2022-06-08T11:01:41Z</time>
      </trkpt>
      <trkpt lat="44.93911" lon="3.33235">
        <ele>1122.6</ele>
        <time>2022-06-08T11:02:36Z</time>
      </trkpt>
      <trkpt lat="44.93914" lon="3.3324">
        <ele>1123</ele>
        <time>2022-06-08T11:02:41Z</time>
      </trkpt>
      <trkpt lat="44.93919" lon="3.33242">
        <ele>1123.3</ele>
        <time>2022-06-08T11:02:46Z</time>
      </trkpt>
      <trkpt lat="44.93923" lon="3.33241">
        <ele>1120.9</ele>
        <time>2022-06-08T11:03:03Z</time>
      </trkpt>
      <trkpt lat="44.93928" lon="3.3324">
        <ele>1116.6</ele>
        <time>2022-06-08T11:03:22Z</time>
      </trkpt>
      <trkpt lat="44.93924" lon="3.33242">
        <ele>1119.4</ele>
        <time>2022-06-08T11:04:51Z</time>
      </trkpt>
      <trkpt lat="44.93919" lon="3.33241">
        <ele>1119.4</ele>
        <time>2022-06-08T11:04:56Z</time>
      </trkpt>
      <trkpt lat="44.93915" lon="3.33236">
        <ele>1119.5</ele>
        <time>2022-06-08T11:05:22Z</time>
      </trkpt>
      <trkpt lat="44.93911" lon="3.33233">
        <ele>1118.7</ele>
        <time>2022-06-08T11:05:41Z</time>
      </trkpt>
      <trkpt lat="44.93914" lon="3.33237">
        <ele>1118.2</ele>
        <time>2022-06-08T11:06:02Z</time>
      </trkpt>
      <trkpt lat="44.93919" lon="3.3324">
        <ele>1119.8</ele>
        <time>2022-06-08T11:06:27Z</time>
      </trkpt>
      <trkpt lat="44.93923" lon="3.33243">
        <ele>1119.5</ele>
        <time>2022-06-08T11:06:31Z</time>
      </trkpt>
      <trkpt lat="44.93928" lon="3.33243">
        <ele>1119.3</ele>
        <time>2022-06-08T11:06:41Z</time>
      </trkpt>
      <trkpt lat="44.93925" lon="3.33248">
        <ele>1121.1</ele>
        <time>2022-06-08T11:42:03Z</time>
      </trkpt>
      <trkpt lat="44.93919" lon="3.33247">
        <ele>1120</ele>
        <time>2022-06-08T11:42:09Z</time>
      </trkpt>
      <trkpt lat="44.93915" lon="3.33244">
        <ele>1117.7</ele>
        <time>2022-06-08T11:42:15Z</time>
      </trkpt>
      <trkpt lat="44.9391" lon="3.33242">
        <ele>1116.8</ele>
        <time>2022-06-08T11:42:20Z</time>
      </trkpt>
      <trkpt lat="44.93906" lon="3.33239">
        <ele>1113.9</ele>
        <time>2022-06-08T11:42:35Z</time>
      </trkpt>
      <trkpt lat="44.93903" lon="3.33235">
        <ele>1113.4</ele>
        <time>2022-06-08T11:42:57Z</time>
      </trkpt>
      <trkpt lat="44.93899" lon="3.3323">
        <ele>1114.1</ele>
        <time>2022-06-08T11:43:04Z</time>
      </trkpt>
      <trkpt lat="44.93893" lon="3.33228">
        <ele>1114.3</ele>
        <time>2022-06-08T11:43:08Z</time>
      </trkpt>
      <trkpt lat="44.93887" lon="3.33226">
        <ele>1115</ele>
        <time>2022-06-08T11:43:12Z</time>
      </trkpt>
      <trkpt lat="44.93882" lon="3.33224">
        <ele>1115.4</ele>
        <time>2022-06-08T11:43:16Z</time>
      </trkpt>
      <trkpt lat="44.93877" lon="3.33221">
        <ele>1115.8</ele>
        <time>2022-06-08T11:43:20Z</time>
      </trkpt>
      <trkpt lat="44.93872" lon="3.33218">
        <ele>1115.8</ele>
        <time>2022-06-08T11:43:24Z</time>
      </trkpt>
      <trkpt lat="44.93867" lon="3.33215">
        <ele>1115.8</ele>
        <time>2022-06-08T11:43:28Z</time>
      </trkpt>
      <trkpt lat="44.93862" lon="3.33212">
        <ele>1115.7</ele>
        <time>2022-06-08T11:43:32Z</time>
      </trkpt>
      <trkpt lat="44.93857" lon="3.33209">
        <ele>1115.7</ele>
        <time>2022-06-08T11:43:36Z</time>
      </trkpt>
      <trkpt lat="44.93853" lon="3.33206">
        <ele>1115.5</ele>
        <time>2022-06-08T11:43:41Z</time>
      </trkpt>
      <trkpt lat="44.93849" lon="3.33203">
        <ele>1115.4</ele>
        <time>2022-06-08T11:43:47Z</time>
      </trkpt>
      <trkpt lat="44.93844" lon="3.332">
        <ele>1115.5</ele>
        <time>2022-06-08T11:43:52Z</time>
      </trkpt>
      <trkpt lat="44.93839" lon="3.33198">
        <ele>1115.1</ele>
        <time>2022-06-08T11:43:57Z</time>
      </trkpt>
      <trkpt lat="44.93835" lon="3.33197">
        <ele>1114.7</ele>
        <time>2022-06-08T11:44:01Z</time>
      </trkpt>
      <trkpt lat="44.93829" lon="3.33194">
        <ele>1114.3</ele>
        <time>2022-06-08T11:44:06Z</time>
      </trkpt>
      <trkpt lat="44.93825" lon="3.33194">
        <ele>1113.5</ele>
        <time>2022-06-08T11:44:11Z</time>
      </trkpt>
      <trkpt lat="44.9382" lon="3.33193">
        <ele>1112.7</ele>
        <time>2022-06-08T11:44:15Z</time>
      </trkpt>
      <trkpt lat="44.93816" lon="3.3319">
        <ele>1112.3</ele>
        <time>2022-06-08T11:44:19Z</time>
      </trkpt>
      <trkpt lat="44.93811" lon="3.33189">
        <ele>1111.7</ele>
        <time>2022-06-08T11:44:23Z</time>
      </trkpt>
      <trkpt lat="44.93805" lon="3.33187">
        <ele>1111.6</ele>
        <time>2022-06-08T11:44:28Z</time>
      </trkpt>
      <trkpt lat="44.93801" lon="3.33185">
        <ele>1111.8</ele>
        <time>2022-06-08T11:44:33Z</time>
      </trkpt>
      <trkpt lat="44.93796" lon="3.33185">
        <ele>1111.6</ele>
        <time>2022-06-08T11:44:37Z</time>
      </trkpt>
      <trkpt lat="44.9379" lon="3.33184">
        <ele>1111</ele>
        <time>2022-06-08T11:44:42Z</time>
      </trkpt>
      <trkpt lat="44.93785" lon="3.33182">
        <ele>1111.3</ele>
        <time>2022-06-08T11:44:47Z</time>
      </trkpt>
      <trkpt lat="44.93781" lon="3.33179">
        <ele>1112.5</ele>
        <time>2022-06-08T11:44:52Z</time>
      </trkpt>
      <trkpt lat="44.93776" lon="3.33176">
        <ele>1112.1</ele>
        <time>2022-06-08T11:44:57Z</time>
      </trkpt>
      <trkpt lat="44.93771" lon="3.33173">
        <ele>1111.8</ele>
        <time>2022-06-08T11:45:01Z</time>
      </trkpt>
      <trkpt lat="44.93765" lon="3.33171">
        <ele>1112</ele>
        <time>2022-06-08T11:45:05Z</time>
      </trkpt>
      <trkpt lat="44.93761" lon="3.3317">
        <ele>1112</ele>
        <time>2022-06-08T11:45:09Z</time>
      </trkpt>
      <trkpt lat="44.93756" lon="3.33168">
        <ele>1112.3</ele>
        <time>2022-06-08T11:45:13Z</time>
      </trkpt>
      <trkpt lat="44.93752" lon="3.33166">
        <ele>1112.5</ele>
        <time>2022-06-08T11:45:18Z</time>
      </trkpt>
      <trkpt lat="44.93746" lon="3.33164">
        <ele>1112.4</ele>
        <time>2022-06-08T11:45:23Z</time>
      </trkpt>
      <trkpt lat="44.93742" lon="3.33163">
        <ele>1112.3</ele>
        <time>2022-06-08T11:45:27Z</time>
      </trkpt>
      <trkpt lat="44.93737" lon="3.33164">
        <ele>1111.6</ele>
        <time>2022-06-08T11:45:31Z</time>
      </trkpt>
      <trkpt lat="44.93733" lon="3.33166">
        <ele>1110.8</ele>
        <time>2022-06-08T11:45:37Z</time>
      </trkpt>
      <trkpt lat="44.93728" lon="3.33164">
        <ele>1109.8</ele>
        <time>2022-06-08T11:45:46Z</time>
      </trkpt>
      <trkpt lat="44.93723" lon="3.33164">
        <ele>1109.6</ele>
        <time>2022-06-08T11:45:52Z</time>
      </trkpt>
      <trkpt lat="44.93719" lon="3.33162">
        <ele>1109.4</ele>
        <time>2022-06-08T11:46:02Z</time>
      </trkpt>
      <trkpt lat="44.93714" lon="3.33162">
        <ele>1109.4</ele>
        <time>2022-06-08T11:46:06Z</time>
      </trkpt>
      <trkpt lat="44.93709" lon="3.33163">
        <ele>1109.4</ele>
        <time>2022-06-08T11:46:10Z</time>
      </trkpt>
      <trkpt lat="44.93703" lon="3.33164">
        <ele>1109</ele>
        <time>2022-06-08T11:46:14Z</time>
      </trkpt>
      <trkpt lat="44.93698" lon="3.33165">
        <ele>1108.7</ele>
        <time>2022-06-08T11:46:18Z</time>
      </trkpt>
      <trkpt lat="44.93692" lon="3.33166">
        <ele>1108.2</ele>
        <time>2022-06-08T11:46:22Z</time>
      </trkpt>
      <trkpt lat="44.93686" lon="3.33167">
        <ele>1108.3</ele>
        <time>2022-06-08T11:46:26Z</time>
      </trkpt>
      <trkpt lat="44.93682" lon="3.33167">
        <ele>1107.9</ele>
        <time>2022-06-08T11:46:29Z</time>
      </trkpt>
      <trkpt lat="44.93677" lon="3.33167">
        <ele>1106.5</ele>
        <time>2022-06-08T11:46:33Z</time>
      </trkpt>
      <trkpt lat="44.93672" lon="3.33168">
        <ele>1105.8</ele>
        <time>2022-06-08T11:46:48Z</time>
      </trkpt>
      <trkpt lat="44.93667" lon="3.33167">
        <ele>1105.4</ele>
        <time>2022-06-08T11:46:52Z</time>
      </trkpt>
      <trkpt lat="44.93662" lon="3.33166">
        <ele>1103.7</ele>
        <time>2022-06-08T11:46:56Z</time>
      </trkpt>
      <trkpt lat="44.93657" lon="3.33166">
        <ele>1102.5</ele>
        <time>2022-06-08T11:47:00Z</time>
      </trkpt>
      <trkpt lat="44.93652" lon="3.33166">
        <ele>1102.9</ele>
        <time>2022-06-08T11:47:05Z</time>
      </trkpt>
      <trkpt lat="44.93647" lon="3.33168">
        <ele>1103</ele>
        <time>2022-06-08T11:47:09Z</time>
      </trkpt>
      <trkpt lat="44.93643" lon="3.3317">
        <ele>1103.3</ele>
        <time>2022-06-08T11:47:14Z</time>
      </trkpt>
      <trkpt lat="44.93638" lon="3.33171">
        <ele>1104.2</ele>
        <time>2022-06-08T11:47:18Z</time>
      </trkpt>
      <trkpt lat="44.93633" lon="3.33171">
        <ele>1104.7</ele>
        <time>2022-06-08T11:47:22Z</time>
      </trkpt>
      <trkpt lat="44.93627" lon="3.33172">
        <ele>1104.5</ele>
        <time>2022-06-08T11:47:26Z</time>
      </trkpt>
      <trkpt lat="44.93622" lon="3.33173">
        <ele>1104.3</ele>
        <time>2022-06-08T11:47:31Z</time>
      </trkpt>
      <trkpt lat="44.93617" lon="3.33175">
        <ele>1104.4</ele>
        <time>2022-06-08T11:47:35Z</time>
      </trkpt>
      <trkpt lat="44.93611" lon="3.33177">
        <ele>1103.9</ele>
        <time>2022-06-08T11:47:39Z</time>
      </trkpt>
      <trkpt lat="44.93606" lon="3.33177">
        <ele>1103.6</ele>
        <time>2022-06-08T11:47:43Z</time>
      </trkpt>
      <trkpt lat="44.93601" lon="3.33175">
        <ele>1102.2</ele>
        <time>2022-06-08T11:47:51Z</time>
      </trkpt>
      <trkpt lat="44.93596" lon="3.33177">
        <ele>1103.8</ele>
        <time>2022-06-08T11:47:56Z</time>
      </trkpt>
      <trkpt lat="44.93592" lon="3.33177">
        <ele>1105.4</ele>
        <time>2022-06-08T11:48:00Z</time>
      </trkpt>
      <trkpt lat="44.93586" lon="3.33177">
        <ele>1106.4</ele>
        <time>2022-06-08T11:48:05Z</time>
      </trkpt>
      <trkpt lat="44.93582" lon="3.33178">
        <ele>1106.1</ele>
        <time>2022-06-08T11:48:09Z</time>
      </trkpt>
      <trkpt lat="44.93577" lon="3.3318">
        <ele>1105.6</ele>
        <time>2022-06-08T11:48:14Z</time>
      </trkpt>
      <trkpt lat="44.93572" lon="3.33178">
        <ele>1105.5</ele>
        <time>2022-06-08T11:48:23Z</time>
      </trkpt>
      <trkpt lat="44.93567" lon="3.33179">
        <ele>1106.6</ele>
        <time>2022-06-08T11:48:28Z</time>
      </trkpt>
      <trkpt lat="44.93563" lon="3.3318">
        <ele>1106.6</ele>
        <time>2022-06-08T11:48:32Z</time>
      </trkpt>
      <trkpt lat="44.93558" lon="3.3318">
        <ele>1106.7</ele>
        <time>2022-06-08T11:48:36Z</time>
      </trkpt>
      <trkpt lat="44.93553" lon="3.33182">
        <ele>1104.1</ele>
        <time>2022-06-08T11:48:47Z</time>
      </trkpt>
      <trkpt lat="44.93548" lon="3.33182">
        <ele>1103.6</ele>
        <time>2022-06-08T11:48:51Z</time>
      </trkpt>
      <trkpt lat="44.93543" lon="3.33181">
        <ele>1102.5</ele>
        <time>2022-06-08T11:48:55Z</time>
      </trkpt>
      <trkpt lat="44.93538" lon="3.3318">
        <ele>1101.4</ele>
        <time>2022-06-08T11:49:00Z</time>
      </trkpt>
      <trkpt lat="44.93533" lon="3.3318">
        <ele>1101.5</ele>
        <time>2022-06-08T11:49:04Z</time>
      </trkpt>
      <trkpt lat="44.93529" lon="3.3318">
        <ele>1101.8</ele>
        <time>2022-06-08T11:49:08Z</time>
      </trkpt>
      <trkpt lat="44.93524" lon="3.33179">
        <ele>1101.7</ele>
        <time>2022-06-08T11:49:12Z</time>
      </trkpt>
      <trkpt lat="44.93519" lon="3.33179">
        <ele>1101.5</ele>
        <time>2022-06-08T11:49:16Z</time>
      </trkpt>
      <trkpt lat="44.93514" lon="3.33179">
        <ele>1101.9</ele>
        <time>2022-06-08T11:49:22Z</time>
      </trkpt>
      <trkpt lat="44.93508" lon="3.33179">
        <ele>1101.8</ele>
        <time>2022-06-08T11:49:29Z</time>
      </trkpt>
      <trkpt lat="44.93503" lon="3.33178">
        <ele>1101.6</ele>
        <time>2022-06-08T11:49:33Z</time>
      </trkpt>
      <trkpt lat="44.93498" lon="3.33177">
        <ele>1101.4</ele>
        <time>2022-06-08T11:49:37Z</time>
      </trkpt>
      <trkpt lat="44.93493" lon="3.33175">
        <ele>1100.7</ele>
        <time>2022-06-08T11:49:41Z</time>
      </trkpt>
      <trkpt lat="44.93488" lon="3.33174">
        <ele>1099.7</ele>
        <time>2022-06-08T11:49:46Z</time>
      </trkpt>
      <trkpt lat="44.93483" lon="3.33173">
        <ele>1099.1</ele>
        <time>2022-06-08T11:49:52Z</time>
      </trkpt>
      <trkpt lat="44.93478" lon="3.33171">
        <ele>1099.1</ele>
        <time>2022-06-08T11:49:57Z</time>
      </trkpt>
      <trkpt lat="44.93473" lon="3.33169">
        <ele>1099.4</ele>
        <time>2022-06-08T11:50:01Z</time>
      </trkpt>
      <trkpt lat="44.93468" lon="3.33168">
        <ele>1099.6</ele>
        <time>2022-06-08T11:50:05Z</time>
      </trkpt>
      <trkpt lat="44.93464" lon="3.33167">
        <ele>1099.4</ele>
        <time>2022-06-08T11:50:09Z</time>
      </trkpt>
      <trkpt lat="44.93459" lon="3.33166">
        <ele>1098.4</ele>
        <time>2022-06-08T11:50:14Z</time>
      </trkpt>
      <trkpt lat="44.93454" lon="3.33165">
        <ele>1096.8</ele>
        <time>2022-06-08T11:50:21Z</time>
      </trkpt>
      <trkpt lat="44.93449" lon="3.33162">
        <ele>1095.4</ele>
        <time>2022-06-08T11:50:26Z</time>
      </trkpt>
      <trkpt lat="44.93444" lon="3.3316">
        <ele>1093.7</ele>
        <time>2022-06-08T11:50:30Z</time>
      </trkpt>
      <trkpt lat="44.9344" lon="3.33156">
        <ele>1093.4</ele>
        <time>2022-06-08T11:50:34Z</time>
      </trkpt>
      <trkpt lat="44.93435" lon="3.33153">
        <ele>1093.7</ele>
        <time>2022-06-08T11:50:42Z</time>
      </trkpt>
      <trkpt lat="44.93431" lon="3.3315">
        <ele>1093.2</ele>
        <time>2022-06-08T11:50:47Z</time>
      </trkpt>
      <trkpt lat="44.93426" lon="3.33147">
        <ele>1092.5</ele>
        <time>2022-06-08T11:50:52Z</time>
      </trkpt>
      <trkpt lat="44.93421" lon="3.33145">
        <ele>1092</ele>
        <time>2022-06-08T11:51:03Z</time>
      </trkpt>
      <trkpt lat="44.93417" lon="3.33141">
        <ele>1092.7</ele>
        <time>2022-06-08T11:51:07Z</time>
      </trkpt>
      <trkpt lat="44.93412" lon="3.33139">
        <ele>1093.1</ele>
        <time>2022-06-08T11:51:11Z</time>
      </trkpt>
      <trkpt lat="44.93407" lon="3.33135">
        <ele>1092.7</ele>
        <time>2022-06-08T11:51:17Z</time>
      </trkpt>
      <trkpt lat="44.93403" lon="3.33131">
        <ele>1092.6</ele>
        <time>2022-06-08T11:51:21Z</time>
      </trkpt>
      <trkpt lat="44.93399" lon="3.33128">
        <ele>1092.4</ele>
        <time>2022-06-08T11:51:27Z</time>
      </trkpt>
      <trkpt lat="44.93395" lon="3.33124">
        <ele>1092.3</ele>
        <time>2022-06-08T11:51:32Z</time>
      </trkpt>
      <trkpt lat="44.9339" lon="3.3312">
        <ele>1092</ele>
        <time>2022-06-08T11:51:37Z</time>
      </trkpt>
      <trkpt lat="44.93386" lon="3.33115">
        <ele>1092.8</ele>
        <time>2022-06-08T11:51:42Z</time>
      </trkpt>
      <trkpt lat="44.93382" lon="3.33111">
        <ele>1093.1</ele>
        <time>2022-06-08T11:51:47Z</time>
      </trkpt>
      <trkpt lat="44.93378" lon="3.33106">
        <ele>1093</ele>
        <time>2022-06-08T11:51:52Z</time>
      </trkpt>
      <trkpt lat="44.93374" lon="3.33101">
        <ele>1092.7</ele>
        <time>2022-06-08T11:51:57Z</time>
      </trkpt>
      <trkpt lat="44.9337" lon="3.33096">
        <ele>1092.7</ele>
        <time>2022-06-08T11:52:02Z</time>
      </trkpt>
      <trkpt lat="44.93367" lon="3.33092">
        <ele>1092.1</ele>
        <time>2022-06-08T11:52:07Z</time>
      </trkpt>
      <trkpt lat="44.93363" lon="3.33088">
        <ele>1090.8</ele>
        <time>2022-06-08T11:52:12Z</time>
      </trkpt>
      <trkpt lat="44.93358" lon="3.33084">
        <ele>1089.9</ele>
        <time>2022-06-08T11:52:33Z</time>
      </trkpt>
      <trkpt lat="44.93355" lon="3.33079">
        <ele>1089.2</ele>
        <time>2022-06-08T11:52:39Z</time>
      </trkpt>
      <trkpt lat="44.93351" lon="3.33074">
        <ele>1087.1</ele>
        <time>2022-06-08T11:52:44Z</time>
      </trkpt>
      <trkpt lat="44.93348" lon="3.33069">
        <ele>1086.2</ele>
        <time>2022-06-08T11:52:48Z</time>
      </trkpt>
      <trkpt lat="44.93345" lon="3.33064">
        <ele>1084.8</ele>
        <time>2022-06-08T11:52:53Z</time>
      </trkpt>
      <trkpt lat="44.93342" lon="3.33059">
        <ele>1088.3</ele>
        <time>2022-06-08T11:54:07Z</time>
      </trkpt>
      <trkpt lat="44.93339" lon="3.33053">
        <ele>1088.9</ele>
        <time>2022-06-08T11:54:12Z</time>
      </trkpt>
      <trkpt lat="44.93337" lon="3.33046">
        <ele>1089.6</ele>
        <time>2022-06-08T11:54:17Z</time>
      </trkpt>
      <trkpt lat="44.93335" lon="3.3304">
        <ele>1089.5</ele>
        <time>2022-06-08T11:54:22Z</time>
      </trkpt>
      <trkpt lat="44.93334" lon="3.33034">
        <ele>1088.5</ele>
        <time>2022-06-08T11:54:27Z</time>
      </trkpt>
      <trkpt lat="44.93331" lon="3.33027">
        <ele>1088.4</ele>
        <time>2022-06-08T11:54:32Z</time>
      </trkpt>
      <trkpt lat="44.93329" lon="3.33022">
        <ele>1088.2</ele>
        <time>2022-06-08T11:54:36Z</time>
      </trkpt>
      <trkpt lat="44.93326" lon="3.33016">
        <ele>1088.3</ele>
        <time>2022-06-08T11:54:45Z</time>
      </trkpt>
      <trkpt lat="44.93325" lon="3.33009">
        <ele>1087.8</ele>
        <time>2022-06-08T11:54:49Z</time>
      </trkpt>
      <trkpt lat="44.93324" lon="3.33002">
        <ele>1087.3</ele>
        <time>2022-06-08T11:54:53Z</time>
      </trkpt>
      <trkpt lat="44.93322" lon="3.32994">
        <ele>1087.3</ele>
        <time>2022-06-08T11:54:57Z</time>
      </trkpt>
      <trkpt lat="44.93321" lon="3.32987">
        <ele>1086.9</ele>
        <time>2022-06-08T11:55:01Z</time>
      </trkpt>
      <trkpt lat="44.93318" lon="3.32981">
        <ele>1086</ele>
        <time>2022-06-08T11:55:05Z</time>
      </trkpt>
      <trkpt lat="44.93317" lon="3.32975">
        <ele>1085.2</ele>
        <time>2022-06-08T11:55:09Z</time>
      </trkpt>
      <trkpt lat="44.93315" lon="3.32968">
        <ele>1083.4</ele>
        <time>2022-06-08T11:55:15Z</time>
      </trkpt>
      <trkpt lat="44.93313" lon="3.32962">
        <ele>1082.1</ele>
        <time>2022-06-08T11:55:20Z</time>
      </trkpt>
      <trkpt lat="44.93311" lon="3.32956">
        <ele>1081.1</ele>
        <time>2022-06-08T11:55:24Z</time>
      </trkpt>
      <trkpt lat="44.93309" lon="3.3295">
        <ele>1080.5</ele>
        <time>2022-06-08T11:55:28Z</time>
      </trkpt>
      <trkpt lat="44.93307" lon="3.32943">
        <ele>1079.3</ele>
        <time>2022-06-08T11:55:37Z</time>
      </trkpt>
      <trkpt lat="44.93305" lon="3.32937">
        <ele>1079.2</ele>
        <time>2022-06-08T11:55:45Z</time>
      </trkpt>
      <trkpt lat="44.93304" lon="3.32931">
        <ele>1078.3</ele>
        <time>2022-06-08T11:55:49Z</time>
      </trkpt>
      <trkpt lat="44.93301" lon="3.32924">
        <ele>1077.9</ele>
        <time>2022-06-08T11:55:58Z</time>
      </trkpt>
      <trkpt lat="44.93299" lon="3.32917">
        <ele>1077.5</ele>
        <time>2022-06-08T11:56:02Z</time>
      </trkpt>
      <trkpt lat="44.93297" lon="3.32911">
        <ele>1076.6</ele>
        <time>2022-06-08T11:56:05Z</time>
      </trkpt>
      <trkpt lat="44.93295" lon="3.32905">
        <ele>1075.4</ele>
        <time>2022-06-08T11:56:08Z</time>
      </trkpt>
      <trkpt lat="44.93292" lon="3.32898">
        <ele>1075</ele>
        <time>2022-06-08T11:56:12Z</time>
      </trkpt>
      <trkpt lat="44.9329" lon="3.32892">
        <ele>1075.3</ele>
        <time>2022-06-08T11:56:16Z</time>
      </trkpt>
      <trkpt lat="44.93287" lon="3.32886">
        <ele>1075.6</ele>
        <time>2022-06-08T11:56:20Z</time>
      </trkpt>
      <trkpt lat="44.93284" lon="3.3288">
        <ele>1075.9</ele>
        <time>2022-06-08T11:56:24Z</time>
      </trkpt>
      <trkpt lat="44.93281" lon="3.32873">
        <ele>1076.3</ele>
        <time>2022-06-08T11:56:28Z</time>
      </trkpt>
      <trkpt lat="44.93279" lon="3.32866">
        <ele>1076.1</ele>
        <time>2022-06-08T11:56:32Z</time>
      </trkpt>
      <trkpt lat="44.93277" lon="3.32859">
        <ele>1075.1</ele>
        <time>2022-06-08T11:56:38Z</time>
      </trkpt>
      <trkpt lat="44.93275" lon="3.32853">
        <ele>1074.3</ele>
        <time>2022-06-08T11:56:43Z</time>
      </trkpt>
      <trkpt lat="44.93274" lon="3.32846">
        <ele>1073.8</ele>
        <time>2022-06-08T11:56:50Z</time>
      </trkpt>
      <trkpt lat="44.93272" lon="3.3284">
        <ele>1074.1</ele>
        <time>2022-06-08T11:56:54Z</time>
      </trkpt>
      <trkpt lat="44.93269" lon="3.32834">
        <ele>1073.5</ele>
        <time>2022-06-08T11:56:59Z</time>
      </trkpt>
      <trkpt lat="44.93266" lon="3.32827">
        <ele>1073.9</ele>
        <time>2022-06-08T11:57:04Z</time>
      </trkpt>
      <trkpt lat="44.93264" lon="3.3282">
        <ele>1073.6</ele>
        <time>2022-06-08T11:57:09Z</time>
      </trkpt>
      <trkpt lat="44.93264" lon="3.32813">
        <ele>1073.6</ele>
        <time>2022-06-08T11:57:13Z</time>
      </trkpt>
      <trkpt lat="44.93262" lon="3.32807">
        <ele>1073.2</ele>
        <time>2022-06-08T11:57:18Z</time>
      </trkpt>
      <trkpt lat="44.9326" lon="3.328">
        <ele>1073.1</ele>
        <time>2022-06-08T11:57:24Z</time>
      </trkpt>
      <trkpt lat="44.93256" lon="3.32795">
        <ele>1073.2</ele>
        <time>2022-06-08T11:57:29Z</time>
      </trkpt>
      <trkpt lat="44.93253" lon="3.32791">
        <ele>1073.5</ele>
        <time>2022-06-08T11:57:34Z</time>
      </trkpt>
      <trkpt lat="44.9325" lon="3.32786">
        <ele>1074</ele>
        <time>2022-06-08T11:57:45Z</time>
      </trkpt>
      <trkpt lat="44.93245" lon="3.32787">
        <ele>1073.9</ele>
        <time>2022-06-08T11:57:50Z</time>
      </trkpt>
      <trkpt lat="44.93241" lon="3.32787">
        <ele>1074.1</ele>
        <time>2022-06-08T11:57:54Z</time>
      </trkpt>
      <trkpt lat="44.93236" lon="3.32786">
        <ele>1074.7</ele>
        <time>2022-06-08T11:57:58Z</time>
      </trkpt>
      <trkpt lat="44.93231" lon="3.32786">
        <ele>1074.4</ele>
        <time>2022-06-08T11:58:02Z</time>
      </trkpt>
      <trkpt lat="44.93227" lon="3.32785">
        <ele>1074.3</ele>
        <time>2022-06-08T11:58:07Z</time>
      </trkpt>
      <trkpt lat="44.93222" lon="3.32784">
        <ele>1074.6</ele>
        <time>2022-06-08T11:58:12Z</time>
      </trkpt>
      <trkpt lat="44.93217" lon="3.32782">
        <ele>1073.5</ele>
        <time>2022-06-08T11:58:17Z</time>
      </trkpt>
      <trkpt lat="44.93212" lon="3.3278">
        <ele>1071.3</ele>
        <time>2022-06-08T11:58:29Z</time>
      </trkpt>
      <trkpt lat="44.93206" lon="3.3278">
        <ele>1070.7</ele>
        <time>2022-06-08T11:58:33Z</time>
      </trkpt>
      <trkpt lat="44.93201" lon="3.32779">
        <ele>1069.3</ele>
        <time>2022-06-08T11:58:37Z</time>
      </trkpt>
      <trkpt lat="44.93196" lon="3.32779">
        <ele>1068.3</ele>
        <time>2022-06-08T11:58:42Z</time>
      </trkpt>
      <trkpt lat="44.9319" lon="3.32779">
        <ele>1066.6</ele>
        <time>2022-06-08T11:58:47Z</time>
      </trkpt>
      <trkpt lat="44.93185" lon="3.32779">
        <ele>1064.6</ele>
        <time>2022-06-08T11:58:51Z</time>
      </trkpt>
      <trkpt lat="44.9318" lon="3.32778">
        <ele>1063.8</ele>
        <time>2022-06-08T11:58:56Z</time>
      </trkpt>
      <trkpt lat="44.93175" lon="3.32777">
        <ele>1063.9</ele>
        <time>2022-06-08T11:59:07Z</time>
      </trkpt>
      <trkpt lat="44.93178" lon="3.32781">
        <ele>1065.3</ele>
        <time>2022-06-08T11:59:17Z</time>
      </trkpt>
      <trkpt lat="44.93183" lon="3.3278">
        <ele>1066.1</ele>
        <time>2022-06-08T11:59:21Z</time>
      </trkpt>
      <trkpt lat="44.93188" lon="3.32779">
        <ele>1066.8</ele>
        <time>2022-06-08T11:59:27Z</time>
      </trkpt>
      <trkpt lat="44.93193" lon="3.32779">
        <ele>1066.7</ele>
        <time>2022-06-08T11:59:32Z</time>
      </trkpt>
      <trkpt lat="44.93197" lon="3.32779">
        <ele>1067.1</ele>
        <time>2022-06-08T11:59:36Z</time>
      </trkpt>
      <trkpt lat="44.93202" lon="3.3278">
        <ele>1067.2</ele>
        <time>2022-06-08T11:59:41Z</time>
      </trkpt>
      <trkpt lat="44.93207" lon="3.32781">
        <ele>1068</ele>
        <time>2022-06-08T11:59:46Z</time>
      </trkpt>
      <trkpt lat="44.93212" lon="3.32782">
        <ele>1069.3</ele>
        <time>2022-06-08T11:59:51Z</time>
      </trkpt>
      <trkpt lat="44.93216" lon="3.32784">
        <ele>1070.7</ele>
        <time>2022-06-08T11:59:56Z</time>
      </trkpt>
      <trkpt lat="44.93221" lon="3.32785">
        <ele>1071.8</ele>
        <time>2022-06-08T12:00:01Z</time>
      </trkpt>
      <trkpt lat="44.93226" lon="3.32785">
        <ele>1072.1</ele>
        <time>2022-06-08T12:00:06Z</time>
      </trkpt>
      <trkpt lat="44.93231" lon="3.32785">
        <ele>1072.9</ele>
        <time>2022-06-08T12:00:11Z</time>
      </trkpt>
      <trkpt lat="44.93236" lon="3.32785">
        <ele>1073.5</ele>
        <time>2022-06-08T12:00:16Z</time>
      </trkpt>
      <trkpt lat="44.93241" lon="3.32785">
        <ele>1074.1</ele>
        <time>2022-06-08T12:00:21Z</time>
      </trkpt>
      <trkpt lat="44.93246" lon="3.32787">
        <ele>1074.5</ele>
        <time>2022-06-08T12:00:26Z</time>
      </trkpt>
      <trkpt lat="44.93251" lon="3.32788">
        <ele>1074.8</ele>
        <time>2022-06-08T12:00:31Z</time>
      </trkpt>
      <trkpt lat="44.93257" lon="3.32788">
        <ele>1074.5</ele>
        <time>2022-06-08T12:00:36Z</time>
      </trkpt>
      <trkpt lat="44.93261" lon="3.32789">
        <ele>1074.4</ele>
        <time>2022-06-08T12:00:42Z</time>
      </trkpt>
      <trkpt lat="44.93265" lon="3.32785">
        <ele>1073.6</ele>
        <time>2022-06-08T12:00:48Z</time>
      </trkpt>
      <trkpt lat="44.93265" lon="3.32778">
        <ele>1073.3</ele>
        <time>2022-06-08T12:00:56Z</time>
      </trkpt>
      <trkpt lat="44.93267" lon="3.32773">
        <ele>1073.2</ele>
        <time>2022-06-08T12:01:01Z</time>
      </trkpt>
      <trkpt lat="44.93269" lon="3.32766">
        <ele>1073</ele>
        <time>2022-06-08T12:01:05Z</time>
      </trkpt>
      <trkpt lat="44.9327" lon="3.3276">
        <ele>1073</ele>
        <time>2022-06-08T12:01:09Z</time>
      </trkpt>
      <trkpt lat="44.9327" lon="3.32752">
        <ele>1072.2</ele>
        <time>2022-06-08T12:01:14Z</time>
      </trkpt>
      <trkpt lat="44.9327" lon="3.32746">
        <ele>1071.5</ele>
        <time>2022-06-08T12:01:18Z</time>
      </trkpt>
      <trkpt lat="44.93269" lon="3.32739">
        <ele>1071.1</ele>
        <time>2022-06-08T12:01:23Z</time>
      </trkpt>
      <trkpt lat="44.93269" lon="3.32732">
        <ele>1069.4</ele>
        <time>2022-06-08T12:01:34Z</time>
      </trkpt>
      <trkpt lat="44.93269" lon="3.32725">
        <ele>1068.6</ele>
        <time>2022-06-08T12:01:39Z</time>
      </trkpt>
      <trkpt lat="44.93269" lon="3.32718">
        <ele>1069</ele>
        <time>2022-06-08T12:03:03Z</time>
      </trkpt>
      <trkpt lat="44.93265" lon="3.32719">
        <ele>1068.3</ele>
        <time>2022-06-08T12:03:26Z</time>
      </trkpt>
      <trkpt lat="44.93262" lon="3.32713">
        <ele>1067</ele>
        <time>2022-06-08T12:03:30Z</time>
      </trkpt>
      <trkpt lat="44.93261" lon="3.32706">
        <ele>1066.5</ele>
        <time>2022-06-08T12:03:34Z</time>
      </trkpt>
      <trkpt lat="44.9326" lon="3.327">
        <ele>1066.3</ele>
        <time>2022-06-08T12:03:38Z</time>
      </trkpt>
      <trkpt lat="44.93259" lon="3.32693">
        <ele>1065.5</ele>
        <time>2022-06-08T12:03:42Z</time>
      </trkpt>
      <trkpt lat="44.93258" lon="3.32687">
        <ele>1065.4</ele>
        <time>2022-06-08T12:03:46Z</time>
      </trkpt>
      <trkpt lat="44.93256" lon="3.32679">
        <ele>1065.3</ele>
        <time>2022-06-08T12:03:50Z</time>
      </trkpt>
      <trkpt lat="44.93253" lon="3.32673">
        <ele>1064.7</ele>
        <time>2022-06-08T12:03:54Z</time>
      </trkpt>
      <trkpt lat="44.93251" lon="3.32667">
        <ele>1063.4</ele>
        <time>2022-06-08T12:03:58Z</time>
      </trkpt>
      <trkpt lat="44.93248" lon="3.32661">
        <ele>1062.9</ele>
        <time>2022-06-08T12:04:02Z</time>
      </trkpt>
      <trkpt lat="44.93245" lon="3.32655">
        <ele>1063.2</ele>
        <time>2022-06-08T12:04:05Z</time>
      </trkpt>
      <trkpt lat="44.93241" lon="3.3265">
        <ele>1063.5</ele>
        <time>2022-06-08T12:04:08Z</time>
      </trkpt>
      <trkpt lat="44.93238" lon="3.32644">
        <ele>1063.9</ele>
        <time>2022-06-08T12:04:12Z</time>
      </trkpt>
      <trkpt lat="44.93236" lon="3.32638">
        <ele>1064</ele>
        <time>2022-06-08T12:04:16Z</time>
      </trkpt>
      <trkpt lat="44.93233" lon="3.32632">
        <ele>1063.9</ele>
        <time>2022-06-08T12:04:20Z</time>
      </trkpt>
      <trkpt lat="44.9323" lon="3.32625">
        <ele>1063</ele>
        <time>2022-06-08T12:04:24Z</time>
      </trkpt>
      <trkpt lat="44.93228" lon="3.32618">
        <ele>1062.9</ele>
        <time>2022-06-08T12:04:29Z</time>
      </trkpt>
      <trkpt lat="44.93225" lon="3.32613">
        <ele>1062</ele>
        <time>2022-06-08T12:04:33Z</time>
      </trkpt>
      <trkpt lat="44.93222" lon="3.32606">
        <ele>1061.5</ele>
        <time>2022-06-08T12:04:37Z</time>
      </trkpt>
      <trkpt lat="44.9322" lon="3.32599">
        <ele>1060.9</ele>
        <time>2022-06-08T12:04:41Z</time>
      </trkpt>
      <trkpt lat="44.93219" lon="3.32593">
        <ele>1058.9</ele>
        <time>2022-06-08T12:04:47Z</time>
      </trkpt>
      <trkpt lat="44.93217" lon="3.32585">
        <ele>1057.3</ele>
        <time>2022-06-08T12:04:52Z</time>
      </trkpt>
      <trkpt lat="44.93214" lon="3.32579">
        <ele>1056.2</ele>
        <time>2022-06-08T12:04:57Z</time>
      </trkpt>
      <trkpt lat="44.93211" lon="3.32574">
        <ele>1055.5</ele>
        <time>2022-06-08T12:05:07Z</time>
      </trkpt>
      <trkpt lat="44.93208" lon="3.32567">
        <ele>1053.8</ele>
        <time>2022-06-08T12:05:13Z</time>
      </trkpt>
      <trkpt lat="44.93206" lon="3.32561">
        <ele>1053.7</ele>
        <time>2022-06-08T12:05:17Z</time>
      </trkpt>
      <trkpt lat="44.93204" lon="3.32555">
        <ele>1053.1</ele>
        <time>2022-06-08T12:05:21Z</time>
      </trkpt>
      <trkpt lat="44.93202" lon="3.32548">
        <ele>1052.6</ele>
        <time>2022-06-08T12:05:25Z</time>
      </trkpt>
      <trkpt lat="44.93202" lon="3.32541">
        <ele>1052.1</ele>
        <time>2022-06-08T12:05:29Z</time>
      </trkpt>
      <trkpt lat="44.93201" lon="3.32535">
        <ele>1050.9</ele>
        <time>2022-06-08T12:05:34Z</time>
      </trkpt>
      <trkpt lat="44.93199" lon="3.32527">
        <ele>1052</ele>
        <time>2022-06-08T12:05:40Z</time>
      </trkpt>
      <trkpt lat="44.93197" lon="3.32522">
        <ele>1052.3</ele>
        <time>2022-06-08T12:05:44Z</time>
      </trkpt>
      <trkpt lat="44.93193" lon="3.32518">
        <ele>1051.8</ele>
        <time>2022-06-08T12:05:48Z</time>
      </trkpt>
      <trkpt lat="44.93189" lon="3.32514">
        <ele>1051.1</ele>
        <time>2022-06-08T12:05:52Z</time>
      </trkpt>
      <trkpt lat="44.93187" lon="3.32507">
        <ele>1050.4</ele>
        <time>2022-06-08T12:05:58Z</time>
      </trkpt>
      <trkpt lat="44.93184" lon="3.32502">
        <ele>1050.4</ele>
        <time>2022-06-08T12:06:04Z</time>
      </trkpt>
      <trkpt lat="44.93182" lon="3.32495">
        <ele>1049.7</ele>
        <time>2022-06-08T12:06:10Z</time>
      </trkpt>
      <trkpt lat="44.9318" lon="3.32488">
        <ele>1048.7</ele>
        <time>2022-06-08T12:06:18Z</time>
      </trkpt>
      <trkpt lat="44.93178" lon="3.32483">
        <ele>1048</ele>
        <time>2022-06-08T12:06:25Z</time>
      </trkpt>
      <trkpt lat="44.93175" lon="3.32476">
        <ele>1047.1</ele>
        <time>2022-06-08T12:06:36Z</time>
      </trkpt>
      <trkpt lat="44.93172" lon="3.32469">
        <ele>1045.8</ele>
        <time>2022-06-08T12:06:41Z</time>
      </trkpt>
      <trkpt lat="44.93169" lon="3.32464">
        <ele>1044.9</ele>
        <time>2022-06-08T12:06:45Z</time>
      </trkpt>
      <trkpt lat="44.93167" lon="3.32457">
        <ele>1043.9</ele>
        <time>2022-06-08T12:06:50Z</time>
      </trkpt>
      <trkpt lat="44.93163" lon="3.32452">
        <ele>1043.6</ele>
        <time>2022-06-08T12:06:55Z</time>
      </trkpt>
      <trkpt lat="44.93159" lon="3.32446">
        <ele>1042.5</ele>
        <time>2022-06-08T12:07:00Z</time>
      </trkpt>
      <trkpt lat="44.93156" lon="3.32441">
        <ele>1041.3</ele>
        <time>2022-06-08T12:07:05Z</time>
      </trkpt>
      <trkpt lat="44.93153" lon="3.32437">
        <ele>1040.1</ele>
        <time>2022-06-08T12:07:09Z</time>
      </trkpt>
      <trkpt lat="44.93149" lon="3.32432">
        <ele>1038.7</ele>
        <time>2022-06-08T12:07:14Z</time>
      </trkpt>
      <trkpt lat="44.93145" lon="3.32429">
        <ele>1037.1</ele>
        <time>2022-06-08T12:07:19Z</time>
      </trkpt>
      <trkpt lat="44.93141" lon="3.32424">
        <ele>1035.8</ele>
        <time>2022-06-08T12:07:24Z</time>
      </trkpt>
      <trkpt lat="44.93139" lon="3.32418">
        <ele>1034</ele>
        <time>2022-06-08T12:07:32Z</time>
      </trkpt>
      <trkpt lat="44.93136" lon="3.32412">
        <ele>1033.4</ele>
        <time>2022-06-08T12:07:36Z</time>
      </trkpt>
      <trkpt lat="44.93134" lon="3.32405">
        <ele>1032.9</ele>
        <time>2022-06-08T12:07:40Z</time>
      </trkpt>
      <trkpt lat="44.93133" lon="3.32398">
        <ele>1032.3</ele>
        <time>2022-06-08T12:07:45Z</time>
      </trkpt>
      <trkpt lat="44.93132" lon="3.32392">
        <ele>1031.7</ele>
        <time>2022-06-08T12:07:50Z</time>
      </trkpt>
      <trkpt lat="44.9313" lon="3.32385">
        <ele>1030.8</ele>
        <time>2022-06-08T12:07:56Z</time>
      </trkpt>
      <trkpt lat="44.93127" lon="3.32379">
        <ele>1029.9</ele>
        <time>2022-06-08T12:08:02Z</time>
      </trkpt>
      <trkpt lat="44.93123" lon="3.32374">
        <ele>1030.2</ele>
        <time>2022-06-08T12:08:15Z</time>
      </trkpt>
      <trkpt lat="44.93119" lon="3.3237">
        <ele>1029.6</ele>
        <time>2022-06-08T12:08:20Z</time>
      </trkpt>
      <trkpt lat="44.93116" lon="3.32365">
        <ele>1028.4</ele>
        <time>2022-06-08T12:08:24Z</time>
      </trkpt>
      <trkpt lat="44.93113" lon="3.3236">
        <ele>1027.3</ele>
        <time>2022-06-08T12:08:28Z</time>
      </trkpt>
      <trkpt lat="44.93111" lon="3.32354">
        <ele>1026.3</ele>
        <time>2022-06-08T12:08:32Z</time>
      </trkpt>
      <trkpt lat="44.93107" lon="3.3235">
        <ele>1025.4</ele>
        <time>2022-06-08T12:08:36Z</time>
      </trkpt>
      <trkpt lat="44.93103" lon="3.32346">
        <ele>1024.8</ele>
        <time>2022-06-08T12:08:40Z</time>
      </trkpt>
      <trkpt lat="44.93099" lon="3.32341">
        <ele>1024.7</ele>
        <time>2022-06-08T12:08:45Z</time>
      </trkpt>
      <trkpt lat="44.93094" lon="3.32339">
        <ele>1024.3</ele>
        <time>2022-06-08T12:08:50Z</time>
      </trkpt>
      <trkpt lat="44.9309" lon="3.3234">
        <ele>1023.8</ele>
        <time>2022-06-08T12:08:58Z</time>
      </trkpt>
      <trkpt lat="44.93084" lon="3.3234">
        <ele>1023.3</ele>
        <time>2022-06-08T12:09:05Z</time>
      </trkpt>
      <trkpt lat="44.93083" lon="3.32347">
        <ele>1022.7</ele>
        <time>2022-06-08T12:09:10Z</time>
      </trkpt>
      <trkpt lat="44.93082" lon="3.32354">
        <ele>1023</ele>
        <time>2022-06-08T12:09:16Z</time>
      </trkpt>
      <trkpt lat="44.93079" lon="3.3236">
        <ele>1024.1</ele>
        <time>2022-06-08T12:09:29Z</time>
      </trkpt>
      <trkpt lat="44.93074" lon="3.32362">
        <ele>1023.5</ele>
        <time>2022-06-08T12:09:37Z</time>
      </trkpt>
      <trkpt lat="44.93069" lon="3.32362">
        <ele>1023.4</ele>
        <time>2022-06-08T12:09:44Z</time>
      </trkpt>
      <trkpt lat="44.93065" lon="3.32362">
        <ele>1022</ele>
        <time>2022-06-08T12:09:52Z</time>
      </trkpt>
      <trkpt lat="44.93062" lon="3.32368">
        <ele>1019.5</ele>
        <time>2022-06-08T12:10:08Z</time>
      </trkpt>
      <trkpt lat="44.93065" lon="3.32375">
        <ele>1017.7</ele>
        <time>2022-06-08T12:10:12Z</time>
      </trkpt>
      <trkpt lat="44.93068" lon="3.32382">
        <ele>1016.5</ele>
        <time>2022-06-08T12:10:16Z</time>
      </trkpt>
      <trkpt lat="44.93071" lon="3.32389">
        <ele>1015</ele>
        <time>2022-06-08T12:10:20Z</time>
      </trkpt>
      <trkpt lat="44.93072" lon="3.32395">
        <ele>1013.7</ele>
        <time>2022-06-08T12:10:24Z</time>
      </trkpt>
      <trkpt lat="44.93073" lon="3.32401">
        <ele>1012.5</ele>
        <time>2022-06-08T12:10:42Z</time>
      </trkpt>
      <trkpt lat="44.93073" lon="3.32395">
        <ele>1012.6</ele>
        <time>2022-06-08T12:12:42Z</time>
      </trkpt>
      <trkpt lat="44.93072" lon="3.32402">
        <ele>1013.6</ele>
        <time>2022-06-08T12:14:21Z</time>
      </trkpt>
      <trkpt lat="44.93068" lon="3.32406">
        <ele>1013.4</ele>
        <time>2022-06-08T12:14:27Z</time>
      </trkpt>
      <trkpt lat="44.93064" lon="3.3241">
        <ele>1012.8</ele>
        <time>2022-06-08T12:14:32Z</time>
      </trkpt>
      <trkpt lat="44.9306" lon="3.32413">
        <ele>1012</ele>
        <time>2022-06-08T12:14:38Z</time>
      </trkpt>
      <trkpt lat="44.93055" lon="3.32415">
        <ele>1011.9</ele>
        <time>2022-06-08T12:14:43Z</time>
      </trkpt>
      <trkpt lat="44.93051" lon="3.32417">
        <ele>1010.8</ele>
        <time>2022-06-08T12:14:48Z</time>
      </trkpt>
      <trkpt lat="44.93046" lon="3.32419">
        <ele>1009</ele>
        <time>2022-06-08T12:14:52Z</time>
      </trkpt>
      <trkpt lat="44.93041" lon="3.3242">
        <ele>1007.3</ele>
        <time>2022-06-08T12:14:57Z</time>
      </trkpt>
      <trkpt lat="44.93036" lon="3.32422">
        <ele>1004.2</ele>
        <time>2022-06-08T12:15:03Z</time>
      </trkpt>
      <trkpt lat="44.93032" lon="3.32423">
        <ele>1005.6</ele>
        <time>2022-06-08T12:15:09Z</time>
      </trkpt>
      <trkpt lat="44.93026" lon="3.32423">
        <ele>1006.9</ele>
        <time>2022-06-08T12:15:14Z</time>
      </trkpt>
      <trkpt lat="44.9302" lon="3.32423">
        <ele>1009.1</ele>
        <time>2022-06-08T12:15:18Z</time>
      </trkpt>
      <trkpt lat="44.93016" lon="3.32424">
        <ele>1009.9</ele>
        <time>2022-06-08T12:15:22Z</time>
      </trkpt>
      <trkpt lat="44.93011" lon="3.32425">
        <ele>1010.2</ele>
        <time>2022-06-08T12:15:26Z</time>
      </trkpt>
      <trkpt lat="44.93006" lon="3.32428">
        <ele>1009.6</ele>
        <time>2022-06-08T12:15:30Z</time>
      </trkpt>
      <trkpt lat="44.93001" lon="3.32432">
        <ele>1008.3</ele>
        <time>2022-06-08T12:15:35Z</time>
      </trkpt>
      <trkpt lat="44.92998" lon="3.32437">
        <ele>1006.7</ele>
        <time>2022-06-08T12:15:39Z</time>
      </trkpt>
      <trkpt lat="44.92996" lon="3.32444">
        <ele>1004.6</ele>
        <time>2022-06-08T12:15:43Z</time>
      </trkpt>
      <trkpt lat="44.92993" lon="3.32449">
        <ele>1002.5</ele>
        <time>2022-06-08T12:15:47Z</time>
      </trkpt>
      <trkpt lat="44.9299" lon="3.32454">
        <ele>1001.5</ele>
        <time>2022-06-08T12:15:51Z</time>
      </trkpt>
      <trkpt lat="44.92986" lon="3.32458">
        <ele>1000.3</ele>
        <time>2022-06-08T12:15:55Z</time>
      </trkpt>
      <trkpt lat="44.92984" lon="3.32464">
        <ele>999.2</ele>
        <time>2022-06-08T12:16:00Z</time>
      </trkpt>
      <trkpt lat="44.92982" lon="3.32472">
        <ele>998.9</ele>
        <time>2022-06-08T12:16:05Z</time>
      </trkpt>
      <trkpt lat="44.92979" lon="3.32477">
        <ele>999.1</ele>
        <time>2022-06-08T12:16:09Z</time>
      </trkpt>
      <trkpt lat="44.92976" lon="3.32482">
        <ele>999.1</ele>
        <time>2022-06-08T12:16:13Z</time>
      </trkpt>
      <trkpt lat="44.92973" lon="3.32487">
        <ele>998.4</ele>
        <time>2022-06-08T12:16:17Z</time>
      </trkpt>
      <trkpt lat="44.92971" lon="3.32493">
        <ele>998.4</ele>
        <time>2022-06-08T12:16:21Z</time>
      </trkpt>
      <trkpt lat="44.92967" lon="3.32497">
        <ele>998.1</ele>
        <time>2022-06-08T12:16:25Z</time>
      </trkpt>
      <trkpt lat="44.92964" lon="3.32502">
        <ele>998</ele>
        <time>2022-06-08T12:16:29Z</time>
      </trkpt>
      <trkpt lat="44.92963" lon="3.32509">
        <ele>997.5</ele>
        <time>2022-06-08T12:16:39Z</time>
      </trkpt>
      <trkpt lat="44.92964" lon="3.32516">
        <ele>996.4</ele>
        <time>2022-06-08T12:16:46Z</time>
      </trkpt>
      <trkpt lat="44.92961" lon="3.32521">
        <ele>996</ele>
        <time>2022-06-08T12:16:57Z</time>
      </trkpt>
      <trkpt lat="44.92959" lon="3.32527">
        <ele>995.5</ele>
        <time>2022-06-08T12:17:03Z</time>
      </trkpt>
      <trkpt lat="44.92956" lon="3.32532">
        <ele>994.7</ele>
        <time>2022-06-08T12:17:15Z</time>
      </trkpt>
      <trkpt lat="44.92952" lon="3.32537">
        <ele>995.4</ele>
        <time>2022-06-08T12:17:20Z</time>
      </trkpt>
      <trkpt lat="44.92949" lon="3.32543">
        <ele>996.5</ele>
        <time>2022-06-08T12:17:25Z</time>
      </trkpt>
      <trkpt lat="44.92945" lon="3.32547">
        <ele>997.3</ele>
        <time>2022-06-08T12:17:33Z</time>
      </trkpt>
      <trkpt lat="44.92941" lon="3.32552">
        <ele>996.9</ele>
        <time>2022-06-08T12:17:39Z</time>
      </trkpt>
      <trkpt lat="44.92937" lon="3.32555">
        <ele>995.5</ele>
        <time>2022-06-08T12:17:46Z</time>
      </trkpt>
      <trkpt lat="44.92932" lon="3.32557">
        <ele>995.5</ele>
        <time>2022-06-08T12:17:52Z</time>
      </trkpt>
      <trkpt lat="44.92927" lon="3.32558">
        <ele>996.7</ele>
        <time>2022-06-08T12:17:58Z</time>
      </trkpt>
      <trkpt lat="44.92923" lon="3.32561">
        <ele>996.4</ele>
        <time>2022-06-08T12:18:03Z</time>
      </trkpt>
      <trkpt lat="44.92919" lon="3.32564">
        <ele>995.2</ele>
        <time>2022-06-08T12:18:10Z</time>
      </trkpt>
      <trkpt lat="44.92914" lon="3.32569">
        <ele>994.4</ele>
        <time>2022-06-08T12:18:16Z</time>
      </trkpt>
      <trkpt lat="44.9291" lon="3.32573">
        <ele>993.2</ele>
        <time>2022-06-08T12:18:22Z</time>
      </trkpt>
      <trkpt lat="44.92906" lon="3.32579">
        <ele>991.4</ele>
        <time>2022-06-08T12:18:27Z</time>
      </trkpt>
      <trkpt lat="44.92904" lon="3.32584">
        <ele>991.3</ele>
        <time>2022-06-08T12:18:32Z</time>
      </trkpt>
      <trkpt lat="44.92902" lon="3.32591">
        <ele>990.9</ele>
        <time>2022-06-08T12:18:38Z</time>
      </trkpt>
      <trkpt lat="44.92902" lon="3.32597">
        <ele>990.2</ele>
        <time>2022-06-08T12:18:43Z</time>
      </trkpt>
      <trkpt lat="44.92903" lon="3.32604">
        <ele>988.8</ele>
        <time>2022-06-08T12:18:47Z</time>
      </trkpt>
      <trkpt lat="44.92901" lon="3.32611">
        <ele>988.2</ele>
        <time>2022-06-08T12:18:52Z</time>
      </trkpt>
      <trkpt lat="44.92898" lon="3.32617">
        <ele>987.4</ele>
        <time>2022-06-08T12:18:56Z</time>
      </trkpt>
      <trkpt lat="44.92893" lon="3.3262">
        <ele>987.3</ele>
        <time>2022-06-08T12:19:01Z</time>
      </trkpt>
      <trkpt lat="44.92889" lon="3.32618">
        <ele>986.9</ele>
        <time>2022-06-08T12:19:06Z</time>
      </trkpt>
      <trkpt lat="44.92884" lon="3.32616">
        <ele>984.7</ele>
        <time>2022-06-08T12:19:12Z</time>
      </trkpt>
      <trkpt lat="44.9288" lon="3.32613">
        <ele>984.7</ele>
        <time>2022-06-08T12:19:19Z</time>
      </trkpt>
      <trkpt lat="44.92875" lon="3.3261">
        <ele>985.5</ele>
        <time>2022-06-08T12:19:24Z</time>
      </trkpt>
      <trkpt lat="44.92871" lon="3.32608">
        <ele>986.3</ele>
        <time>2022-06-08T12:19:29Z</time>
      </trkpt>
      <trkpt lat="44.92866" lon="3.32604">
        <ele>988.4</ele>
        <time>2022-06-08T12:19:36Z</time>
      </trkpt>
      <trkpt lat="44.92862" lon="3.326">
        <ele>988.5</ele>
        <time>2022-06-08T12:19:41Z</time>
      </trkpt>
      <trkpt lat="44.92858" lon="3.32596">
        <ele>988.5</ele>
        <time>2022-06-08T12:19:45Z</time>
      </trkpt>
      <trkpt lat="44.92855" lon="3.32593">
        <ele>987.9</ele>
        <time>2022-06-08T12:19:49Z</time>
      </trkpt>
      <trkpt lat="44.92852" lon="3.32588">
        <ele>987.4</ele>
        <time>2022-06-08T12:19:53Z</time>
      </trkpt>
      <trkpt lat="44.92848" lon="3.32582">
        <ele>987.3</ele>
        <time>2022-06-08T12:19:58Z</time>
      </trkpt>
      <trkpt lat="44.92844" lon="3.32579">
        <ele>987.8</ele>
        <time>2022-06-08T12:20:02Z</time>
      </trkpt>
      <trkpt lat="44.92841" lon="3.32574">
        <ele>988.6</ele>
        <time>2022-06-08T12:20:08Z</time>
      </trkpt>
      <trkpt lat="44.92836" lon="3.3257">
        <ele>994.6</ele>
        <time>2022-06-08T12:20:23Z</time>
      </trkpt>
      <trkpt lat="44.92832" lon="3.32567">
        <ele>998.3</ele>
        <time>2022-06-08T12:20:29Z</time>
      </trkpt>
      <trkpt lat="44.92829" lon="3.32562">
        <ele>998.9</ele>
        <time>2022-06-08T12:20:34Z</time>
      </trkpt>
      <trkpt lat="44.92825" lon="3.32558">
        <ele>998.7</ele>
        <time>2022-06-08T12:20:38Z</time>
      </trkpt>
      <trkpt lat="44.92821" lon="3.32553">
        <ele>997.9</ele>
        <time>2022-06-08T12:20:42Z</time>
      </trkpt>
      <trkpt lat="44.92817" lon="3.32549">
        <ele>998.5</ele>
        <time>2022-06-08T12:20:46Z</time>
      </trkpt>
      <trkpt lat="44.92814" lon="3.32543">
        <ele>998.3</ele>
        <time>2022-06-08T12:20:51Z</time>
      </trkpt>
      <trkpt lat="44.92811" lon="3.32538">
        <ele>1000.3</ele>
        <time>2022-06-08T12:20:58Z</time>
      </trkpt>
      <trkpt lat="44.92808" lon="3.32534">
        <ele>1001.5</ele>
        <time>2022-06-08T12:21:03Z</time>
      </trkpt>
      <trkpt lat="44.92804" lon="3.3253">
        <ele>1001.5</ele>
        <time>2022-06-08T12:21:08Z</time>
      </trkpt>
      <trkpt lat="44.92801" lon="3.32525">
        <ele>1001.7</ele>
        <time>2022-06-08T12:21:14Z</time>
      </trkpt>
      <trkpt lat="44.92797" lon="3.32522">
        <ele>1004.3</ele>
        <time>2022-06-08T12:23:50Z</time>
      </trkpt>
      <trkpt lat="44.92793" lon="3.32519">
        <ele>1004.5</ele>
        <time>2022-06-08T12:24:10Z</time>
      </trkpt>
      <trkpt lat="44.92789" lon="3.32517">
        <ele>1004.4</ele>
        <time>2022-06-08T12:24:17Z</time>
      </trkpt>
      <trkpt lat="44.92784" lon="3.32516">
        <ele>1004.8</ele>
        <time>2022-06-08T12:24:23Z</time>
      </trkpt>
      <trkpt lat="44.92778" lon="3.32515">
        <ele>1004.9</ele>
        <time>2022-06-08T12:24:27Z</time>
      </trkpt>
      <trkpt lat="44.92773" lon="3.32515">
        <ele>1005</ele>
        <time>2022-06-08T12:24:32Z</time>
      </trkpt>
      <trkpt lat="44.92769" lon="3.32515">
        <ele>1004.6</ele>
        <time>2022-06-08T12:24:38Z</time>
      </trkpt>
      <trkpt lat="44.92765" lon="3.32519">
        <ele>1003.1</ele>
        <time>2022-06-08T12:25:04Z</time>
      </trkpt>
      <trkpt lat="44.92762" lon="3.32525">
        <ele>1002.2</ele>
        <time>2022-06-08T12:25:15Z</time>
      </trkpt>
      <trkpt lat="44.92757" lon="3.32525">
        <ele>1003</ele>
        <time>2022-06-08T12:25:21Z</time>
      </trkpt>
      <trkpt lat="44.92752" lon="3.32525">
        <ele>1008.4</ele>
        <time>2022-06-08T12:25:44Z</time>
      </trkpt>
      <trkpt lat="44.92747" lon="3.32524">
        <ele>1009.3</ele>
        <time>2022-06-08T12:25:50Z</time>
      </trkpt>
      <trkpt lat="44.92742" lon="3.32524">
        <ele>1010.2</ele>
        <time>2022-06-08T12:25:58Z</time>
      </trkpt>
      <trkpt lat="44.92737" lon="3.32525">
        <ele>1009.8</ele>
        <time>2022-06-08T12:26:14Z</time>
      </trkpt>
      <trkpt lat="44.92732" lon="3.32526">
        <ele>1010.2</ele>
        <time>2022-06-08T12:26:17Z</time>
      </trkpt>
      <trkpt lat="44.92727" lon="3.32527">
        <ele>1011</ele>
        <time>2022-06-08T12:26:23Z</time>
      </trkpt>
      <trkpt lat="44.92722" lon="3.32529">
        <ele>1011.9</ele>
        <time>2022-06-08T12:26:26Z</time>
      </trkpt>
      <trkpt lat="44.92717" lon="3.32529">
        <ele>1010.7</ele>
        <time>2022-06-08T12:26:34Z</time>
      </trkpt>
      <trkpt lat="44.92712" lon="3.32532">
        <ele>1011.2</ele>
        <time>2022-06-08T12:26:37Z</time>
      </trkpt>
      <trkpt lat="44.92707" lon="3.32533">
        <ele>1011.7</ele>
        <time>2022-06-08T12:26:41Z</time>
      </trkpt>
      <trkpt lat="44.92702" lon="3.32534">
        <ele>1011.8</ele>
        <time>2022-06-08T12:26:45Z</time>
      </trkpt>
      <trkpt lat="44.92697" lon="3.32536">
        <ele>1012</ele>
        <time>2022-06-08T12:26:50Z</time>
      </trkpt>
      <trkpt lat="44.92692" lon="3.32538">
        <ele>1012</ele>
        <time>2022-06-08T12:26:54Z</time>
      </trkpt>
      <trkpt lat="44.92687" lon="3.3254">
        <ele>1011.5</ele>
        <time>2022-06-08T12:26:58Z</time>
      </trkpt>
      <trkpt lat="44.92682" lon="3.32542">
        <ele>1011.7</ele>
        <time>2022-06-08T12:27:02Z</time>
      </trkpt>
      <trkpt lat="44.92678" lon="3.32547">
        <ele>1011</ele>
        <time>2022-06-08T12:27:07Z</time>
      </trkpt>
      <trkpt lat="44.92674" lon="3.3255">
        <ele>1010.8</ele>
        <time>2022-06-08T12:27:11Z</time>
      </trkpt>
      <trkpt lat="44.92668" lon="3.32554">
        <ele>1009.9</ele>
        <time>2022-06-08T12:27:15Z</time>
      </trkpt>
      <trkpt lat="44.92664" lon="3.32559">
        <ele>1009</ele>
        <time>2022-06-08T12:27:19Z</time>
      </trkpt>
      <trkpt lat="44.92661" lon="3.32565">
        <ele>1007.7</ele>
        <time>2022-06-08T12:27:23Z</time>
      </trkpt>
      <trkpt lat="44.92657" lon="3.32571">
        <ele>1007.1</ele>
        <time>2022-06-08T12:27:28Z</time>
      </trkpt>
      <trkpt lat="44.92654" lon="3.32577">
        <ele>1006</ele>
        <time>2022-06-08T12:27:34Z</time>
      </trkpt>
      <trkpt lat="44.9265" lon="3.32581">
        <ele>1005.3</ele>
        <time>2022-06-08T12:27:39Z</time>
      </trkpt>
      <trkpt lat="44.92646" lon="3.32586">
        <ele>1004.7</ele>
        <time>2022-06-08T12:27:46Z</time>
      </trkpt>
      <trkpt lat="44.92643" lon="3.32593">
        <ele>1006.2</ele>
        <time>2022-06-08T12:28:01Z</time>
      </trkpt>
      <trkpt lat="44.9264" lon="3.32599">
        <ele>1006.3</ele>
        <time>2022-06-08T12:28:03Z</time>
      </trkpt>
      <trkpt lat="44.92636" lon="3.32603">
        <ele>1006.8</ele>
        <time>2022-06-08T12:28:06Z</time>
      </trkpt>
      <trkpt lat="44.92633" lon="3.3261">
        <ele>1007.9</ele>
        <time>2022-06-08T12:28:18Z</time>
      </trkpt>
      <trkpt lat="44.9263" lon="3.32616">
        <ele>1008.1</ele>
        <time>2022-06-08T12:28:22Z</time>
      </trkpt>
      <trkpt lat="44.92628" lon="3.32623">
        <ele>1008.4</ele>
        <time>2022-06-08T12:28:25Z</time>
      </trkpt>
      <trkpt lat="44.92624" lon="3.3263">
        <ele>1008.9</ele>
        <time>2022-06-08T12:28:28Z</time>
      </trkpt>
      <trkpt lat="44.92622" lon="3.32636">
        <ele>1009.8</ele>
        <time>2022-06-08T12:28:31Z</time>
      </trkpt>
      <trkpt lat="44.92621" lon="3.32644">
        <ele>1009.7</ele>
        <time>2022-06-08T12:28:35Z</time>
      </trkpt>
      <trkpt lat="44.92623" lon="3.3265">
        <ele>1009.7</ele>
        <time>2022-06-08T12:28:49Z</time>
      </trkpt>
      <trkpt lat="44.92625" lon="3.32656">
        <ele>1009.5</ele>
        <time>2022-06-08T12:28:51Z</time>
      </trkpt>
      <trkpt lat="44.92626" lon="3.32663">
        <ele>1009</ele>
        <time>2022-06-08T12:28:53Z</time>
      </trkpt>
      <trkpt lat="44.92626" lon="3.3267">
        <ele>1009</ele>
        <time>2022-06-08T12:28:55Z</time>
      </trkpt>
      <trkpt lat="44.92625" lon="3.32678">
        <ele>1003.9</ele>
        <time>2022-06-08T12:28:58Z</time>
      </trkpt>
      <trkpt lat="44.92623" lon="3.32685">
        <ele>1004.7</ele>
        <time>2022-06-08T12:29:01Z</time>
      </trkpt>
      <trkpt lat="44.92618" lon="3.32688">
        <ele>1005.9</ele>
        <time>2022-06-08T12:29:09Z</time>
      </trkpt>
      <trkpt lat="44.92615" lon="3.32694">
        <ele>1005.5</ele>
        <time>2022-06-08T12:29:13Z</time>
      </trkpt>
      <trkpt lat="44.92613" lon="3.32701">
        <ele>1005.7</ele>
        <time>2022-06-08T12:29:16Z</time>
      </trkpt>
      <trkpt lat="44.92611" lon="3.32707">
        <ele>1005.8</ele>
        <time>2022-06-08T12:29:21Z</time>
      </trkpt>
      <trkpt lat="44.92607" lon="3.32712">
        <ele>1006.6</ele>
        <time>2022-06-08T12:29:32Z</time>
      </trkpt>
      <trkpt lat="44.92604" lon="3.3272">
        <ele>1005.8</ele>
        <time>2022-06-08T12:29:35Z</time>
      </trkpt>
      <trkpt lat="44.92602" lon="3.32727">
        <ele>1005.2</ele>
        <time>2022-06-08T12:29:37Z</time>
      </trkpt>
      <trkpt lat="44.92601" lon="3.32734">
        <ele>998.5</ele>
        <time>2022-06-08T12:29:40Z</time>
      </trkpt>
      <trkpt lat="44.926" lon="3.32742">
        <ele>999.3</ele>
        <time>2022-06-08T12:29:50Z</time>
      </trkpt>
      <trkpt lat="44.92596" lon="3.32748">
        <ele>999.9</ele>
        <time>2022-06-08T12:29:53Z</time>
      </trkpt>
      <trkpt lat="44.92593" lon="3.32754">
        <ele>1000</ele>
        <time>2022-06-08T12:29:55Z</time>
      </trkpt>
      <trkpt lat="44.92591" lon="3.32761">
        <ele>1000.8</ele>
        <time>2022-06-08T12:29:58Z</time>
      </trkpt>
      <trkpt lat="44.92589" lon="3.32768">
        <ele>1001.4</ele>
        <time>2022-06-08T12:30:01Z</time>
      </trkpt>
      <trkpt lat="44.92586" lon="3.32774">
        <ele>1001.3</ele>
        <time>2022-06-08T12:30:04Z</time>
      </trkpt>
      <trkpt lat="44.92582" lon="3.32778">
        <ele>1001</ele>
        <time>2022-06-08T12:30:09Z</time>
      </trkpt>
      <trkpt lat="44.92579" lon="3.32784">
        <ele>999.4</ele>
        <time>2022-06-08T12:30:18Z</time>
      </trkpt>
      <trkpt lat="44.92576" lon="3.3279">
        <ele>999.2</ele>
        <time>2022-06-08T12:30:21Z</time>
      </trkpt>
      <trkpt lat="44.92573" lon="3.32798">
        <ele>999.8</ele>
        <time>2022-06-08T12:30:24Z</time>
      </trkpt>
      <trkpt lat="44.9257" lon="3.32806">
        <ele>1000.2</ele>
        <time>2022-06-08T12:30:27Z</time>
      </trkpt>
      <trkpt lat="44.92569" lon="3.32812">
        <ele>1000.6</ele>
        <time>2022-06-08T12:30:32Z</time>
      </trkpt>
      <trkpt lat="44.92572" lon="3.32818">
        <ele>999.2</ele>
        <time>2022-06-08T12:30:42Z</time>
      </trkpt>
      <trkpt lat="44.92567" lon="3.32826">
        <ele>998.8</ele>
        <time>2022-06-08T12:30:45Z</time>
      </trkpt>
      <trkpt lat="44.92564" lon="3.32831">
        <ele>998.3</ele>
        <time>2022-06-08T12:30:48Z</time>
      </trkpt>
      <trkpt lat="44.92562" lon="3.32837">
        <ele>998.1</ele>
        <time>2022-06-08T12:30:55Z</time>
      </trkpt>
      <trkpt lat="44.92559" lon="3.32844">
        <ele>998.7</ele>
        <time>2022-06-08T12:30:59Z</time>
      </trkpt>
      <trkpt lat="44.92557" lon="3.32851">
        <ele>999.8</ele>
        <time>2022-06-08T12:31:04Z</time>
      </trkpt>
      <trkpt lat="44.92557" lon="3.32858">
        <ele>1000.8</ele>
        <time>2022-06-08T12:31:08Z</time>
      </trkpt>
      <trkpt lat="44.92556" lon="3.32865">
        <ele>1002.1</ele>
        <time>2022-06-08T12:31:13Z</time>
      </trkpt>
      <trkpt lat="44.92554" lon="3.32872">
        <ele>1003.1</ele>
        <time>2022-06-08T12:31:20Z</time>
      </trkpt>
      <trkpt lat="44.92553" lon="3.3288">
        <ele>1003.5</ele>
        <time>2022-06-08T12:31:24Z</time>
      </trkpt>
      <trkpt lat="44.92552" lon="3.32887">
        <ele>1006.6</ele>
        <time>2022-06-08T12:31:51Z</time>
      </trkpt>
      <trkpt lat="44.92549" lon="3.32893">
        <ele>1006.8</ele>
        <time>2022-06-08T12:31:54Z</time>
      </trkpt>
      <trkpt lat="44.92547" lon="3.32902">
        <ele>1006.3</ele>
        <time>2022-06-08T12:31:57Z</time>
      </trkpt>
      <trkpt lat="44.92546" lon="3.32908">
        <ele>1006.1</ele>
        <time>2022-06-08T12:31:59Z</time>
      </trkpt>
      <trkpt lat="44.92546" lon="3.32915">
        <ele>1006.2</ele>
        <time>2022-06-08T12:32:01Z</time>
      </trkpt>
      <trkpt lat="44.92546" lon="3.32923">
        <ele>1005.6</ele>
        <time>2022-06-08T12:32:04Z</time>
      </trkpt>
      <trkpt lat="44.92547" lon="3.3293">
        <ele>1005.8</ele>
        <time>2022-06-08T12:32:09Z</time>
      </trkpt>
      <trkpt lat="44.9255" lon="3.32936">
        <ele>1006.9</ele>
        <time>2022-06-08T12:32:19Z</time>
      </trkpt>
      <trkpt lat="44.92546" lon="3.32941">
        <ele>1006.9</ele>
        <time>2022-06-08T12:32:25Z</time>
      </trkpt>
      <trkpt lat="44.92544" lon="3.32947">
        <ele>1004.8</ele>
        <time>2022-06-08T12:32:33Z</time>
      </trkpt>
      <trkpt lat="44.9254" lon="3.32948">
        <ele>1005.5</ele>
        <time>2022-06-08T12:32:54Z</time>
      </trkpt>
      <trkpt lat="44.92535" lon="3.32948">
        <ele>1005.6</ele>
        <time>2022-06-08T12:32:57Z</time>
      </trkpt>
      <trkpt lat="44.9253" lon="3.32949">
        <ele>1005.5</ele>
        <time>2022-06-08T12:33:01Z</time>
      </trkpt>
      <trkpt lat="44.92526" lon="3.32944">
        <ele>1003.9</ele>
        <time>2022-06-08T12:33:07Z</time>
      </trkpt>
      <trkpt lat="44.92521" lon="3.32944">
        <ele>997.9</ele>
        <time>2022-06-08T12:33:50Z</time>
      </trkpt>
      <trkpt lat="44.92516" lon="3.32944">
        <ele>997.8</ele>
        <time>2022-06-08T12:33:54Z</time>
      </trkpt>
      <trkpt lat="44.9251" lon="3.32945">
        <ele>997.2</ele>
        <time>2022-06-08T12:34:02Z</time>
      </trkpt>
      <trkpt lat="44.92506" lon="3.32944">
        <ele>996</ele>
        <time>2022-06-08T12:34:06Z</time>
      </trkpt>
      <trkpt lat="44.92506" lon="3.32951">
        <ele>999.8</ele>
        <time>2022-06-08T12:34:30Z</time>
      </trkpt>
      <trkpt lat="44.9251" lon="3.32952">
        <ele>1000.6</ele>
        <time>2022-06-08T12:36:01Z</time>
      </trkpt>
      <trkpt lat="44.92515" lon="3.32949">
        <ele>997.7</ele>
        <time>2022-06-08T12:36:09Z</time>
      </trkpt>
      <trkpt lat="44.9251" lon="3.32953">
        <ele>1001.1</ele>
        <time>2022-06-08T12:36:34Z</time>
      </trkpt>
      <trkpt lat="44.92505" lon="3.32956">
        <ele>1001.5</ele>
        <time>2022-06-08T12:36:37Z</time>
      </trkpt>
      <trkpt lat="44.925" lon="3.32959">
        <ele>1002.2</ele>
        <time>2022-06-08T12:36:42Z</time>
      </trkpt>
      <trkpt lat="44.925" lon="3.32966">
        <ele>1002.7</ele>
        <time>2022-06-08T12:36:52Z</time>
      </trkpt>
      <trkpt lat="44.92495" lon="3.32963">
        <ele>1006</ele>
        <time>2022-06-08T12:37:12Z</time>
      </trkpt>
      <trkpt lat="44.92489" lon="3.32964">
        <ele>1006.3</ele>
        <time>2022-06-08T12:37:18Z</time>
      </trkpt>
      <trkpt lat="44.92484" lon="3.32964">
        <ele>1005.5</ele>
        <time>2022-06-08T12:37:25Z</time>
      </trkpt>
      <trkpt lat="44.92478" lon="3.32964">
        <ele>1004.2</ele>
        <time>2022-06-08T12:37:31Z</time>
      </trkpt>
      <trkpt lat="44.92473" lon="3.32967">
        <ele>1004.3</ele>
        <time>2022-06-08T12:37:36Z</time>
      </trkpt>
      <trkpt lat="44.92469" lon="3.3297">
        <ele>1004.5</ele>
        <time>2022-06-08T12:37:42Z</time>
      </trkpt>
      <trkpt lat="44.92466" lon="3.32976">
        <ele>1004.7</ele>
        <time>2022-06-08T12:38:09Z</time>
      </trkpt>
      <trkpt lat="44.92464" lon="3.32982">
        <ele>1007.2</ele>
        <time>2022-06-08T12:38:27Z</time>
      </trkpt>
      <trkpt lat="44.92458" lon="3.32983">
        <ele>1008.2</ele>
        <time>2022-06-08T12:38:32Z</time>
      </trkpt>
      <trkpt lat="44.92453" lon="3.32983">
        <ele>1008.3</ele>
        <time>2022-06-08T12:38:36Z</time>
      </trkpt>
      <trkpt lat="44.92449" lon="3.32987">
        <ele>1008.3</ele>
        <time>2022-06-08T12:38:42Z</time>
      </trkpt>
      <trkpt lat="44.92444" lon="3.3299">
        <ele>1007.7</ele>
        <time>2022-06-08T12:38:55Z</time>
      </trkpt>
      <trkpt lat="44.9244" lon="3.32993">
        <ele>1009.2</ele>
        <time>2022-06-08T12:39:02Z</time>
      </trkpt>
      <trkpt lat="44.92438" lon="3.32999">
        <ele>1010.3</ele>
        <time>2022-06-08T12:39:07Z</time>
      </trkpt>
      <trkpt lat="44.92435" lon="3.33005">
        <ele>1010.7</ele>
        <time>2022-06-08T12:39:16Z</time>
      </trkpt>
      <trkpt lat="44.92433" lon="3.33011">
        <ele>1009</ele>
        <time>2022-06-08T12:39:31Z</time>
      </trkpt>
      <trkpt lat="44.92428" lon="3.33008">
        <ele>1006.4</ele>
        <time>2022-06-08T12:39:39Z</time>
      </trkpt>
      <trkpt lat="44.92423" lon="3.33003">
        <ele>1005.4</ele>
        <time>2022-06-08T12:39:43Z</time>
      </trkpt>
      <trkpt lat="44.9242" lon="3.32998">
        <ele>1005</ele>
        <time>2022-06-08T12:39:48Z</time>
      </trkpt>
      <trkpt lat="44.92416" lon="3.32994">
        <ele>1005.2</ele>
        <time>2022-06-08T12:39:51Z</time>
      </trkpt>
      <trkpt lat="44.92411" lon="3.32991">
        <ele>1005.1</ele>
        <time>2022-06-08T12:39:54Z</time>
      </trkpt>
      <trkpt lat="44.92407" lon="3.32993">
        <ele>1005.2</ele>
        <time>2022-06-08T12:40:02Z</time>
      </trkpt>
      <trkpt lat="44.92402" lon="3.3299">
        <ele>1004.9</ele>
        <time>2022-06-08T12:40:05Z</time>
      </trkpt>
      <trkpt lat="44.92398" lon="3.32989">
        <ele>1004.4</ele>
        <time>2022-06-08T12:40:09Z</time>
      </trkpt>
      <trkpt lat="44.92392" lon="3.3299">
        <ele>1003.5</ele>
        <time>2022-06-08T12:40:15Z</time>
      </trkpt>
      <trkpt lat="44.92387" lon="3.3299">
        <ele>1001.7</ele>
        <time>2022-06-08T12:40:23Z</time>
      </trkpt>
      <trkpt lat="44.92382" lon="3.32988">
        <ele>1001.3</ele>
        <time>2022-06-08T12:40:28Z</time>
      </trkpt>
      <trkpt lat="44.92377" lon="3.32988">
        <ele>1000.3</ele>
        <time>2022-06-08T12:40:36Z</time>
      </trkpt>
      <trkpt lat="44.92372" lon="3.32986">
        <ele>1000.5</ele>
        <time>2022-06-08T12:40:41Z</time>
      </trkpt>
      <trkpt lat="44.92377" lon="3.32984">
        <ele>1002.6</ele>
        <time>2022-06-08T12:41:02Z</time>
      </trkpt>
      <trkpt lat="44.92382" lon="3.32986">
        <ele>1003.5</ele>
        <time>2022-06-08T12:41:09Z</time>
      </trkpt>
      <trkpt lat="44.92387" lon="3.32986">
        <ele>1004.3</ele>
        <time>2022-06-08T12:41:14Z</time>
      </trkpt>
      <trkpt lat="44.92383" lon="3.32981">
        <ele>1003.7</ele>
        <time>2022-06-08T12:41:25Z</time>
      </trkpt>
      <trkpt lat="44.9238" lon="3.32975">
        <ele>1003.6</ele>
        <time>2022-06-08T12:41:29Z</time>
      </trkpt>
      <trkpt lat="44.92377" lon="3.3297">
        <ele>1002.7</ele>
        <time>2022-06-08T12:41:33Z</time>
      </trkpt>
      <trkpt lat="44.92374" lon="3.32963">
        <ele>1002.6</ele>
        <time>2022-06-08T12:41:38Z</time>
      </trkpt>
      <trkpt lat="44.9237" lon="3.32957">
        <ele>1001.8</ele>
        <time>2022-06-08T12:41:46Z</time>
      </trkpt>
      <trkpt lat="44.92367" lon="3.32948">
        <ele>1001.8</ele>
        <time>2022-06-08T12:41:49Z</time>
      </trkpt>
      <trkpt lat="44.92364" lon="3.32942">
        <ele>1001.8</ele>
        <time>2022-06-08T12:41:52Z</time>
      </trkpt>
      <trkpt lat="44.92361" lon="3.32935">
        <ele>1001.1</ele>
        <time>2022-06-08T12:41:58Z</time>
      </trkpt>
      <trkpt lat="44.92358" lon="3.3293">
        <ele>1000.2</ele>
        <time>2022-06-08T12:42:02Z</time>
      </trkpt>
      <trkpt lat="44.92354" lon="3.32926">
        <ele>999.9</ele>
        <time>2022-06-08T12:42:07Z</time>
      </trkpt>
      <trkpt lat="44.9235" lon="3.32923">
        <ele>999.6</ele>
        <time>2022-06-08T12:42:15Z</time>
      </trkpt>
      <trkpt lat="44.92347" lon="3.32918">
        <ele>997.9</ele>
        <time>2022-06-08T12:42:21Z</time>
      </trkpt>
      <trkpt lat="44.92343" lon="3.32914">
        <ele>995.7</ele>
        <time>2022-06-08T12:42:27Z</time>
      </trkpt>
      <trkpt lat="44.92338" lon="3.32909">
        <ele>995.3</ele>
        <time>2022-06-08T12:42:30Z</time>
      </trkpt>
      <trkpt lat="44.92334" lon="3.32903">
        <ele>994.7</ele>
        <time>2022-06-08T12:42:33Z</time>
      </trkpt>
      <trkpt lat="44.9233" lon="3.32899">
        <ele>994.4</ele>
        <time>2022-06-08T12:42:40Z</time>
      </trkpt>
      <trkpt lat="44.92328" lon="3.32892">
        <ele>994.8</ele>
        <time>2022-06-08T12:42:43Z</time>
      </trkpt>
      <trkpt lat="44.92325" lon="3.32885">
        <ele>995.1</ele>
        <time>2022-06-08T12:42:46Z</time>
      </trkpt>
      <trkpt lat="44.92323" lon="3.32878">
        <ele>994.9</ele>
        <time>2022-06-08T12:42:49Z</time>
      </trkpt>
      <trkpt lat="44.92318" lon="3.32877">
        <ele>995.6</ele>
        <time>2022-06-08T12:42:56Z</time>
      </trkpt>
      <trkpt lat="44.92314" lon="3.32874">
        <ele>996.3</ele>
        <time>2022-06-08T12:43:03Z</time>
      </trkpt>
      <trkpt lat="44.9231" lon="3.3287">
        <ele>997.8</ele>
        <time>2022-06-08T12:43:15Z</time>
      </trkpt>
      <trkpt lat="44.92307" lon="3.32864">
        <ele>997.8</ele>
        <time>2022-06-08T12:43:19Z</time>
      </trkpt>
      <trkpt lat="44.92304" lon="3.32859">
        <ele>996.4</ele>
        <time>2022-06-08T12:43:23Z</time>
      </trkpt>
      <trkpt lat="44.923" lon="3.32855">
        <ele>994.9</ele>
        <time>2022-06-08T12:43:27Z</time>
      </trkpt>
      <trkpt lat="44.92296" lon="3.3285">
        <ele>994.9</ele>
        <time>2022-06-08T12:43:30Z</time>
      </trkpt>
      <trkpt lat="44.92293" lon="3.32845">
        <ele>994.5</ele>
        <time>2022-06-08T12:43:33Z</time>
      </trkpt>
      <trkpt lat="44.9229" lon="3.32839">
        <ele>994.5</ele>
        <time>2022-06-08T12:43:37Z</time>
      </trkpt>
      <trkpt lat="44.92287" lon="3.32833">
        <ele>994.7</ele>
        <time>2022-06-08T12:43:42Z</time>
      </trkpt>
      <trkpt lat="44.92282" lon="3.32829">
        <ele>994.4</ele>
        <time>2022-06-08T12:43:46Z</time>
      </trkpt>
      <trkpt lat="44.92278" lon="3.3283">
        <ele>994.3</ele>
        <time>2022-06-08T12:43:55Z</time>
      </trkpt>
      <trkpt lat="44.92274" lon="3.32826">
        <ele>994.9</ele>
        <time>2022-06-08T12:44:00Z</time>
      </trkpt>
      <trkpt lat="44.9227" lon="3.3282">
        <ele>994.7</ele>
        <time>2022-06-08T12:44:03Z</time>
      </trkpt>
      <trkpt lat="44.92266" lon="3.32816">
        <ele>994.1</ele>
        <time>2022-06-08T12:44:09Z</time>
      </trkpt>
      <trkpt lat="44.92263" lon="3.3281">
        <ele>992.7</ele>
        <time>2022-06-08T12:44:13Z</time>
      </trkpt>
      <trkpt lat="44.92259" lon="3.32806">
        <ele>992</ele>
        <time>2022-06-08T12:44:19Z</time>
      </trkpt>
      <trkpt lat="44.92256" lon="3.328">
        <ele>991.7</ele>
        <time>2022-06-08T12:44:22Z</time>
      </trkpt>
      <trkpt lat="44.92251" lon="3.32795">
        <ele>991.7</ele>
        <time>2022-06-08T12:44:28Z</time>
      </trkpt>
      <trkpt lat="44.92247" lon="3.32792">
        <ele>991.8</ele>
        <time>2022-06-08T12:44:31Z</time>
      </trkpt>
      <trkpt lat="44.92242" lon="3.32791">
        <ele>990.3</ele>
        <time>2022-06-08T12:44:41Z</time>
      </trkpt>
      <trkpt lat="44.92238" lon="3.32786">
        <ele>989.8</ele>
        <time>2022-06-08T12:44:44Z</time>
      </trkpt>
      <trkpt lat="44.92234" lon="3.32781">
        <ele>989.3</ele>
        <time>2022-06-08T12:44:47Z</time>
      </trkpt>
      <trkpt lat="44.92229" lon="3.32779">
        <ele>988.4</ele>
        <time>2022-06-08T12:44:56Z</time>
      </trkpt>
      <trkpt lat="44.92225" lon="3.32775">
        <ele>988.3</ele>
        <time>2022-06-08T12:44:59Z</time>
      </trkpt>
      <trkpt lat="44.9222" lon="3.32773">
        <ele>988</ele>
        <time>2022-06-08T12:45:05Z</time>
      </trkpt>
      <trkpt lat="44.92217" lon="3.32765">
        <ele>988.1</ele>
        <time>2022-06-08T12:45:09Z</time>
      </trkpt>
      <trkpt lat="44.92215" lon="3.32759">
        <ele>988.1</ele>
        <time>2022-06-08T12:45:11Z</time>
      </trkpt>
      <trkpt lat="44.92213" lon="3.32753">
        <ele>987.9</ele>
        <time>2022-06-08T12:45:14Z</time>
      </trkpt>
      <trkpt lat="44.9221" lon="3.32748">
        <ele>987.1</ele>
        <time>2022-06-08T12:45:21Z</time>
      </trkpt>
      <trkpt lat="44.92206" lon="3.32742">
        <ele>985.9</ele>
        <time>2022-06-08T12:45:24Z</time>
      </trkpt>
      <trkpt lat="44.92202" lon="3.3274">
        <ele>983.6</ele>
        <time>2022-06-08T12:45:32Z</time>
      </trkpt>
      <trkpt lat="44.92199" lon="3.32734">
        <ele>983.3</ele>
        <time>2022-06-08T12:45:35Z</time>
      </trkpt>
      <trkpt lat="44.92196" lon="3.32729">
        <ele>983.7</ele>
        <time>2022-06-08T12:45:37Z</time>
      </trkpt>
      <trkpt lat="44.92193" lon="3.32723">
        <ele>984.1</ele>
        <time>2022-06-08T12:45:39Z</time>
      </trkpt>
      <trkpt lat="44.9219" lon="3.32716">
        <ele>984.1</ele>
        <time>2022-06-08T12:45:42Z</time>
      </trkpt>
      <trkpt lat="44.92185" lon="3.32716">
        <ele>984.4</ele>
        <time>2022-06-08T12:45:50Z</time>
      </trkpt>
      <trkpt lat="44.9218" lon="3.32711">
        <ele>984.3</ele>
        <time>2022-06-08T12:45:54Z</time>
      </trkpt>
      <trkpt lat="44.92177" lon="3.32705">
        <ele>983.6</ele>
        <time>2022-06-08T12:45:57Z</time>
      </trkpt>
      <trkpt lat="44.92172" lon="3.32703">
        <ele>982.7</ele>
        <time>2022-06-08T12:46:05Z</time>
      </trkpt>
      <trkpt lat="44.92167" lon="3.32697">
        <ele>982.1</ele>
        <time>2022-06-08T12:46:09Z</time>
      </trkpt>
      <trkpt lat="44.92164" lon="3.32692">
        <ele>981.7</ele>
        <time>2022-06-08T12:46:15Z</time>
      </trkpt>
      <trkpt lat="44.92159" lon="3.3269">
        <ele>982.1</ele>
        <time>2022-06-08T12:46:21Z</time>
      </trkpt>
      <trkpt lat="44.92154" lon="3.32688">
        <ele>984.1</ele>
        <time>2022-06-08T12:46:34Z</time>
      </trkpt>
      <trkpt lat="44.9215" lon="3.32683">
        <ele>985</ele>
        <time>2022-06-08T12:46:39Z</time>
      </trkpt>
      <trkpt lat="44.92144" lon="3.32679">
        <ele>985.6</ele>
        <time>2022-06-08T12:46:43Z</time>
      </trkpt>
      <trkpt lat="44.9214" lon="3.32676">
        <ele>986.3</ele>
        <time>2022-06-08T12:46:45Z</time>
      </trkpt>
      <trkpt lat="44.92136" lon="3.32673">
        <ele>986.9</ele>
        <time>2022-06-08T12:46:47Z</time>
      </trkpt>
      <trkpt lat="44.92132" lon="3.3267">
        <ele>987.9</ele>
        <time>2022-06-08T12:46:51Z</time>
      </trkpt>
      <trkpt lat="44.92127" lon="3.32664">
        <ele>989.2</ele>
        <time>2022-06-08T12:47:01Z</time>
      </trkpt>
      <trkpt lat="44.92122" lon="3.32662">
        <ele>989.6</ele>
        <time>2022-06-08T12:47:03Z</time>
      </trkpt>
      <trkpt lat="44.92118" lon="3.32659">
        <ele>990.2</ele>
        <time>2022-06-08T12:47:07Z</time>
      </trkpt>
      <trkpt lat="44.92112" lon="3.32655">
        <ele>989.7</ele>
        <time>2022-06-08T12:47:16Z</time>
      </trkpt>
      <trkpt lat="44.92108" lon="3.32653">
        <ele>989.4</ele>
        <time>2022-06-08T12:47:22Z</time>
      </trkpt>
      <trkpt lat="44.92103" lon="3.32653">
        <ele>989.4</ele>
        <time>2022-06-08T12:47:26Z</time>
      </trkpt>
      <trkpt lat="44.92098" lon="3.32652">
        <ele>989.5</ele>
        <time>2022-06-08T12:47:29Z</time>
      </trkpt>
      <trkpt lat="44.92092" lon="3.32649">
        <ele>990</ele>
        <time>2022-06-08T12:47:35Z</time>
      </trkpt>
      <trkpt lat="44.92088" lon="3.32648">
        <ele>990.2</ele>
        <time>2022-06-08T12:47:39Z</time>
      </trkpt>
      <trkpt lat="44.92083" lon="3.32648">
        <ele>990.2</ele>
        <time>2022-06-08T12:47:44Z</time>
      </trkpt>
      <trkpt lat="44.92078" lon="3.32646">
        <ele>990</ele>
        <time>2022-06-08T12:47:47Z</time>
      </trkpt>
      <trkpt lat="44.92073" lon="3.32643">
        <ele>989.6</ele>
        <time>2022-06-08T12:47:55Z</time>
      </trkpt>
      <trkpt lat="44.92068" lon="3.32642">
        <ele>989.8</ele>
        <time>2022-06-08T12:48:00Z</time>
      </trkpt>
      <trkpt lat="44.92063" lon="3.32641">
        <ele>989.2</ele>
        <time>2022-06-08T12:48:07Z</time>
      </trkpt>
      <trkpt lat="44.92059" lon="3.3264">
        <ele>989.1</ele>
        <time>2022-06-08T12:48:10Z</time>
      </trkpt>
      <trkpt lat="44.92054" lon="3.3264">
        <ele>989</ele>
        <time>2022-06-08T12:48:17Z</time>
      </trkpt>
      <trkpt lat="44.92049" lon="3.32639">
        <ele>989.1</ele>
        <time>2022-06-08T12:48:20Z</time>
      </trkpt>
      <trkpt lat="44.92044" lon="3.32638">
        <ele>988.5</ele>
        <time>2022-06-08T12:48:24Z</time>
      </trkpt>
      <trkpt lat="44.92039" lon="3.32635">
        <ele>986.7</ele>
        <time>2022-06-08T12:48:31Z</time>
      </trkpt>
      <trkpt lat="44.92035" lon="3.32635">
        <ele>985.7</ele>
        <time>2022-06-08T12:48:37Z</time>
      </trkpt>
      <trkpt lat="44.9203" lon="3.32633">
        <ele>984.5</ele>
        <time>2022-06-08T12:48:42Z</time>
      </trkpt>
      <trkpt lat="44.92025" lon="3.32633">
        <ele>984.5</ele>
        <time>2022-06-08T12:48:47Z</time>
      </trkpt>
      <trkpt lat="44.9202" lon="3.32632">
        <ele>984.4</ele>
        <time>2022-06-08T12:48:50Z</time>
      </trkpt>
      <trkpt lat="44.92015" lon="3.32631">
        <ele>983.6</ele>
        <time>2022-06-08T12:48:59Z</time>
      </trkpt>
      <trkpt lat="44.92008" lon="3.32631">
        <ele>984.2</ele>
        <time>2022-06-08T12:49:02Z</time>
      </trkpt>
      <trkpt lat="44.92003" lon="3.32631">
        <ele>984.2</ele>
        <time>2022-06-08T12:49:04Z</time>
      </trkpt>
      <trkpt lat="44.91998" lon="3.32629">
        <ele>984.9</ele>
        <time>2022-06-08T12:49:14Z</time>
      </trkpt>
      <trkpt lat="44.91993" lon="3.32628">
        <ele>985</ele>
        <time>2022-06-08T12:49:18Z</time>
      </trkpt>
      <trkpt lat="44.91988" lon="3.32626">
        <ele>984.6</ele>
        <time>2022-06-08T12:49:22Z</time>
      </trkpt>
      <trkpt lat="44.91984" lon="3.32623">
        <ele>984.1</ele>
        <time>2022-06-08T12:49:28Z</time>
      </trkpt>
      <trkpt lat="44.91978" lon="3.32625">
        <ele>981.9</ele>
        <time>2022-06-08T12:49:47Z</time>
      </trkpt>
      <trkpt lat="44.91974" lon="3.32624">
        <ele>981.8</ele>
        <time>2022-06-08T12:49:49Z</time>
      </trkpt>
      <trkpt lat="44.91968" lon="3.32623">
        <ele>982</ele>
        <time>2022-06-08T12:49:52Z</time>
      </trkpt>
      <trkpt lat="44.91963" lon="3.32621">
        <ele>982.1</ele>
        <time>2022-06-08T12:49:58Z</time>
      </trkpt>
      <trkpt lat="44.91959" lon="3.32618">
        <ele>983.4</ele>
        <time>2022-06-08T12:50:04Z</time>
      </trkpt>
      <trkpt lat="44.91954" lon="3.32615">
        <ele>984.2</ele>
        <time>2022-06-08T12:50:10Z</time>
      </trkpt>
      <trkpt lat="44.91949" lon="3.32612">
        <ele>983.8</ele>
        <time>2022-06-08T12:50:15Z</time>
      </trkpt>
      <trkpt lat="44.91945" lon="3.32608">
        <ele>981.9</ele>
        <time>2022-06-08T12:50:22Z</time>
      </trkpt>
      <trkpt lat="44.91939" lon="3.32606">
        <ele>980.9</ele>
        <time>2022-06-08T12:50:26Z</time>
      </trkpt>
      <trkpt lat="44.91934" lon="3.32603">
        <ele>978.6</ele>
        <time>2022-06-08T12:50:33Z</time>
      </trkpt>
      <trkpt lat="44.91929" lon="3.326">
        <ele>978.2</ele>
        <time>2022-06-08T12:50:37Z</time>
      </trkpt>
      <trkpt lat="44.91925" lon="3.32597">
        <ele>977.3</ele>
        <time>2022-06-08T12:50:45Z</time>
      </trkpt>
      <trkpt lat="44.9192" lon="3.32596">
        <ele>975.5</ele>
        <time>2022-06-08T12:50:52Z</time>
      </trkpt>
      <trkpt lat="44.91916" lon="3.32595">
        <ele>975.1</ele>
        <time>2022-06-08T12:51:06Z</time>
      </trkpt>
      <trkpt lat="44.91912" lon="3.32591">
        <ele>974.7</ele>
        <time>2022-06-08T12:51:12Z</time>
      </trkpt>
      <trkpt lat="44.91908" lon="3.32589">
        <ele>973.4</ele>
        <time>2022-06-08T12:51:23Z</time>
      </trkpt>
      <trkpt lat="44.91904" lon="3.32583">
        <ele>970.2</ele>
        <time>2022-06-08T12:51:43Z</time>
      </trkpt>
      <trkpt lat="44.91902" lon="3.32576">
        <ele>969</ele>
        <time>2022-06-08T12:51:55Z</time>
      </trkpt>
      <trkpt lat="44.91898" lon="3.32572">
        <ele>968.5</ele>
        <time>2022-06-08T12:52:18Z</time>
      </trkpt>
      <trkpt lat="44.91894" lon="3.32567">
        <ele>966.2</ele>
        <time>2022-06-08T12:52:25Z</time>
      </trkpt>
      <trkpt lat="44.91891" lon="3.32562">
        <ele>965.5</ele>
        <time>2022-06-08T12:52:33Z</time>
      </trkpt>
      <trkpt lat="44.91887" lon="3.32558">
        <ele>968.3</ele>
        <time>2022-06-08T12:53:06Z</time>
      </trkpt>
      <trkpt lat="44.91883" lon="3.32554">
        <ele>968.4</ele>
        <time>2022-06-08T12:53:10Z</time>
      </trkpt>
      <trkpt lat="44.91879" lon="3.32549">
        <ele>968.8</ele>
        <time>2022-06-08T12:53:14Z</time>
      </trkpt>
      <trkpt lat="44.91875" lon="3.32543">
        <ele>968.4</ele>
        <time>2022-06-08T12:53:20Z</time>
      </trkpt>
      <trkpt lat="44.91875" lon="3.32537">
        <ele>967.3</ele>
        <time>2022-06-08T12:53:34Z</time>
      </trkpt>
      <trkpt lat="44.91872" lon="3.32531">
        <ele>966.4</ele>
        <time>2022-06-08T12:53:39Z</time>
      </trkpt>
      <trkpt lat="44.91871" lon="3.32523">
        <ele>965.1</ele>
        <time>2022-06-08T12:53:43Z</time>
      </trkpt>
      <trkpt lat="44.9187" lon="3.32515">
        <ele>964.7</ele>
        <time>2022-06-08T12:53:47Z</time>
      </trkpt>
      <trkpt lat="44.91869" lon="3.32507">
        <ele>964.8</ele>
        <time>2022-06-08T12:53:50Z</time>
      </trkpt>
      <trkpt lat="44.91869" lon="3.32501">
        <ele>965.3</ele>
        <time>2022-06-08T12:53:53Z</time>
      </trkpt>
      <trkpt lat="44.91869" lon="3.32494">
        <ele>965.8</ele>
        <time>2022-06-08T12:53:56Z</time>
      </trkpt>
      <trkpt lat="44.9187" lon="3.32487">
        <ele>966.1</ele>
        <time>2022-06-08T12:53:59Z</time>
      </trkpt>
      <trkpt lat="44.91871" lon="3.3248">
        <ele>965.6</ele>
        <time>2022-06-08T12:54:03Z</time>
      </trkpt>
      <trkpt lat="44.91871" lon="3.32473">
        <ele>962.5</ele>
        <time>2022-06-08T12:54:14Z</time>
      </trkpt>
      <trkpt lat="44.91866" lon="3.32469">
        <ele>960.9</ele>
        <time>2022-06-08T12:54:26Z</time>
      </trkpt>
      <trkpt lat="44.91863" lon="3.32463">
        <ele>960.9</ele>
        <time>2022-06-08T12:54:30Z</time>
      </trkpt>
      <trkpt lat="44.91862" lon="3.32456">
        <ele>958.7</ele>
        <time>2022-06-08T12:54:42Z</time>
      </trkpt>
      <trkpt lat="44.91858" lon="3.32451">
        <ele>958.3</ele>
        <time>2022-06-08T12:54:48Z</time>
      </trkpt>
      <trkpt lat="44.91854" lon="3.32446">
        <ele>958.2</ele>
        <time>2022-06-08T12:54:53Z</time>
      </trkpt>
      <trkpt lat="44.91851" lon="3.3244">
        <ele>957</ele>
        <time>2022-06-08T12:54:57Z</time>
      </trkpt>
      <trkpt lat="44.91848" lon="3.32434">
        <ele>955</ele>
        <time>2022-06-08T12:55:02Z</time>
      </trkpt>
      <trkpt lat="44.91846" lon="3.32428">
        <ele>953.3</ele>
        <time>2022-06-08T12:55:11Z</time>
      </trkpt>
      <trkpt lat="44.91841" lon="3.32425">
        <ele>952.9</ele>
        <time>2022-06-08T12:55:19Z</time>
      </trkpt>
      <trkpt lat="44.91836" lon="3.32424">
        <ele>952.5</ele>
        <time>2022-06-08T12:55:24Z</time>
      </trkpt>
      <trkpt lat="44.91832" lon="3.32422">
        <ele>950.9</ele>
        <time>2022-06-08T12:55:32Z</time>
      </trkpt>
      <trkpt lat="44.91827" lon="3.32422">
        <ele>949.4</ele>
        <time>2022-06-08T12:55:43Z</time>
      </trkpt>
      <trkpt lat="44.91822" lon="3.3242">
        <ele>949.7</ele>
        <time>2022-06-08T12:55:47Z</time>
      </trkpt>
      <trkpt lat="44.91818" lon="3.32418">
        <ele>949.2</ele>
        <time>2022-06-08T12:55:50Z</time>
      </trkpt>
      <trkpt lat="44.91814" lon="3.32415">
        <ele>948.2</ele>
        <time>2022-06-08T12:55:55Z</time>
      </trkpt>
      <trkpt lat="44.91808" lon="3.32414">
        <ele>947.4</ele>
        <time>2022-06-08T12:56:00Z</time>
      </trkpt>
      <trkpt lat="44.91803" lon="3.32413">
        <ele>946.3</ele>
        <time>2022-06-08T12:56:04Z</time>
      </trkpt>
      <trkpt lat="44.91798" lon="3.32412">
        <ele>945.1</ele>
        <time>2022-06-08T12:56:08Z</time>
      </trkpt>
      <trkpt lat="44.91793" lon="3.3241">
        <ele>943.9</ele>
        <time>2022-06-08T12:56:16Z</time>
      </trkpt>
      <trkpt lat="44.9179" lon="3.32404">
        <ele>942</ele>
        <time>2022-06-08T12:56:26Z</time>
      </trkpt>
      <trkpt lat="44.91786" lon="3.32399">
        <ele>942</ele>
        <time>2022-06-08T12:56:30Z</time>
      </trkpt>
      <trkpt lat="44.91782" lon="3.32394">
        <ele>941.5</ele>
        <time>2022-06-08T12:56:35Z</time>
      </trkpt>
      <trkpt lat="44.91778" lon="3.3239">
        <ele>940.3</ele>
        <time>2022-06-08T12:56:41Z</time>
      </trkpt>
      <trkpt lat="44.91775" lon="3.32384">
        <ele>940.5</ele>
        <time>2022-06-08T12:56:44Z</time>
      </trkpt>
      <trkpt lat="44.91771" lon="3.32379">
        <ele>940.2</ele>
        <time>2022-06-08T12:56:47Z</time>
      </trkpt>
      <trkpt lat="44.91767" lon="3.32374">
        <ele>936.9</ele>
        <time>2022-06-08T12:57:04Z</time>
      </trkpt>
      <trkpt lat="44.91763" lon="3.32372">
        <ele>935.3</ele>
        <time>2022-06-08T12:57:13Z</time>
      </trkpt>
      <trkpt lat="44.91758" lon="3.32368">
        <ele>934.9</ele>
        <time>2022-06-08T12:57:18Z</time>
      </trkpt>
      <trkpt lat="44.91753" lon="3.32365">
        <ele>934.6</ele>
        <time>2022-06-08T12:57:22Z</time>
      </trkpt>
      <trkpt lat="44.9175" lon="3.32361">
        <ele>934.8</ele>
        <time>2022-06-08T12:57:26Z</time>
      </trkpt>
      <trkpt lat="44.91746" lon="3.32354">
        <ele>934.3</ele>
        <time>2022-06-08T12:57:32Z</time>
      </trkpt>
      <trkpt lat="44.91744" lon="3.32346">
        <ele>934.2</ele>
        <time>2022-06-08T12:57:35Z</time>
      </trkpt>
      <trkpt lat="44.91741" lon="3.3234">
        <ele>934.2</ele>
        <time>2022-06-08T12:57:38Z</time>
      </trkpt>
      <trkpt lat="44.91737" lon="3.32336">
        <ele>934</ele>
        <time>2022-06-08T12:57:42Z</time>
      </trkpt>
      <trkpt lat="44.91733" lon="3.32331">
        <ele>934.3</ele>
        <time>2022-06-08T12:57:47Z</time>
      </trkpt>
      <trkpt lat="44.91729" lon="3.32326">
        <ele>934.4</ele>
        <time>2022-06-08T12:57:52Z</time>
      </trkpt>
      <trkpt lat="44.91725" lon="3.32325">
        <ele>931.5</ele>
        <time>2022-06-08T12:58:53Z</time>
      </trkpt>
      <trkpt lat="44.91723" lon="3.32331">
        <ele>932</ele>
        <time>2022-06-08T12:58:59Z</time>
      </trkpt>
      <trkpt lat="44.91724" lon="3.32338">
        <ele>931</ele>
        <time>2022-06-08T12:59:14Z</time>
      </trkpt>
      <trkpt lat="44.91724" lon="3.32345">
        <ele>931.3</ele>
        <time>2022-06-08T12:59:21Z</time>
      </trkpt>
      <trkpt lat="44.91724" lon="3.32353">
        <ele>931.9</ele>
        <time>2022-06-08T12:59:25Z</time>
      </trkpt>
      <trkpt lat="44.91726" lon="3.32358">
        <ele>932.9</ele>
        <time>2022-06-08T12:59:35Z</time>
      </trkpt>
      <trkpt lat="44.91729" lon="3.32367">
        <ele>932</ele>
        <time>2022-06-08T12:59:39Z</time>
      </trkpt>
      <trkpt lat="44.9173" lon="3.32375">
        <ele>931</ele>
        <time>2022-06-08T12:59:42Z</time>
      </trkpt>
      <trkpt lat="44.91733" lon="3.32381">
        <ele>929.3</ele>
        <time>2022-06-08T12:59:47Z</time>
      </trkpt>
      <trkpt lat="44.91735" lon="3.32388">
        <ele>928.3</ele>
        <time>2022-06-08T12:59:58Z</time>
      </trkpt>
      <trkpt lat="44.91737" lon="3.32393">
        <ele>928</ele>
        <time>2022-06-08T13:00:02Z</time>
      </trkpt>
      <trkpt lat="44.91739" lon="3.324">
        <ele>929.3</ele>
        <time>2022-06-08T13:00:07Z</time>
      </trkpt>
      <trkpt lat="44.91742" lon="3.32406">
        <ele>929</ele>
        <time>2022-06-08T13:00:11Z</time>
      </trkpt>
      <trkpt lat="44.91744" lon="3.32411">
        <ele>928.9</ele>
        <time>2022-06-08T13:00:14Z</time>
      </trkpt>
      <trkpt lat="44.91746" lon="3.32417">
        <ele>930.2</ele>
        <time>2022-06-08T13:00:23Z</time>
      </trkpt>
      <trkpt lat="44.91748" lon="3.32423">
        <ele>930.2</ele>
        <time>2022-06-08T13:00:27Z</time>
      </trkpt>
      <trkpt lat="44.9175" lon="3.32431">
        <ele>930.3</ele>
        <time>2022-06-08T13:00:33Z</time>
      </trkpt>
      <trkpt lat="44.91751" lon="3.32439">
        <ele>930.6</ele>
        <time>2022-06-08T13:00:36Z</time>
      </trkpt>
      <trkpt lat="44.91752" lon="3.32447">
        <ele>931.9</ele>
        <time>2022-06-08T13:00:45Z</time>
      </trkpt>
      <trkpt lat="44.91753" lon="3.32455">
        <ele>932.1</ele>
        <time>2022-06-08T13:00:48Z</time>
      </trkpt>
      <trkpt lat="44.91755" lon="3.3246">
        <ele>932.2</ele>
        <time>2022-06-08T13:00:55Z</time>
      </trkpt>
      <trkpt lat="44.91756" lon="3.32468">
        <ele>932.5</ele>
        <time>2022-06-08T13:01:00Z</time>
      </trkpt>
      <trkpt lat="44.91757" lon="3.32475">
        <ele>931.9</ele>
        <time>2022-06-08T13:01:03Z</time>
      </trkpt>
      <trkpt lat="44.91758" lon="3.32481">
        <ele>930.6</ele>
        <time>2022-06-08T13:01:10Z</time>
      </trkpt>
      <trkpt lat="44.91759" lon="3.32488">
        <ele>930.2</ele>
        <time>2022-06-08T13:01:14Z</time>
      </trkpt>
      <trkpt lat="44.91762" lon="3.32494">
        <ele>930.4</ele>
        <time>2022-06-08T13:01:22Z</time>
      </trkpt>
      <trkpt lat="44.91762" lon="3.32503">
        <ele>930</ele>
        <time>2022-06-08T13:01:26Z</time>
      </trkpt>
      <trkpt lat="44.91761" lon="3.3251">
        <ele>929.9</ele>
        <time>2022-06-08T13:01:33Z</time>
      </trkpt>
      <trkpt lat="44.9176" lon="3.32517">
        <ele>929.6</ele>
        <time>2022-06-08T13:01:36Z</time>
      </trkpt>
      <trkpt lat="44.91759" lon="3.32523">
        <ele>929.5</ele>
        <time>2022-06-08T13:01:43Z</time>
      </trkpt>
      <trkpt lat="44.91757" lon="3.3253">
        <ele>930.4</ele>
        <time>2022-06-08T13:01:47Z</time>
      </trkpt>
      <trkpt lat="44.91756" lon="3.32537">
        <ele>931.3</ele>
        <time>2022-06-08T13:01:53Z</time>
      </trkpt>
      <trkpt lat="44.91752" lon="3.32541">
        <ele>931.1</ele>
        <time>2022-06-08T13:01:57Z</time>
      </trkpt>
      <trkpt lat="44.91748" lon="3.32545">
        <ele>927.7</ele>
        <time>2022-06-08T13:02:19Z</time>
      </trkpt>
      <trkpt lat="44.91745" lon="3.32551">
        <ele>927.5</ele>
        <time>2022-06-08T13:02:22Z</time>
      </trkpt>
      <trkpt lat="44.91744" lon="3.32557">
        <ele>927.7</ele>
        <time>2022-06-08T13:02:26Z</time>
      </trkpt>
      <trkpt lat="44.91744" lon="3.32565">
        <ele>928.4</ele>
        <time>2022-06-08T13:02:37Z</time>
      </trkpt>
      <trkpt lat="44.91742" lon="3.3257">
        <ele>928.1</ele>
        <time>2022-06-08T13:02:50Z</time>
      </trkpt>
      <trkpt lat="44.91737" lon="3.3257">
        <ele>926.4</ele>
        <time>2022-06-08T13:02:58Z</time>
      </trkpt>
      <trkpt lat="44.91732" lon="3.32569">
        <ele>925.8</ele>
        <time>2022-06-08T13:03:01Z</time>
      </trkpt>
      <trkpt lat="44.91729" lon="3.32573">
        <ele>926.4</ele>
        <time>2022-06-08T13:03:09Z</time>
      </trkpt>
      <trkpt lat="44.91725" lon="3.32576">
        <ele>925.8</ele>
        <time>2022-06-08T13:03:14Z</time>
      </trkpt>
      <trkpt lat="44.9172" lon="3.32579">
        <ele>925</ele>
        <time>2022-06-08T13:03:18Z</time>
      </trkpt>
      <trkpt lat="44.91715" lon="3.32581">
        <ele>924.1</ele>
        <time>2022-06-08T13:03:23Z</time>
      </trkpt>
      <trkpt lat="44.9171" lon="3.32582">
        <ele>922.8</ele>
        <time>2022-06-08T13:03:27Z</time>
      </trkpt>
      <trkpt lat="44.91708" lon="3.32587">
        <ele>914.8</ele>
        <time>2022-06-08T13:05:45Z</time>
      </trkpt>
      <trkpt lat="44.91703" lon="3.32588">
        <ele>915.9</ele>
        <time>2022-06-08T13:05:51Z</time>
      </trkpt>
      <trkpt lat="44.91701" lon="3.32594">
        <ele>914.7</ele>
        <time>2022-06-08T13:06:12Z</time>
      </trkpt>
      <trkpt lat="44.91703" lon="3.32601">
        <ele>914.5</ele>
        <time>2022-06-08T13:06:20Z</time>
      </trkpt>
      <trkpt lat="44.91705" lon="3.32606">
        <ele>914.9</ele>
        <time>2022-06-08T13:06:28Z</time>
      </trkpt>
      <trkpt lat="44.91709" lon="3.32611">
        <ele>916.1</ele>
        <time>2022-06-08T13:06:38Z</time>
      </trkpt>
      <trkpt lat="44.91711" lon="3.32617">
        <ele>916.9</ele>
        <time>2022-06-08T13:06:48Z</time>
      </trkpt>
      <trkpt lat="44.91715" lon="3.3262">
        <ele>917.5</ele>
        <time>2022-06-08T13:07:06Z</time>
      </trkpt>
      <trkpt lat="44.91712" lon="3.32615">
        <ele>919.4</ele>
        <time>2022-06-08T13:08:30Z</time>
      </trkpt>
      <trkpt lat="44.91709" lon="3.3261">
        <ele>918.1</ele>
        <time>2022-06-08T13:08:33Z</time>
      </trkpt>
      <trkpt lat="44.91705" lon="3.32605">
        <ele>916.7</ele>
        <time>2022-06-08T13:08:37Z</time>
      </trkpt>
      <trkpt lat="44.91703" lon="3.32598">
        <ele>915.5</ele>
        <time>2022-06-08T13:08:43Z</time>
      </trkpt>
      <trkpt lat="44.91706" lon="3.32593">
        <ele>914.4</ele>
        <time>2022-06-08T13:08:47Z</time>
      </trkpt>
      <trkpt lat="44.91705" lon="3.326">
        <ele>914</ele>
        <time>2022-06-08T13:09:36Z</time>
      </trkpt>
      <trkpt lat="44.91708" lon="3.32606">
        <ele>913.9</ele>
        <time>2022-06-08T13:09:42Z</time>
      </trkpt>
      <trkpt lat="44.9171" lon="3.32612">
        <ele>913.4</ele>
        <time>2022-06-08T13:09:47Z</time>
      </trkpt>
      <trkpt lat="44.91713" lon="3.32617">
        <ele>912.5</ele>
        <time>2022-06-08T13:09:54Z</time>
      </trkpt>
      <trkpt lat="44.91709" lon="3.32618">
        <ele>917.7</ele>
        <time>2022-06-08T13:25:55Z</time>
      </trkpt>
      <trkpt lat="44.91704" lon="3.32617">
        <ele>916.7</ele>
        <time>2022-06-08T13:27:12Z</time>
      </trkpt>
      <trkpt lat="44.91702" lon="3.32611">
        <ele>915.9</ele>
        <time>2022-06-08T13:27:17Z</time>
      </trkpt>
      <trkpt lat="44.917" lon="3.32605">
        <ele>915.2</ele>
        <time>2022-06-08T13:27:22Z</time>
      </trkpt>
      <trkpt lat="44.91699" lon="3.32599">
        <ele>914.6</ele>
        <time>2022-06-08T13:27:27Z</time>
      </trkpt>
      <trkpt lat="44.91698" lon="3.32591">
        <ele>914.5</ele>
        <time>2022-06-08T13:27:33Z</time>
      </trkpt>
      <trkpt lat="44.91697" lon="3.32585">
        <ele>914.2</ele>
        <time>2022-06-08T13:27:40Z</time>
      </trkpt>
      <trkpt lat="44.91694" lon="3.3258">
        <ele>914</ele>
        <time>2022-06-08T13:27:48Z</time>
      </trkpt>
      <trkpt lat="44.91691" lon="3.32575">
        <ele>913.2</ele>
        <time>2022-06-08T13:27:57Z</time>
      </trkpt>
      <trkpt lat="44.91689" lon="3.32569">
        <ele>912.8</ele>
        <time>2022-06-08T13:28:04Z</time>
      </trkpt>
      <trkpt lat="44.91687" lon="3.32563">
        <ele>912.7</ele>
        <time>2022-06-08T13:28:10Z</time>
      </trkpt>
      <trkpt lat="44.91685" lon="3.32557">
        <ele>910</ele>
        <time>2022-06-08T13:28:17Z</time>
      </trkpt>
      <trkpt lat="44.91687" lon="3.32552">
        <ele>909</ele>
        <time>2022-06-08T13:28:35Z</time>
      </trkpt>
      <trkpt lat="44.91683" lon="3.32557">
        <ele>911</ele>
        <time>2022-06-08T13:28:52Z</time>
      </trkpt>
      <trkpt lat="44.91679" lon="3.3256">
        <ele>912.8</ele>
        <time>2022-06-08T13:28:58Z</time>
      </trkpt>
      <trkpt lat="44.91674" lon="3.3256">
        <ele>914</ele>
        <time>2022-06-08T13:29:03Z</time>
      </trkpt>
      <trkpt lat="44.91669" lon="3.32556">
        <ele>914.4</ele>
        <time>2022-06-08T13:29:08Z</time>
      </trkpt>
      <trkpt lat="44.91665" lon="3.32557">
        <ele>914</ele>
        <time>2022-06-08T13:29:12Z</time>
      </trkpt>
      <trkpt lat="44.9166" lon="3.32559">
        <ele>915.2</ele>
        <time>2022-06-08T13:29:17Z</time>
      </trkpt>
      <trkpt lat="44.91654" lon="3.3256">
        <ele>916.7</ele>
        <time>2022-06-08T13:29:22Z</time>
      </trkpt>
      <trkpt lat="44.9165" lon="3.32561">
        <ele>916.7</ele>
        <time>2022-06-08T13:29:31Z</time>
      </trkpt>
      <trkpt lat="44.91645" lon="3.3256">
        <ele>916.9</ele>
        <time>2022-06-08T13:29:37Z</time>
      </trkpt>
      <trkpt lat="44.9164" lon="3.3256">
        <ele>917</ele>
        <time>2022-06-08T13:29:42Z</time>
      </trkpt>
      <trkpt lat="44.91634" lon="3.32558">
        <ele>916</ele>
        <time>2022-06-08T13:29:47Z</time>
      </trkpt>
      <trkpt lat="44.9163" lon="3.32556">
        <ele>915.1</ele>
        <time>2022-06-08T13:29:51Z</time>
      </trkpt>
      <trkpt lat="44.91625" lon="3.32554">
        <ele>914.7</ele>
        <time>2022-06-08T13:29:55Z</time>
      </trkpt>
      <trkpt lat="44.91621" lon="3.32555">
        <ele>916.1</ele>
        <time>2022-06-08T13:30:04Z</time>
      </trkpt>
      <trkpt lat="44.91616" lon="3.32555">
        <ele>915.8</ele>
        <time>2022-06-08T13:30:09Z</time>
      </trkpt>
      <trkpt lat="44.91611" lon="3.32554">
        <ele>915.7</ele>
        <time>2022-06-08T13:30:14Z</time>
      </trkpt>
      <trkpt lat="44.91606" lon="3.32553">
        <ele>915</ele>
        <time>2022-06-08T13:30:20Z</time>
      </trkpt>
      <trkpt lat="44.91601" lon="3.32555">
        <ele>914.3</ele>
        <time>2022-06-08T13:30:25Z</time>
      </trkpt>
      <trkpt lat="44.91596" lon="3.32555">
        <ele>914.2</ele>
        <time>2022-06-08T13:30:29Z</time>
      </trkpt>
      <trkpt lat="44.91591" lon="3.32555">
        <ele>914.6</ele>
        <time>2022-06-08T13:30:35Z</time>
      </trkpt>
      <trkpt lat="44.91587" lon="3.32552">
        <ele>913.9</ele>
        <time>2022-06-08T13:30:49Z</time>
      </trkpt>
      <trkpt lat="44.91582" lon="3.32551">
        <ele>913.1</ele>
        <time>2022-06-08T13:30:55Z</time>
      </trkpt>
      <trkpt lat="44.91578" lon="3.32552">
        <ele>912.9</ele>
        <time>2022-06-08T13:30:59Z</time>
      </trkpt>
      <trkpt lat="44.91573" lon="3.32551">
        <ele>913.5</ele>
        <time>2022-06-08T13:31:05Z</time>
      </trkpt>
      <trkpt lat="44.91567" lon="3.32553">
        <ele>913.1</ele>
        <time>2022-06-08T13:31:10Z</time>
      </trkpt>
      <trkpt lat="44.91563" lon="3.32554">
        <ele>913.1</ele>
        <time>2022-06-08T13:31:14Z</time>
      </trkpt>
      <trkpt lat="44.91557" lon="3.32555">
        <ele>913.7</ele>
        <time>2022-06-08T13:31:19Z</time>
      </trkpt>
      <trkpt lat="44.91553" lon="3.32555">
        <ele>913.8</ele>
        <time>2022-06-08T13:31:23Z</time>
      </trkpt>
      <trkpt lat="44.91548" lon="3.32556">
        <ele>913.9</ele>
        <time>2022-06-08T13:31:27Z</time>
      </trkpt>
      <trkpt lat="44.91543" lon="3.32557">
        <ele>913.8</ele>
        <time>2022-06-08T13:31:32Z</time>
      </trkpt>
      <trkpt lat="44.91538" lon="3.32557">
        <ele>913.2</ele>
        <time>2022-06-08T13:31:45Z</time>
      </trkpt>
      <trkpt lat="44.91533" lon="3.32559">
        <ele>913.8</ele>
        <time>2022-06-08T13:31:51Z</time>
      </trkpt>
      <trkpt lat="44.9153" lon="3.32563">
        <ele>914.6</ele>
        <time>2022-06-08T13:32:05Z</time>
      </trkpt>
      <trkpt lat="44.91525" lon="3.32566">
        <ele>915.5</ele>
        <time>2022-06-08T13:32:09Z</time>
      </trkpt>
      <trkpt lat="44.91521" lon="3.32569">
        <ele>916.3</ele>
        <time>2022-06-08T13:32:13Z</time>
      </trkpt>
      <trkpt lat="44.91516" lon="3.3257">
        <ele>918.1</ele>
        <time>2022-06-08T13:32:28Z</time>
      </trkpt>
      <trkpt lat="44.91511" lon="3.32573">
        <ele>918.1</ele>
        <time>2022-06-08T13:32:33Z</time>
      </trkpt>
      <trkpt lat="44.91507" lon="3.32574">
        <ele>918.7</ele>
        <time>2022-06-08T13:32:37Z</time>
      </trkpt>
      <trkpt lat="44.91502" lon="3.32576">
        <ele>918.9</ele>
        <time>2022-06-08T13:32:42Z</time>
      </trkpt>
      <trkpt lat="44.91497" lon="3.32576">
        <ele>919.3</ele>
        <time>2022-06-08T13:32:46Z</time>
      </trkpt>
      <trkpt lat="44.91492" lon="3.32576">
        <ele>919.6</ele>
        <time>2022-06-08T13:32:50Z</time>
      </trkpt>
      <trkpt lat="44.91488" lon="3.32577">
        <ele>919.4</ele>
        <time>2022-06-08T13:32:54Z</time>
      </trkpt>
      <trkpt lat="44.91483" lon="3.32578">
        <ele>918.6</ele>
        <time>2022-06-08T13:33:00Z</time>
      </trkpt>
      <trkpt lat="44.91478" lon="3.32578">
        <ele>918.9</ele>
        <time>2022-06-08T13:33:13Z</time>
      </trkpt>
      <trkpt lat="44.91473" lon="3.32578">
        <ele>919.4</ele>
        <time>2022-06-08T13:33:17Z</time>
      </trkpt>
      <trkpt lat="44.91468" lon="3.32578">
        <ele>919.9</ele>
        <time>2022-06-08T13:33:21Z</time>
      </trkpt>
      <trkpt lat="44.91463" lon="3.3258">
        <ele>920.6</ele>
        <time>2022-06-08T13:33:26Z</time>
      </trkpt>
      <trkpt lat="44.91458" lon="3.32579">
        <ele>921.2</ele>
        <time>2022-06-08T13:33:31Z</time>
      </trkpt>
      <trkpt lat="44.91453" lon="3.32578">
        <ele>921.3</ele>
        <time>2022-06-08T13:33:35Z</time>
      </trkpt>
      <trkpt lat="44.91448" lon="3.32578">
        <ele>921.5</ele>
        <time>2022-06-08T13:33:39Z</time>
      </trkpt>
      <trkpt lat="44.91443" lon="3.32576">
        <ele>922.4</ele>
        <time>2022-06-08T13:33:44Z</time>
      </trkpt>
      <trkpt lat="44.91438" lon="3.32576">
        <ele>922.6</ele>
        <time>2022-06-08T13:33:49Z</time>
      </trkpt>
      <trkpt lat="44.91432" lon="3.32575">
        <ele>923.3</ele>
        <time>2022-06-08T13:33:54Z</time>
      </trkpt>
      <trkpt lat="44.91427" lon="3.32575">
        <ele>923.4</ele>
        <time>2022-06-08T13:33:58Z</time>
      </trkpt>
      <trkpt lat="44.91422" lon="3.32573">
        <ele>923.2</ele>
        <time>2022-06-08T13:34:03Z</time>
      </trkpt>
      <trkpt lat="44.91417" lon="3.32572">
        <ele>923.6</ele>
        <time>2022-06-08T13:34:08Z</time>
      </trkpt>
      <trkpt lat="44.91412" lon="3.3257">
        <ele>923.3</ele>
        <time>2022-06-08T13:34:13Z</time>
      </trkpt>
      <trkpt lat="44.91408" lon="3.3257">
        <ele>923.2</ele>
        <time>2022-06-08T13:34:18Z</time>
      </trkpt>
      <trkpt lat="44.91403" lon="3.32568">
        <ele>923.4</ele>
        <time>2022-06-08T13:34:23Z</time>
      </trkpt>
      <trkpt lat="44.91399" lon="3.32565">
        <ele>923.5</ele>
        <time>2022-06-08T13:34:28Z</time>
      </trkpt>
      <trkpt lat="44.91394" lon="3.32565">
        <ele>923.8</ele>
        <time>2022-06-08T13:34:35Z</time>
      </trkpt>
      <trkpt lat="44.91388" lon="3.32565">
        <ele>923.7</ele>
        <time>2022-06-08T13:34:40Z</time>
      </trkpt>
      <trkpt lat="44.91383" lon="3.32565">
        <ele>924</ele>
        <time>2022-06-08T13:34:56Z</time>
      </trkpt>
      <trkpt lat="44.91378" lon="3.32567">
        <ele>925.4</ele>
        <time>2022-06-08T13:35:02Z</time>
      </trkpt>
      <trkpt lat="44.91373" lon="3.32567">
        <ele>927.7</ele>
        <time>2022-06-08T13:35:09Z</time>
      </trkpt>
      <trkpt lat="44.91368" lon="3.32569">
        <ele>929</ele>
        <time>2022-06-08T13:35:15Z</time>
      </trkpt>
      <trkpt lat="44.91363" lon="3.32571">
        <ele>929.1</ele>
        <time>2022-06-08T13:35:20Z</time>
      </trkpt>
      <trkpt lat="44.91358" lon="3.32573">
        <ele>928.9</ele>
        <time>2022-06-08T13:35:26Z</time>
      </trkpt>
      <trkpt lat="44.91353" lon="3.32573">
        <ele>929.7</ele>
        <time>2022-06-08T13:35:32Z</time>
      </trkpt>
      <trkpt lat="44.91349" lon="3.32574">
        <ele>930.5</ele>
        <time>2022-06-08T13:35:37Z</time>
      </trkpt>
      <trkpt lat="44.91344" lon="3.32575">
        <ele>932</ele>
        <time>2022-06-08T13:35:42Z</time>
      </trkpt>
      <trkpt lat="44.91339" lon="3.32576">
        <ele>934</ele>
        <time>2022-06-08T13:35:46Z</time>
      </trkpt>
      <trkpt lat="44.91334" lon="3.32576">
        <ele>935.4</ele>
        <time>2022-06-08T13:35:51Z</time>
      </trkpt>
      <trkpt lat="44.91329" lon="3.32577">
        <ele>935.5</ele>
        <time>2022-06-08T13:35:57Z</time>
      </trkpt>
      <trkpt lat="44.91324" lon="3.32579">
        <ele>936.1</ele>
        <time>2022-06-08T13:36:17Z</time>
      </trkpt>
      <trkpt lat="44.91318" lon="3.32579">
        <ele>937</ele>
        <time>2022-06-08T13:36:22Z</time>
      </trkpt>
      <trkpt lat="44.91314" lon="3.3258">
        <ele>938.6</ele>
        <time>2022-06-08T13:36:27Z</time>
      </trkpt>
      <trkpt lat="44.91309" lon="3.32582">
        <ele>937.9</ele>
        <time>2022-06-08T13:36:32Z</time>
      </trkpt>
      <trkpt lat="44.91304" lon="3.32585">
        <ele>936.7</ele>
        <time>2022-06-08T13:36:37Z</time>
      </trkpt>
      <trkpt lat="44.913" lon="3.32586">
        <ele>935.2</ele>
        <time>2022-06-08T13:36:42Z</time>
      </trkpt>
      <trkpt lat="44.91294" lon="3.32587">
        <ele>935.5</ele>
        <time>2022-06-08T13:36:59Z</time>
      </trkpt>
      <trkpt lat="44.91289" lon="3.32589">
        <ele>936.1</ele>
        <time>2022-06-08T13:37:04Z</time>
      </trkpt>
      <trkpt lat="44.91284" lon="3.32589">
        <ele>936.7</ele>
        <time>2022-06-08T13:37:09Z</time>
      </trkpt>
      <trkpt lat="44.91279" lon="3.32588">
        <ele>937.1</ele>
        <time>2022-06-08T13:37:14Z</time>
      </trkpt>
      <trkpt lat="44.91274" lon="3.32589">
        <ele>937.8</ele>
        <time>2022-06-08T13:37:19Z</time>
      </trkpt>
      <trkpt lat="44.91269" lon="3.32589">
        <ele>938</ele>
        <time>2022-06-08T13:37:24Z</time>
      </trkpt>
      <trkpt lat="44.91265" lon="3.32587">
        <ele>939.4</ele>
        <time>2022-06-08T13:37:38Z</time>
      </trkpt>
      <trkpt lat="44.9126" lon="3.32585">
        <ele>938.8</ele>
        <time>2022-06-08T13:37:44Z</time>
      </trkpt>
      <trkpt lat="44.91255" lon="3.32583">
        <ele>938.5</ele>
        <time>2022-06-08T13:37:49Z</time>
      </trkpt>
      <trkpt lat="44.91251" lon="3.3258">
        <ele>938</ele>
        <time>2022-06-08T13:37:55Z</time>
      </trkpt>
      <trkpt lat="44.91246" lon="3.32577">
        <ele>938.6</ele>
        <time>2022-06-08T13:38:01Z</time>
      </trkpt>
      <trkpt lat="44.91241" lon="3.32576">
        <ele>938.7</ele>
        <time>2022-06-08T13:38:06Z</time>
      </trkpt>
      <trkpt lat="44.91236" lon="3.32574">
        <ele>938.1</ele>
        <time>2022-06-08T13:38:11Z</time>
      </trkpt>
      <trkpt lat="44.91231" lon="3.32571">
        <ele>938.3</ele>
        <time>2022-06-08T13:38:17Z</time>
      </trkpt>
      <trkpt lat="44.91227" lon="3.32568">
        <ele>939.6</ele>
        <time>2022-06-08T13:38:23Z</time>
      </trkpt>
      <trkpt lat="44.91223" lon="3.32565">
        <ele>940.6</ele>
        <time>2022-06-08T13:38:33Z</time>
      </trkpt>
      <trkpt lat="44.91218" lon="3.32563">
        <ele>940.7</ele>
        <time>2022-06-08T13:38:38Z</time>
      </trkpt>
      <trkpt lat="44.91214" lon="3.32562">
        <ele>941.5</ele>
        <time>2022-06-08T13:38:43Z</time>
      </trkpt>
      <trkpt lat="44.91209" lon="3.3256">
        <ele>943</ele>
        <time>2022-06-08T13:38:49Z</time>
      </trkpt>
      <trkpt lat="44.91205" lon="3.3256">
        <ele>944</ele>
        <time>2022-06-08T13:38:55Z</time>
      </trkpt>
      <trkpt lat="44.912" lon="3.32557">
        <ele>944</ele>
        <time>2022-06-08T13:39:01Z</time>
      </trkpt>
      <trkpt lat="44.91196" lon="3.32554">
        <ele>943.7</ele>
        <time>2022-06-08T13:39:06Z</time>
      </trkpt>
      <trkpt lat="44.9119" lon="3.32552">
        <ele>943.8</ele>
        <time>2022-06-08T13:39:12Z</time>
      </trkpt>
      <trkpt lat="44.91186" lon="3.3255">
        <ele>944.7</ele>
        <time>2022-06-08T13:39:17Z</time>
      </trkpt>
      <trkpt lat="44.91181" lon="3.32548">
        <ele>944.3</ele>
        <time>2022-06-08T13:39:22Z</time>
      </trkpt>
      <trkpt lat="44.91176" lon="3.32546">
        <ele>944.3</ele>
        <time>2022-06-08T13:39:27Z</time>
      </trkpt>
      <trkpt lat="44.91171" lon="3.32543">
        <ele>944.2</ele>
        <time>2022-06-08T13:39:32Z</time>
      </trkpt>
      <trkpt lat="44.91166" lon="3.32541">
        <ele>945.3</ele>
        <time>2022-06-08T13:39:37Z</time>
      </trkpt>
      <trkpt lat="44.91161" lon="3.3254">
        <ele>946.1</ele>
        <time>2022-06-08T13:39:44Z</time>
      </trkpt>
      <trkpt lat="44.91156" lon="3.32539">
        <ele>945.3</ele>
        <time>2022-06-08T13:39:49Z</time>
      </trkpt>
      <trkpt lat="44.91151" lon="3.32538">
        <ele>944.5</ele>
        <time>2022-06-08T13:39:54Z</time>
      </trkpt>
      <trkpt lat="44.91147" lon="3.32535">
        <ele>945.7</ele>
        <time>2022-06-08T13:39:59Z</time>
      </trkpt>
      <trkpt lat="44.91142" lon="3.32533">
        <ele>946.8</ele>
        <time>2022-06-08T13:40:03Z</time>
      </trkpt>
      <trkpt lat="44.91137" lon="3.32531">
        <ele>948.3</ele>
        <time>2022-06-08T13:40:08Z</time>
      </trkpt>
      <trkpt lat="44.91132" lon="3.32528">
        <ele>948.5</ele>
        <time>2022-06-08T13:40:13Z</time>
      </trkpt>
      <trkpt lat="44.91127" lon="3.32527">
        <ele>949.6</ele>
        <time>2022-06-08T13:40:18Z</time>
      </trkpt>
      <trkpt lat="44.91122" lon="3.32527">
        <ele>950.9</ele>
        <time>2022-06-08T13:40:23Z</time>
      </trkpt>
      <trkpt lat="44.91117" lon="3.32528">
        <ele>952.1</ele>
        <time>2022-06-08T13:40:28Z</time>
      </trkpt>
      <trkpt lat="44.91111" lon="3.32529">
        <ele>952.7</ele>
        <time>2022-06-08T13:40:34Z</time>
      </trkpt>
      <trkpt lat="44.91107" lon="3.32528">
        <ele>953.6</ele>
        <time>2022-06-08T13:40:56Z</time>
      </trkpt>
      <trkpt lat="44.91105" lon="3.32534">
        <ele>952.8</ele>
        <time>2022-06-08T13:41:38Z</time>
      </trkpt>
      <trkpt lat="44.91101" lon="3.32538">
        <ele>954</ele>
        <time>2022-06-08T13:42:05Z</time>
      </trkpt>
      <trkpt lat="44.91098" lon="3.32543">
        <ele>954.3</ele>
        <time>2022-06-08T13:42:09Z</time>
      </trkpt>
      <trkpt lat="44.91095" lon="3.32547">
        <ele>955.4</ele>
        <time>2022-06-08T13:42:13Z</time>
      </trkpt>
      <trkpt lat="44.91091" lon="3.32551">
        <ele>955.4</ele>
        <time>2022-06-08T13:42:17Z</time>
      </trkpt>
      <trkpt lat="44.91086" lon="3.32556">
        <ele>954.5</ele>
        <time>2022-06-08T13:42:22Z</time>
      </trkpt>
      <trkpt lat="44.91083" lon="3.32559">
        <ele>955.5</ele>
        <time>2022-06-08T13:42:26Z</time>
      </trkpt>
      <trkpt lat="44.91078" lon="3.32563">
        <ele>955.5</ele>
        <time>2022-06-08T13:42:31Z</time>
      </trkpt>
      <trkpt lat="44.91073" lon="3.32567">
        <ele>955.3</ele>
        <time>2022-06-08T13:42:36Z</time>
      </trkpt>
      <trkpt lat="44.91071" lon="3.32572">
        <ele>955.3</ele>
        <time>2022-06-08T13:42:41Z</time>
      </trkpt>
      <trkpt lat="44.9107" lon="3.32579">
        <ele>956</ele>
        <time>2022-06-08T13:42:56Z</time>
      </trkpt>
      <trkpt lat="44.91074" lon="3.32584">
        <ele>955.8</ele>
        <time>2022-06-08T13:43:01Z</time>
      </trkpt>
      <trkpt lat="44.91077" lon="3.32589">
        <ele>955.6</ele>
        <time>2022-06-08T13:43:05Z</time>
      </trkpt>
      <trkpt lat="44.91081" lon="3.32594">
        <ele>956</ele>
        <time>2022-06-08T13:43:09Z</time>
      </trkpt>
      <trkpt lat="44.91084" lon="3.32599">
        <ele>956.3</ele>
        <time>2022-06-08T13:43:13Z</time>
      </trkpt>
      <trkpt lat="44.91088" lon="3.32604">
        <ele>956.4</ele>
        <time>2022-06-08T13:43:18Z</time>
      </trkpt>
      <trkpt lat="44.91091" lon="3.3261">
        <ele>956.6</ele>
        <time>2022-06-08T13:43:24Z</time>
      </trkpt>
      <trkpt lat="44.91095" lon="3.32614">
        <ele>957.2</ele>
        <time>2022-06-08T13:43:28Z</time>
      </trkpt>
      <trkpt lat="44.91099" lon="3.32618">
        <ele>957.3</ele>
        <time>2022-06-08T13:43:33Z</time>
      </trkpt>
      <trkpt lat="44.91103" lon="3.32622">
        <ele>959.5</ele>
        <time>2022-06-08T13:43:52Z</time>
      </trkpt>
      <trkpt lat="44.91107" lon="3.32627">
        <ele>959.8</ele>
        <time>2022-06-08T13:43:57Z</time>
      </trkpt>
      <trkpt lat="44.91111" lon="3.32632">
        <ele>960.5</ele>
        <time>2022-06-08T13:44:02Z</time>
      </trkpt>
      <trkpt lat="44.91114" lon="3.32637">
        <ele>960.9</ele>
        <time>2022-06-08T13:44:07Z</time>
      </trkpt>
      <trkpt lat="44.91119" lon="3.32641">
        <ele>959.8</ele>
        <time>2022-06-08T13:44:12Z</time>
      </trkpt>
      <trkpt lat="44.91123" lon="3.32646">
        <ele>959.2</ele>
        <time>2022-06-08T13:44:17Z</time>
      </trkpt>
      <trkpt lat="44.91126" lon="3.32651">
        <ele>959.6</ele>
        <time>2022-06-08T13:44:22Z</time>
      </trkpt>
      <trkpt lat="44.9113" lon="3.32656">
        <ele>959.5</ele>
        <time>2022-06-08T13:44:26Z</time>
      </trkpt>
      <trkpt lat="44.91134" lon="3.3266">
        <ele>960</ele>
        <time>2022-06-08T13:44:31Z</time>
      </trkpt>
      <trkpt lat="44.91139" lon="3.32665">
        <ele>960.1</ele>
        <time>2022-06-08T13:44:36Z</time>
      </trkpt>
      <trkpt lat="44.91142" lon="3.32671">
        <ele>959.7</ele>
        <time>2022-06-08T13:44:41Z</time>
      </trkpt>
      <trkpt lat="44.91146" lon="3.32675">
        <ele>959.2</ele>
        <time>2022-06-08T13:44:46Z</time>
      </trkpt>
      <trkpt lat="44.9115" lon="3.32679">
        <ele>959.9</ele>
        <time>2022-06-08T13:44:52Z</time>
      </trkpt>
      <trkpt lat="44.91153" lon="3.32683">
        <ele>960</ele>
        <time>2022-06-08T13:45:00Z</time>
      </trkpt>
      <trkpt lat="44.91158" lon="3.32687">
        <ele>960.2</ele>
        <time>2022-06-08T13:45:07Z</time>
      </trkpt>
      <trkpt lat="44.91162" lon="3.3269">
        <ele>959.3</ele>
        <time>2022-06-08T13:45:12Z</time>
      </trkpt>
      <trkpt lat="44.91165" lon="3.32694">
        <ele>959.7</ele>
        <time>2022-06-08T13:45:19Z</time>
      </trkpt>
      <trkpt lat="44.91169" lon="3.32699">
        <ele>960.6</ele>
        <time>2022-06-08T13:45:25Z</time>
      </trkpt>
      <trkpt lat="44.91173" lon="3.32703">
        <ele>960.3</ele>
        <time>2022-06-08T13:45:31Z</time>
      </trkpt>
      <trkpt lat="44.91177" lon="3.32707">
        <ele>960.3</ele>
        <time>2022-06-08T13:45:36Z</time>
      </trkpt>
      <trkpt lat="44.91181" lon="3.3271">
        <ele>960</ele>
        <time>2022-06-08T13:45:41Z</time>
      </trkpt>
      <trkpt lat="44.91185" lon="3.32714">
        <ele>960.4</ele>
        <time>2022-06-08T13:45:46Z</time>
      </trkpt>
      <trkpt lat="44.91189" lon="3.3272">
        <ele>960.6</ele>
        <time>2022-06-08T13:45:52Z</time>
      </trkpt>
      <trkpt lat="44.91192" lon="3.32725">
        <ele>961</ele>
        <time>2022-06-08T13:46:01Z</time>
      </trkpt>
      <trkpt lat="44.91194" lon="3.3273">
        <ele>962.7</ele>
        <time>2022-06-08T13:46:07Z</time>
      </trkpt>
      <trkpt lat="44.91197" lon="3.32736">
        <ele>965.4</ele>
        <time>2022-06-08T13:46:34Z</time>
      </trkpt>
      <trkpt lat="44.91201" lon="3.3274">
        <ele>966.7</ele>
        <time>2022-06-08T13:46:53Z</time>
      </trkpt>
      <trkpt lat="44.91202" lon="3.32746">
        <ele>966.6</ele>
        <time>2022-06-08T13:46:58Z</time>
      </trkpt>
      <trkpt lat="44.91205" lon="3.32753">
        <ele>967</ele>
        <time>2022-06-08T13:47:04Z</time>
      </trkpt>
      <trkpt lat="44.91208" lon="3.32758">
        <ele>968.1</ele>
        <time>2022-06-08T13:47:09Z</time>
      </trkpt>
      <trkpt lat="44.91212" lon="3.32763">
        <ele>968.7</ele>
        <time>2022-06-08T13:47:14Z</time>
      </trkpt>
      <trkpt lat="44.91216" lon="3.32769">
        <ele>968.7</ele>
        <time>2022-06-08T13:47:19Z</time>
      </trkpt>
      <trkpt lat="44.9122" lon="3.32774">
        <ele>968.5</ele>
        <time>2022-06-08T13:47:25Z</time>
      </trkpt>
      <trkpt lat="44.91224" lon="3.32778">
        <ele>968.5</ele>
        <time>2022-06-08T13:47:32Z</time>
      </trkpt>
      <trkpt lat="44.91226" lon="3.32783">
        <ele>968.8</ele>
        <time>2022-06-08T13:47:40Z</time>
      </trkpt>
      <trkpt lat="44.9123" lon="3.32788">
        <ele>970.5</ele>
        <time>2022-06-08T13:47:47Z</time>
      </trkpt>
      <trkpt lat="44.91233" lon="3.32793">
        <ele>972.2</ele>
        <time>2022-06-08T13:47:55Z</time>
      </trkpt>
      <trkpt lat="44.91237" lon="3.32797">
        <ele>972.6</ele>
        <time>2022-06-08T13:48:02Z</time>
      </trkpt>
      <trkpt lat="44.9124" lon="3.32803">
        <ele>973.3</ele>
        <time>2022-06-08T13:48:10Z</time>
      </trkpt>
      <trkpt lat="44.91243" lon="3.32808">
        <ele>975.2</ele>
        <time>2022-06-08T13:48:30Z</time>
      </trkpt>
      <trkpt lat="44.91247" lon="3.32813">
        <ele>976.2</ele>
        <time>2022-06-08T13:48:35Z</time>
      </trkpt>
      <trkpt lat="44.91251" lon="3.32817">
        <ele>976.3</ele>
        <time>2022-06-08T13:48:40Z</time>
      </trkpt>
      <trkpt lat="44.91256" lon="3.32821">
        <ele>976.3</ele>
        <time>2022-06-08T13:48:45Z</time>
      </trkpt>
      <trkpt lat="44.91259" lon="3.32826">
        <ele>977.5</ele>
        <time>2022-06-08T13:48:50Z</time>
      </trkpt>
      <trkpt lat="44.91263" lon="3.32831">
        <ele>979.3</ele>
        <time>2022-06-08T13:48:56Z</time>
      </trkpt>
      <trkpt lat="44.91267" lon="3.32833">
        <ele>978.9</ele>
        <time>2022-06-08T13:49:03Z</time>
      </trkpt>
      <trkpt lat="44.91271" lon="3.32836">
        <ele>979.2</ele>
        <time>2022-06-08T13:49:21Z</time>
      </trkpt>
      <trkpt lat="44.91275" lon="3.3284">
        <ele>979.7</ele>
        <time>2022-06-08T13:49:27Z</time>
      </trkpt>
      <trkpt lat="44.9128" lon="3.32844">
        <ele>981.4</ele>
        <time>2022-06-08T13:49:34Z</time>
      </trkpt>
      <trkpt lat="44.91284" lon="3.32848">
        <ele>982.5</ele>
        <time>2022-06-08T13:49:39Z</time>
      </trkpt>
      <trkpt lat="44.91288" lon="3.32852">
        <ele>983.6</ele>
        <time>2022-06-08T13:49:44Z</time>
      </trkpt>
      <trkpt lat="44.9129" lon="3.32857">
        <ele>983.4</ele>
        <time>2022-06-08T13:49:50Z</time>
      </trkpt>
      <trkpt lat="44.91293" lon="3.32863">
        <ele>983.4</ele>
        <time>2022-06-08T13:49:58Z</time>
      </trkpt>
      <trkpt lat="44.91295" lon="3.32869">
        <ele>984.1</ele>
        <time>2022-06-08T13:50:06Z</time>
      </trkpt>
      <trkpt lat="44.91299" lon="3.32874">
        <ele>985.7</ele>
        <time>2022-06-08T13:50:12Z</time>
      </trkpt>
      <trkpt lat="44.91303" lon="3.32879">
        <ele>986.6</ele>
        <time>2022-06-08T13:50:18Z</time>
      </trkpt>
      <trkpt lat="44.91307" lon="3.32883">
        <ele>987.6</ele>
        <time>2022-06-08T13:50:25Z</time>
      </trkpt>
      <trkpt lat="44.91311" lon="3.32887">
        <ele>989</ele>
        <time>2022-06-08T13:50:32Z</time>
      </trkpt>
      <trkpt lat="44.91315" lon="3.3289">
        <ele>989.5</ele>
        <time>2022-06-08T13:50:38Z</time>
      </trkpt>
      <trkpt lat="44.91319" lon="3.32895">
        <ele>991.3</ele>
        <time>2022-06-08T13:50:46Z</time>
      </trkpt>
      <trkpt lat="44.91322" lon="3.32901">
        <ele>992.7</ele>
        <time>2022-06-08T13:50:53Z</time>
      </trkpt>
      <trkpt lat="44.91326" lon="3.32906">
        <ele>993.6</ele>
        <time>2022-06-08T13:51:00Z</time>
      </trkpt>
      <trkpt lat="44.91329" lon="3.32911">
        <ele>995.4</ele>
        <time>2022-06-08T13:51:09Z</time>
      </trkpt>
      <trkpt lat="44.91333" lon="3.32916">
        <ele>996.8</ele>
        <time>2022-06-08T13:51:17Z</time>
      </trkpt>
      <trkpt lat="44.91336" lon="3.3292">
        <ele>998.5</ele>
        <time>2022-06-08T13:51:23Z</time>
      </trkpt>
      <trkpt lat="44.9134" lon="3.32924">
        <ele>999.5</ele>
        <time>2022-06-08T13:51:29Z</time>
      </trkpt>
      <trkpt lat="44.91344" lon="3.32928">
        <ele>1000.6</ele>
        <time>2022-06-08T13:51:34Z</time>
      </trkpt>
      <trkpt lat="44.91348" lon="3.32932">
        <ele>1000.4</ele>
        <time>2022-06-08T13:51:40Z</time>
      </trkpt>
      <trkpt lat="44.91353" lon="3.32935">
        <ele>1000.6</ele>
        <time>2022-06-08T13:51:47Z</time>
      </trkpt>
      <trkpt lat="44.91357" lon="3.32938">
        <ele>1000.2</ele>
        <time>2022-06-08T13:51:53Z</time>
      </trkpt>
      <trkpt lat="44.91361" lon="3.3294">
        <ele>1000.1</ele>
        <time>2022-06-08T13:51:58Z</time>
      </trkpt>
      <trkpt lat="44.91366" lon="3.32943">
        <ele>1000.7</ele>
        <time>2022-06-08T13:52:03Z</time>
      </trkpt>
      <trkpt lat="44.9137" lon="3.32946">
        <ele>1001</ele>
        <time>2022-06-08T13:52:08Z</time>
      </trkpt>
      <trkpt lat="44.91375" lon="3.3295">
        <ele>1000.8</ele>
        <time>2022-06-08T13:52:13Z</time>
      </trkpt>
      <trkpt lat="44.9138" lon="3.32953">
        <ele>1000.9</ele>
        <time>2022-06-08T13:52:18Z</time>
      </trkpt>
      <trkpt lat="44.91385" lon="3.32954">
        <ele>1001.7</ele>
        <time>2022-06-08T13:52:23Z</time>
      </trkpt>
      <trkpt lat="44.91389" lon="3.32957">
        <ele>1001.3</ele>
        <time>2022-06-08T13:52:27Z</time>
      </trkpt>
      <trkpt lat="44.91394" lon="3.32958">
        <ele>1001</ele>
        <time>2022-06-08T13:52:32Z</time>
      </trkpt>
      <trkpt lat="44.91399" lon="3.32959">
        <ele>1000.8</ele>
        <time>2022-06-08T13:52:37Z</time>
      </trkpt>
      <trkpt lat="44.91404" lon="3.3296">
        <ele>999.3</ele>
        <time>2022-06-08T13:52:42Z</time>
      </trkpt>
      <trkpt lat="44.91409" lon="3.32962">
        <ele>998.7</ele>
        <time>2022-06-08T13:52:47Z</time>
      </trkpt>
      <trkpt lat="44.91415" lon="3.32962">
        <ele>997.9</ele>
        <time>2022-06-08T13:52:52Z</time>
      </trkpt>
      <trkpt lat="44.91419" lon="3.32965">
        <ele>998.1</ele>
        <time>2022-06-08T13:52:56Z</time>
      </trkpt>
      <trkpt lat="44.91424" lon="3.32968">
        <ele>997.9</ele>
        <time>2022-06-08T13:53:01Z</time>
      </trkpt>
      <trkpt lat="44.91428" lon="3.3297">
        <ele>998.4</ele>
        <time>2022-06-08T13:53:05Z</time>
      </trkpt>
      <trkpt lat="44.91432" lon="3.32972">
        <ele>998.9</ele>
        <time>2022-06-08T13:53:10Z</time>
      </trkpt>
      <trkpt lat="44.91437" lon="3.32975">
        <ele>998.8</ele>
        <time>2022-06-08T13:53:15Z</time>
      </trkpt>
      <trkpt lat="44.91442" lon="3.32977">
        <ele>998.7</ele>
        <time>2022-06-08T13:53:20Z</time>
      </trkpt>
      <trkpt lat="44.91446" lon="3.3298">
        <ele>998.9</ele>
        <time>2022-06-08T13:53:24Z</time>
      </trkpt>
      <trkpt lat="44.91451" lon="3.32983">
        <ele>998.7</ele>
        <time>2022-06-08T13:53:28Z</time>
      </trkpt>
      <trkpt lat="44.91455" lon="3.32985">
        <ele>998.1</ele>
        <time>2022-06-08T13:53:32Z</time>
      </trkpt>
      <trkpt lat="44.9146" lon="3.32987">
        <ele>997.2</ele>
        <time>2022-06-08T13:53:37Z</time>
      </trkpt>
      <trkpt lat="44.91464" lon="3.32991">
        <ele>997.3</ele>
        <time>2022-06-08T13:53:43Z</time>
      </trkpt>
      <trkpt lat="44.9147" lon="3.32994">
        <ele>996.4</ele>
        <time>2022-06-08T13:53:48Z</time>
      </trkpt>
      <trkpt lat="44.91474" lon="3.32998">
        <ele>995.9</ele>
        <time>2022-06-08T13:53:52Z</time>
      </trkpt>
      <trkpt lat="44.91478" lon="3.33002">
        <ele>996.3</ele>
        <time>2022-06-08T13:53:57Z</time>
      </trkpt>
      <trkpt lat="44.91482" lon="3.33005">
        <ele>996.7</ele>
        <time>2022-06-08T13:54:02Z</time>
      </trkpt>
      <trkpt lat="44.91486" lon="3.33007">
        <ele>996.4</ele>
        <time>2022-06-08T13:54:07Z</time>
      </trkpt>
      <trkpt lat="44.9149" lon="3.33011">
        <ele>996.6</ele>
        <time>2022-06-08T13:54:12Z</time>
      </trkpt>
      <trkpt lat="44.91495" lon="3.33014">
        <ele>997.3</ele>
        <time>2022-06-08T13:54:17Z</time>
      </trkpt>
      <trkpt lat="44.91499" lon="3.33017">
        <ele>999.2</ele>
        <time>2022-06-08T13:54:23Z</time>
      </trkpt>
      <trkpt lat="44.91504" lon="3.33019">
        <ele>1000.7</ele>
        <time>2022-06-08T13:54:29Z</time>
      </trkpt>
      <trkpt lat="44.91509" lon="3.3302">
        <ele>1001.3</ele>
        <time>2022-06-08T13:54:34Z</time>
      </trkpt>
      <trkpt lat="44.91513" lon="3.33023">
        <ele>1002.4</ele>
        <time>2022-06-08T13:54:39Z</time>
      </trkpt>
      <trkpt lat="44.91517" lon="3.33025">
        <ele>1003</ele>
        <time>2022-06-08T13:54:45Z</time>
      </trkpt>
      <trkpt lat="44.91522" lon="3.33028">
        <ele>1002.8</ele>
        <time>2022-06-08T13:54:51Z</time>
      </trkpt>
      <trkpt lat="44.91527" lon="3.33031">
        <ele>1002.8</ele>
        <time>2022-06-08T13:54:56Z</time>
      </trkpt>
      <trkpt lat="44.91531" lon="3.33034">
        <ele>1002.7</ele>
        <time>2022-06-08T13:55:01Z</time>
      </trkpt>
      <trkpt lat="44.91535" lon="3.33038">
        <ele>1002.6</ele>
        <time>2022-06-08T13:55:09Z</time>
      </trkpt>
      <trkpt lat="44.91538" lon="3.33043">
        <ele>1003.1</ele>
        <time>2022-06-08T13:55:15Z</time>
      </trkpt>
      <trkpt lat="44.91541" lon="3.33048">
        <ele>1003.2</ele>
        <time>2022-06-08T13:55:21Z</time>
      </trkpt>
      <trkpt lat="44.91544" lon="3.33054">
        <ele>1003.4</ele>
        <time>2022-06-08T13:55:27Z</time>
      </trkpt>
      <trkpt lat="44.91547" lon="3.3306">
        <ele>1003.2</ele>
        <time>2022-06-08T13:55:33Z</time>
      </trkpt>
      <trkpt lat="44.9155" lon="3.33065">
        <ele>1003.7</ele>
        <time>2022-06-08T13:55:39Z</time>
      </trkpt>
      <trkpt lat="44.91553" lon="3.33071">
        <ele>1004.1</ele>
        <time>2022-06-08T13:55:45Z</time>
      </trkpt>
      <trkpt lat="44.91557" lon="3.33075">
        <ele>1004.6</ele>
        <time>2022-06-08T13:55:50Z</time>
      </trkpt>
      <trkpt lat="44.91561" lon="3.33079">
        <ele>1002.6</ele>
        <time>2022-06-08T13:56:11Z</time>
      </trkpt>
      <trkpt lat="44.91564" lon="3.33085">
        <ele>1003.3</ele>
        <time>2022-06-08T13:56:17Z</time>
      </trkpt>
      <trkpt lat="44.91567" lon="3.3309">
        <ele>1003.7</ele>
        <time>2022-06-08T13:56:22Z</time>
      </trkpt>
      <trkpt lat="44.91569" lon="3.33096">
        <ele>1004.6</ele>
        <time>2022-06-08T13:56:27Z</time>
      </trkpt>
      <trkpt lat="44.91572" lon="3.33101">
        <ele>1006.2</ele>
        <time>2022-06-08T13:56:38Z</time>
      </trkpt>
      <trkpt lat="44.91574" lon="3.33107">
        <ele>1007.2</ele>
        <time>2022-06-08T13:56:43Z</time>
      </trkpt>
      <trkpt lat="44.91577" lon="3.33114">
        <ele>1007.9</ele>
        <time>2022-06-08T13:56:48Z</time>
      </trkpt>
      <trkpt lat="44.91579" lon="3.33119">
        <ele>1008.9</ele>
        <time>2022-06-08T13:56:52Z</time>
      </trkpt>
      <trkpt lat="44.91582" lon="3.33125">
        <ele>1009.7</ele>
        <time>2022-06-08T13:56:56Z</time>
      </trkpt>
      <trkpt lat="44.91584" lon="3.33131">
        <ele>1010.4</ele>
        <time>2022-06-08T13:57:01Z</time>
      </trkpt>
      <trkpt lat="44.91586" lon="3.33137">
        <ele>1010.1</ele>
        <time>2022-06-08T13:57:06Z</time>
      </trkpt>
      <trkpt lat="44.91588" lon="3.33142">
        <ele>1009.3</ele>
        <time>2022-06-08T13:57:24Z</time>
      </trkpt>
      <trkpt lat="44.91591" lon="3.33148">
        <ele>1008.8</ele>
        <time>2022-06-08T13:57:29Z</time>
      </trkpt>
      <trkpt lat="44.91591" lon="3.33155">
        <ele>1009</ele>
        <time>2022-06-08T13:57:34Z</time>
      </trkpt>
      <trkpt lat="44.91591" lon="3.33162">
        <ele>1008.7</ele>
        <time>2022-06-08T13:57:39Z</time>
      </trkpt>
      <trkpt lat="44.9159" lon="3.33169">
        <ele>1009.1</ele>
        <time>2022-06-08T13:57:44Z</time>
      </trkpt>
      <trkpt lat="44.9159" lon="3.33177">
        <ele>1008.6</ele>
        <time>2022-06-08T13:57:49Z</time>
      </trkpt>
      <trkpt lat="44.9159" lon="3.33183">
        <ele>1008.3</ele>
        <time>2022-06-08T13:57:53Z</time>
      </trkpt>
      <trkpt lat="44.91589" lon="3.33191">
        <ele>1008.7</ele>
        <time>2022-06-08T13:57:58Z</time>
      </trkpt>
      <trkpt lat="44.91589" lon="3.33198">
        <ele>1008.1</ele>
        <time>2022-06-08T13:58:03Z</time>
      </trkpt>
      <trkpt lat="44.9159" lon="3.33204">
        <ele>1007.7</ele>
        <time>2022-06-08T13:58:08Z</time>
      </trkpt>
      <trkpt lat="44.9159" lon="3.33211">
        <ele>1007.4</ele>
        <time>2022-06-08T13:58:25Z</time>
      </trkpt>
      <trkpt lat="44.91592" lon="3.33217">
        <ele>1007.7</ele>
        <time>2022-06-08T13:58:29Z</time>
      </trkpt>
      <trkpt lat="44.91593" lon="3.33224">
        <ele>1007.6</ele>
        <time>2022-06-08T13:58:33Z</time>
      </trkpt>
      <trkpt lat="44.91593" lon="3.33231">
        <ele>1007</ele>
        <time>2022-06-08T13:58:37Z</time>
      </trkpt>
      <trkpt lat="44.91593" lon="3.33238">
        <ele>1006.6</ele>
        <time>2022-06-08T13:58:41Z</time>
      </trkpt>
      <trkpt lat="44.91593" lon="3.33244">
        <ele>1006.4</ele>
        <time>2022-06-08T13:58:45Z</time>
      </trkpt>
      <trkpt lat="44.91593" lon="3.33252">
        <ele>1006.2</ele>
        <time>2022-06-08T13:58:50Z</time>
      </trkpt>
      <trkpt lat="44.91594" lon="3.33258">
        <ele>1006.2</ele>
        <time>2022-06-08T13:58:55Z</time>
      </trkpt>
      <trkpt lat="44.91595" lon="3.33265">
        <ele>1006.8</ele>
        <time>2022-06-08T13:59:00Z</time>
      </trkpt>
      <trkpt lat="44.91594" lon="3.33272">
        <ele>1007.1</ele>
        <time>2022-06-08T13:59:05Z</time>
      </trkpt>
      <trkpt lat="44.91593" lon="3.33279">
        <ele>1007</ele>
        <time>2022-06-08T13:59:10Z</time>
      </trkpt>
      <trkpt lat="44.91592" lon="3.33285">
        <ele>1007.2</ele>
        <time>2022-06-08T13:59:14Z</time>
      </trkpt>
      <trkpt lat="44.91591" lon="3.33292">
        <ele>1007</ele>
        <time>2022-06-08T13:59:18Z</time>
      </trkpt>
      <trkpt lat="44.9159" lon="3.33298">
        <ele>1007.4</ele>
        <time>2022-06-08T13:59:23Z</time>
      </trkpt>
      <trkpt lat="44.91589" lon="3.33305">
        <ele>1007.5</ele>
        <time>2022-06-08T13:59:28Z</time>
      </trkpt>
      <trkpt lat="44.91588" lon="3.33312">
        <ele>1009.2</ele>
        <time>2022-06-08T13:59:33Z</time>
      </trkpt>
      <trkpt lat="44.91587" lon="3.33318">
        <ele>1010.3</ele>
        <time>2022-06-08T13:59:38Z</time>
      </trkpt>
      <trkpt lat="44.91585" lon="3.33325">
        <ele>1010.1</ele>
        <time>2022-06-08T13:59:43Z</time>
      </trkpt>
      <trkpt lat="44.91583" lon="3.33332">
        <ele>1011.5</ele>
        <time>2022-06-08T13:59:48Z</time>
      </trkpt>
      <trkpt lat="44.91581" lon="3.33339">
        <ele>1012.1</ele>
        <time>2022-06-08T13:59:53Z</time>
      </trkpt>
      <trkpt lat="44.91579" lon="3.33345">
        <ele>1012.4</ele>
        <time>2022-06-08T13:59:58Z</time>
      </trkpt>
      <trkpt lat="44.91578" lon="3.33352">
        <ele>1012.4</ele>
        <time>2022-06-08T14:00:04Z</time>
      </trkpt>
      <trkpt lat="44.91576" lon="3.33358">
        <ele>1011.3</ele>
        <time>2022-06-08T14:00:10Z</time>
      </trkpt>
      <trkpt lat="44.91575" lon="3.33365">
        <ele>1009.9</ele>
        <time>2022-06-08T14:00:16Z</time>
      </trkpt>
      <trkpt lat="44.91574" lon="3.33371">
        <ele>1009.3</ele>
        <time>2022-06-08T14:00:22Z</time>
      </trkpt>
      <trkpt lat="44.91572" lon="3.33377">
        <ele>1008.9</ele>
        <time>2022-06-08T14:00:28Z</time>
      </trkpt>
      <trkpt lat="44.91571" lon="3.33384">
        <ele>1009.5</ele>
        <time>2022-06-08T14:00:35Z</time>
      </trkpt>
      <trkpt lat="44.91569" lon="3.33389">
        <ele>1011.2</ele>
        <time>2022-06-08T14:00:40Z</time>
      </trkpt>
      <trkpt lat="44.91566" lon="3.33395">
        <ele>1012.6</ele>
        <time>2022-06-08T14:00:45Z</time>
      </trkpt>
      <trkpt lat="44.91564" lon="3.33402">
        <ele>1014.5</ele>
        <time>2022-06-08T14:00:50Z</time>
      </trkpt>
      <trkpt lat="44.91563" lon="3.33408">
        <ele>1015.1</ele>
        <time>2022-06-08T14:00:56Z</time>
      </trkpt>
      <trkpt lat="44.91561" lon="3.33414">
        <ele>1015.2</ele>
        <time>2022-06-08T14:01:02Z</time>
      </trkpt>
      <trkpt lat="44.9156" lon="3.33421">
        <ele>1015.8</ele>
        <time>2022-06-08T14:01:08Z</time>
      </trkpt>
      <trkpt lat="44.91559" lon="3.33427">
        <ele>1016.8</ele>
        <time>2022-06-08T14:01:14Z</time>
      </trkpt>
      <trkpt lat="44.91557" lon="3.33433">
        <ele>1018.2</ele>
        <time>2022-06-08T14:01:20Z</time>
      </trkpt>
      <trkpt lat="44.91555" lon="3.33439">
        <ele>1019.8</ele>
        <time>2022-06-08T14:01:25Z</time>
      </trkpt>
      <trkpt lat="44.91553" lon="3.33445">
        <ele>1020.8</ele>
        <time>2022-06-08T14:01:30Z</time>
      </trkpt>
      <trkpt lat="44.91552" lon="3.33451">
        <ele>1022.3</ele>
        <time>2022-06-08T14:01:36Z</time>
      </trkpt>
      <trkpt lat="44.9155" lon="3.33457">
        <ele>1024.3</ele>
        <time>2022-06-08T14:01:54Z</time>
      </trkpt>
      <trkpt lat="44.91549" lon="3.33464">
        <ele>1024.1</ele>
        <time>2022-06-08T14:02:04Z</time>
      </trkpt>
      <trkpt lat="44.91548" lon="3.33471">
        <ele>1022</ele>
        <time>2022-06-08T14:02:11Z</time>
      </trkpt>
      <trkpt lat="44.91547" lon="3.33478">
        <ele>1020.7</ele>
        <time>2022-06-08T14:02:17Z</time>
      </trkpt>
      <trkpt lat="44.91547" lon="3.33485">
        <ele>1020.9</ele>
        <time>2022-06-08T14:02:25Z</time>
      </trkpt>
      <trkpt lat="44.91546" lon="3.33491">
        <ele>1021.2</ele>
        <time>2022-06-08T14:02:35Z</time>
      </trkpt>
      <trkpt lat="44.91546" lon="3.33498">
        <ele>1023.1</ele>
        <time>2022-06-08T14:02:42Z</time>
      </trkpt>
      <trkpt lat="44.91547" lon="3.33505">
        <ele>1025.5</ele>
        <time>2022-06-08T14:02:50Z</time>
      </trkpt>
      <trkpt lat="44.91547" lon="3.33512">
        <ele>1027.5</ele>
        <time>2022-06-08T14:02:59Z</time>
      </trkpt>
      <trkpt lat="44.91548" lon="3.33518">
        <ele>1029.2</ele>
        <time>2022-06-08T14:03:06Z</time>
      </trkpt>
      <trkpt lat="44.91548" lon="3.33525">
        <ele>1029.3</ele>
        <time>2022-06-08T14:03:14Z</time>
      </trkpt>
      <trkpt lat="44.91549" lon="3.33532">
        <ele>1030.3</ele>
        <time>2022-06-08T14:03:21Z</time>
      </trkpt>
      <trkpt lat="44.91549" lon="3.33539">
        <ele>1030.1</ele>
        <time>2022-06-08T14:03:28Z</time>
      </trkpt>
      <trkpt lat="44.9155" lon="3.33545">
        <ele>1030.2</ele>
        <time>2022-06-08T14:03:35Z</time>
      </trkpt>
      <trkpt lat="44.91551" lon="3.33552">
        <ele>1030.2</ele>
        <time>2022-06-08T14:03:41Z</time>
      </trkpt>
      <trkpt lat="44.91553" lon="3.33558">
        <ele>1030.6</ele>
        <time>2022-06-08T14:03:47Z</time>
      </trkpt>
      <trkpt lat="44.91556" lon="3.33564">
        <ele>1030.7</ele>
        <time>2022-06-08T14:03:54Z</time>
      </trkpt>
      <trkpt lat="44.91558" lon="3.3357">
        <ele>1030.1</ele>
        <time>2022-06-08T14:04:01Z</time>
      </trkpt>
      <trkpt lat="44.91561" lon="3.33576">
        <ele>1030.7</ele>
        <time>2022-06-08T14:04:07Z</time>
      </trkpt>
      <trkpt lat="44.91563" lon="3.33582">
        <ele>1031.2</ele>
        <time>2022-06-08T14:04:13Z</time>
      </trkpt>
      <trkpt lat="44.91565" lon="3.33588">
        <ele>1032.8</ele>
        <time>2022-06-08T14:04:20Z</time>
      </trkpt>
      <trkpt lat="44.91567" lon="3.33594">
        <ele>1033</ele>
        <time>2022-06-08T14:04:28Z</time>
      </trkpt>
      <trkpt lat="44.91569" lon="3.33601">
        <ele>1034.2</ele>
        <time>2022-06-08T14:04:35Z</time>
      </trkpt>
      <trkpt lat="44.91571" lon="3.33608">
        <ele>1035.2</ele>
        <time>2022-06-08T14:04:41Z</time>
      </trkpt>
      <trkpt lat="44.91573" lon="3.33614">
        <ele>1036.2</ele>
        <time>2022-06-08T14:04:47Z</time>
      </trkpt>
      <trkpt lat="44.91575" lon="3.3362">
        <ele>1037</ele>
        <time>2022-06-08T14:04:53Z</time>
      </trkpt>
      <trkpt lat="44.91577" lon="3.33626">
        <ele>1036.6</ele>
        <time>2022-06-08T14:05:00Z</time>
      </trkpt>
      <trkpt lat="44.91579" lon="3.33633">
        <ele>1037.4</ele>
        <time>2022-06-08T14:05:08Z</time>
      </trkpt>
      <trkpt lat="44.91581" lon="3.33639">
        <ele>1037.9</ele>
        <time>2022-06-08T14:05:15Z</time>
      </trkpt>
      <trkpt lat="44.91584" lon="3.33645">
        <ele>1038.9</ele>
        <time>2022-06-08T14:05:28Z</time>
      </trkpt>
      <trkpt lat="44.91586" lon="3.33651">
        <ele>1039.5</ele>
        <time>2022-06-08T14:05:34Z</time>
      </trkpt>
      <trkpt lat="44.91588" lon="3.33658">
        <ele>1040</ele>
        <time>2022-06-08T14:05:43Z</time>
      </trkpt>
      <trkpt lat="44.9159" lon="3.33664">
        <ele>1040.9</ele>
        <time>2022-06-08T14:05:49Z</time>
      </trkpt>
      <trkpt lat="44.91593" lon="3.33669">
        <ele>1042.1</ele>
        <time>2022-06-08T14:05:55Z</time>
      </trkpt>
      <trkpt lat="44.91593" lon="3.33676">
        <ele>1043.5</ele>
        <time>2022-06-08T14:06:03Z</time>
      </trkpt>
      <trkpt lat="44.91595" lon="3.33682">
        <ele>1044.6</ele>
        <time>2022-06-08T14:06:22Z</time>
      </trkpt>
      <trkpt lat="44.91597" lon="3.33688">
        <ele>1045.9</ele>
        <time>2022-06-08T14:06:30Z</time>
      </trkpt>
      <trkpt lat="44.91598" lon="3.33694">
        <ele>1046.7</ele>
        <time>2022-06-08T14:06:39Z</time>
      </trkpt>
      <trkpt lat="44.91599" lon="3.33702">
        <ele>1045.4</ele>
        <time>2022-06-08T14:06:53Z</time>
      </trkpt>
      <trkpt lat="44.91602" lon="3.33708">
        <ele>1046.4</ele>
        <time>2022-06-08T14:06:59Z</time>
      </trkpt>
      <trkpt lat="44.91604" lon="3.33713">
        <ele>1048</ele>
        <time>2022-06-08T14:07:07Z</time>
      </trkpt>
      <trkpt lat="44.91608" lon="3.33718">
        <ele>1049.6</ele>
        <time>2022-06-08T14:07:15Z</time>
      </trkpt>
      <trkpt lat="44.9161" lon="3.33724">
        <ele>1050.4</ele>
        <time>2022-06-08T14:07:24Z</time>
      </trkpt>
      <trkpt lat="44.91612" lon="3.33731">
        <ele>1051</ele>
        <time>2022-06-08T14:07:33Z</time>
      </trkpt>
      <trkpt lat="44.91614" lon="3.33737">
        <ele>1050.3</ele>
        <time>2022-06-08T14:07:39Z</time>
      </trkpt>
      <trkpt lat="44.91615" lon="3.33743">
        <ele>1049.7</ele>
        <time>2022-06-08T14:07:48Z</time>
      </trkpt>
      <trkpt lat="44.91615" lon="3.3375">
        <ele>1049.8</ele>
        <time>2022-06-08T14:07:58Z</time>
      </trkpt>
      <trkpt lat="44.91615" lon="3.33756">
        <ele>1051.1</ele>
        <time>2022-06-08T14:08:07Z</time>
      </trkpt>
      <trkpt lat="44.91616" lon="3.33763">
        <ele>1051.4</ele>
        <time>2022-06-08T14:08:13Z</time>
      </trkpt>
      <trkpt lat="44.91617" lon="3.3377">
        <ele>1052</ele>
        <time>2022-06-08T14:08:19Z</time>
      </trkpt>
      <trkpt lat="44.91617" lon="3.33777">
        <ele>1052.2</ele>
        <time>2022-06-08T14:08:28Z</time>
      </trkpt>
      <trkpt lat="44.91619" lon="3.33783">
        <ele>1053.7</ele>
        <time>2022-06-08T14:08:38Z</time>
      </trkpt>
      <trkpt lat="44.91622" lon="3.33788">
        <ele>1056.5</ele>
        <time>2022-06-08T14:08:48Z</time>
      </trkpt>
      <trkpt lat="44.91622" lon="3.33795">
        <ele>1058.4</ele>
        <time>2022-06-08T14:08:58Z</time>
      </trkpt>
      <trkpt lat="44.91625" lon="3.33802">
        <ele>1058.6</ele>
        <time>2022-06-08T14:09:05Z</time>
      </trkpt>
      <trkpt lat="44.91626" lon="3.33808">
        <ele>1058.7</ele>
        <time>2022-06-08T14:09:11Z</time>
      </trkpt>
      <trkpt lat="44.91627" lon="3.33815">
        <ele>1059.7</ele>
        <time>2022-06-08T14:09:17Z</time>
      </trkpt>
      <trkpt lat="44.91631" lon="3.33819">
        <ele>1057.5</ele>
        <time>2022-06-08T14:09:40Z</time>
      </trkpt>
      <trkpt lat="44.91635" lon="3.33824">
        <ele>1058.3</ele>
        <time>2022-06-08T14:09:46Z</time>
      </trkpt>
      <trkpt lat="44.91638" lon="3.33829">
        <ele>1059.9</ele>
        <time>2022-06-08T14:09:52Z</time>
      </trkpt>
      <trkpt lat="44.91641" lon="3.33835">
        <ele>1060.2</ele>
        <time>2022-06-08T14:09:58Z</time>
      </trkpt>
      <trkpt lat="44.91642" lon="3.33842">
        <ele>1061.9</ele>
        <time>2022-06-08T14:10:11Z</time>
      </trkpt>
      <trkpt lat="44.91644" lon="3.33848">
        <ele>1061.9</ele>
        <time>2022-06-08T14:10:15Z</time>
      </trkpt>
      <trkpt lat="44.91646" lon="3.33854">
        <ele>1061.7</ele>
        <time>2022-06-08T14:10:19Z</time>
      </trkpt>
      <trkpt lat="44.91649" lon="3.33858">
        <ele>1061</ele>
        <time>2022-06-08T14:10:25Z</time>
      </trkpt>
      <trkpt lat="44.91652" lon="3.33864">
        <ele>1061.5</ele>
        <time>2022-06-08T14:10:31Z</time>
      </trkpt>
      <trkpt lat="44.91654" lon="3.33871">
        <ele>1061.3</ele>
        <time>2022-06-08T14:10:36Z</time>
      </trkpt>
      <trkpt lat="44.91657" lon="3.33877">
        <ele>1061</ele>
        <time>2022-06-08T14:10:41Z</time>
      </trkpt>
      <trkpt lat="44.91657" lon="3.33883">
        <ele>1061.6</ele>
        <time>2022-06-08T14:10:51Z</time>
      </trkpt>
      <trkpt lat="44.91658" lon="3.3389">
        <ele>1061.4</ele>
        <time>2022-06-08T14:10:55Z</time>
      </trkpt>
      <trkpt lat="44.91658" lon="3.33896">
        <ele>1061.9</ele>
        <time>2022-06-08T14:10:59Z</time>
      </trkpt>
      <trkpt lat="44.91657" lon="3.33903">
        <ele>1063.8</ele>
        <time>2022-06-08T14:11:05Z</time>
      </trkpt>
      <trkpt lat="44.91657" lon="3.3391">
        <ele>1065.7</ele>
        <time>2022-06-08T14:11:12Z</time>
      </trkpt>
      <trkpt lat="44.91655" lon="3.33917">
        <ele>1066.5</ele>
        <time>2022-06-08T14:11:17Z</time>
      </trkpt>
      <trkpt lat="44.91652" lon="3.33923">
        <ele>1067.9</ele>
        <time>2022-06-08T14:11:22Z</time>
      </trkpt>
      <trkpt lat="44.9165" lon="3.3393">
        <ele>1069.3</ele>
        <time>2022-06-08T14:11:27Z</time>
      </trkpt>
      <trkpt lat="44.91648" lon="3.33935">
        <ele>1069.8</ele>
        <time>2022-06-08T14:11:34Z</time>
      </trkpt>
      <trkpt lat="44.91645" lon="3.33941">
        <ele>1069.6</ele>
        <time>2022-06-08T14:11:39Z</time>
      </trkpt>
      <trkpt lat="44.91644" lon="3.33948">
        <ele>1069.9</ele>
        <time>2022-06-08T14:11:44Z</time>
      </trkpt>
      <trkpt lat="44.91642" lon="3.33954">
        <ele>1069.8</ele>
        <time>2022-06-08T14:11:49Z</time>
      </trkpt>
      <trkpt lat="44.9164" lon="3.33961">
        <ele>1070.4</ele>
        <time>2022-06-08T14:11:55Z</time>
      </trkpt>
      <trkpt lat="44.9164" lon="3.33969">
        <ele>1071.1</ele>
        <time>2022-06-08T14:12:00Z</time>
      </trkpt>
      <trkpt lat="44.91638" lon="3.33974">
        <ele>1071.1</ele>
        <time>2022-06-08T14:12:04Z</time>
      </trkpt>
      <trkpt lat="44.91635" lon="3.33981">
        <ele>1071</ele>
        <time>2022-06-08T14:12:09Z</time>
      </trkpt>
      <trkpt lat="44.91633" lon="3.33988">
        <ele>1070.4</ele>
        <time>2022-06-08T14:12:14Z</time>
      </trkpt>
      <trkpt lat="44.91632" lon="3.33995">
        <ele>1069.8</ele>
        <time>2022-06-08T14:12:19Z</time>
      </trkpt>
      <trkpt lat="44.9163" lon="3.34001">
        <ele>1069.3</ele>
        <time>2022-06-08T14:12:25Z</time>
      </trkpt>
      <trkpt lat="44.91628" lon="3.34007">
        <ele>1070.2</ele>
        <time>2022-06-08T14:12:33Z</time>
      </trkpt>
      <trkpt lat="44.91628" lon="3.34014">
        <ele>1070.5</ele>
        <time>2022-06-08T14:12:40Z</time>
      </trkpt>
      <trkpt lat="44.91628" lon="3.3402">
        <ele>1071.9</ele>
        <time>2022-06-08T14:12:45Z</time>
      </trkpt>
      <trkpt lat="44.91628" lon="3.34027">
        <ele>1073</ele>
        <time>2022-06-08T14:12:51Z</time>
      </trkpt>
      <trkpt lat="44.91627" lon="3.34035">
        <ele>1072.6</ele>
        <time>2022-06-08T14:12:57Z</time>
      </trkpt>
      <trkpt lat="44.91625" lon="3.34041">
        <ele>1073.1</ele>
        <time>2022-06-08T14:13:03Z</time>
      </trkpt>
      <trkpt lat="44.91625" lon="3.34047">
        <ele>1073.5</ele>
        <time>2022-06-08T14:13:08Z</time>
      </trkpt>
      <trkpt lat="44.91624" lon="3.34054">
        <ele>1073.4</ele>
        <time>2022-06-08T14:13:13Z</time>
      </trkpt>
      <trkpt lat="44.91624" lon="3.34061">
        <ele>1073</ele>
        <time>2022-06-08T14:13:18Z</time>
      </trkpt>
      <trkpt lat="44.91624" lon="3.34067">
        <ele>1073.3</ele>
        <time>2022-06-08T14:13:23Z</time>
      </trkpt>
      <trkpt lat="44.91624" lon="3.34075">
        <ele>1073.6</ele>
        <time>2022-06-08T14:13:28Z</time>
      </trkpt>
      <trkpt lat="44.91624" lon="3.34082">
        <ele>1073.9</ele>
        <time>2022-06-08T14:13:32Z</time>
      </trkpt>
      <trkpt lat="44.91624" lon="3.34089">
        <ele>1074</ele>
        <time>2022-06-08T14:13:37Z</time>
      </trkpt>
      <trkpt lat="44.91623" lon="3.34095">
        <ele>1074.6</ele>
        <time>2022-06-08T14:13:43Z</time>
      </trkpt>
      <trkpt lat="44.91623" lon="3.34102">
        <ele>1076</ele>
        <time>2022-06-08T14:13:49Z</time>
      </trkpt>
      <trkpt lat="44.91624" lon="3.34109">
        <ele>1076.3</ele>
        <time>2022-06-08T14:13:56Z</time>
      </trkpt>
      <trkpt lat="44.91625" lon="3.34116">
        <ele>1075.7</ele>
        <time>2022-06-08T14:14:02Z</time>
      </trkpt>
      <trkpt lat="44.91628" lon="3.34122">
        <ele>1076.1</ele>
        <time>2022-06-08T14:14:08Z</time>
      </trkpt>
      <trkpt lat="44.9163" lon="3.34128">
        <ele>1076.9</ele>
        <time>2022-06-08T14:14:14Z</time>
      </trkpt>
      <trkpt lat="44.91633" lon="3.34135">
        <ele>1077.4</ele>
        <time>2022-06-08T14:14:20Z</time>
      </trkpt>
      <trkpt lat="44.91635" lon="3.34141">
        <ele>1077.9</ele>
        <time>2022-06-08T14:14:26Z</time>
      </trkpt>
      <trkpt lat="44.91638" lon="3.34146">
        <ele>1078.2</ele>
        <time>2022-06-08T14:14:32Z</time>
      </trkpt>
      <trkpt lat="44.91641" lon="3.34151">
        <ele>1077</ele>
        <time>2022-06-08T14:14:39Z</time>
      </trkpt>
      <trkpt lat="44.91644" lon="3.34155">
        <ele>1074.5</ele>
        <time>2022-06-08T14:14:53Z</time>
      </trkpt>
      <trkpt lat="44.91647" lon="3.34161">
        <ele>1074.2</ele>
        <time>2022-06-08T14:14:58Z</time>
      </trkpt>
      <trkpt lat="44.91649" lon="3.34167">
        <ele>1074.4</ele>
        <time>2022-06-08T14:15:03Z</time>
      </trkpt>
      <trkpt lat="44.91652" lon="3.34174">
        <ele>1074.9</ele>
        <time>2022-06-08T14:15:08Z</time>
      </trkpt>
      <trkpt lat="44.91654" lon="3.3418">
        <ele>1075.4</ele>
        <time>2022-06-08T14:15:12Z</time>
      </trkpt>
      <trkpt lat="44.91656" lon="3.34186">
        <ele>1076.6</ele>
        <time>2022-06-08T14:15:17Z</time>
      </trkpt>
      <trkpt lat="44.91658" lon="3.34193">
        <ele>1078.3</ele>
        <time>2022-06-08T14:15:22Z</time>
      </trkpt>
      <trkpt lat="44.91661" lon="3.34199">
        <ele>1080</ele>
        <time>2022-06-08T14:15:27Z</time>
      </trkpt>
      <trkpt lat="44.91665" lon="3.34204">
        <ele>1080.3</ele>
        <time>2022-06-08T14:15:32Z</time>
      </trkpt>
      <trkpt lat="44.91667" lon="3.3421">
        <ele>1081</ele>
        <time>2022-06-08T14:15:37Z</time>
      </trkpt>
      <trkpt lat="44.91669" lon="3.34216">
        <ele>1081.6</ele>
        <time>2022-06-08T14:15:42Z</time>
      </trkpt>
      <trkpt lat="44.91672" lon="3.34222">
        <ele>1081.8</ele>
        <time>2022-06-08T14:15:47Z</time>
      </trkpt>
      <trkpt lat="44.91675" lon="3.34227">
        <ele>1081.3</ele>
        <time>2022-06-08T14:15:52Z</time>
      </trkpt>
      <trkpt lat="44.91677" lon="3.34233">
        <ele>1081.1</ele>
        <time>2022-06-08T14:15:58Z</time>
      </trkpt>
      <trkpt lat="44.91677" lon="3.34226">
        <ele>1081.8</ele>
        <time>2022-06-08T14:16:10Z</time>
      </trkpt>
      <trkpt lat="44.91678" lon="3.3422">
        <ele>1080.9</ele>
        <time>2022-06-08T14:16:18Z</time>
      </trkpt>
      <trkpt lat="44.91678" lon="3.34213">
        <ele>1080.3</ele>
        <time>2022-06-08T14:16:31Z</time>
      </trkpt>
      <trkpt lat="44.91678" lon="3.34206">
        <ele>1080.3</ele>
        <time>2022-06-08T14:16:37Z</time>
      </trkpt>
      <trkpt lat="44.9168" lon="3.342">
        <ele>1080.2</ele>
        <time>2022-06-08T14:16:45Z</time>
      </trkpt>
      <trkpt lat="44.91677" lon="3.34194">
        <ele>1080.7</ele>
        <time>2022-06-08T14:16:54Z</time>
      </trkpt>
      <trkpt lat="44.91677" lon="3.34187">
        <ele>1081.8</ele>
        <time>2022-06-08T14:17:01Z</time>
      </trkpt>
    </trkseg>
  </trk>
</gpx>